GFSCGP_prec_pwat_060.txt.gz
Precipitable_Water
0.67 0.64 0.63 0.72 0.67 0.58 0.54 0.48 0.43 0.43 0.40 0.32 0.24 0.22 0.22 0.26 0.28 0.29 0.31 0.34 0.35 0.37 0.41 0.42 0.43 0.42 0.39 0.38 0.39 0.38 0.38 0.40 0.38 0.35 0.33 0.32 0.32 0.34 0.37 0.39 0.40 0.41 0.41 0.41
0.41 0.42 0.49 0.47 0.47 0.44 0.42 0.38 0.36 0.36 0.35 0.30 0.25 0.20 0.21 0.25 0.27 0.30 0.32 0.34 0.37 0.38 0.39 0.40 0.40 0.39 0.37 0.36 0.37 0.38 0.38 0.39 0.38 0.38 0.37 0.37 0.37 0.38 0.40 0.42 0.42 0.43 0.42 0.41
0.35 0.39 0.41 0.39 0.38 0.38 0.39 0.35 0.28 0.24 0.27 0.28 0.24 0.18 0.18 0.23 0.26 0.29 0.33 0.36 0.38 0.39 0.38 0.38 0.38 0.36 0.36 0.35 0.36 0.36 0.38 0.40 0.41 0.41 0.40 0.40 0.40 0.40 0.40 0.41 0.41 0.42 0.41 0.40
0.33 0.42 0.41 0.39 0.37 0.37 0.27 0.29 0.26 0.23 0.20 0.15 0.24 0.14 0.16 0.19 0.23 0.28 0.31 0.33 0.35 0.38 0.40 0.38 0.37 0.35 0.34 0.35 0.37 0.39 0.40 0.42 0.44 0.45 0.41 0.40 0.38 0.37 0.40 0.41 0.40 0.39 0.39 0.37
0.34 0.37 0.37 0.32 0.30 0.30 0.23 0.29 0.25 0.23 0.20 0.20 0.18 0.16 0.14 0.21 0.24 0.27 0.33 0.34 0.37 0.40 0.40 0.37 0.36 0.36 0.36 0.37 0.38 0.40 0.42 0.44 0.46 0.44 0.43 0.41 0.41 0.42 0.41 0.39 0.37 0.37 0.37 0.38
0.39 0.44 0.36 0.31 0.32 0.30 0.30 0.24 0.24 0.25 0.21 0.13 0.17 0.16 0.16 0.22 0.26 0.28 0.30 0.35 0.36 0.37 0.38 0.38 0.38 0.37 0.37 0.39 0.40 0.42 0.43 0.44 0.46 0.45 0.44 0.43 0.42 0.39 0.36 0.36 0.36 0.36 0.36 0.36
0.29 0.29 0.30 0.30 0.23 0.27 0.25 0.21 0.14 0.11 0.12 0.11 0.22 0.19 0.20 0.26 0.28 0.29 0.30 0.31 0.34 0.37 0.38 0.38 0.37 0.37 0.39 0.40 0.41 0.43 0.44 0.44 0.46 0.45 0.45 0.42 0.39 0.37 0.36 0.36 0.35 0.34 0.33 0.34
0.15 0.13 0.22 0.26 0.23 0.21 0.24 0.22 0.14 0.10 0.11 0.14 0.20 0.15 0.20 0.26 0.27 0.28 0.31 0.32 0.35 0.37 0.38 0.38 0.39 0.40 0.40 0.41 0.42 0.43 0.45 0.45 0.46 0.43 0.39 0.38 0.37 0.37 0.37 0.36 0.35 0.34 0.35 0.35
0.16 0.16 0.27 0.29 0.31 0.30 0.24 0.19 0.25 0.18 0.18 0.14 0.15 0.17 0.23 0.24 0.23 0.27 0.29 0.32 0.34 0.36 0.36 0.37 0.38 0.39 0.40 0.42 0.45 0.47 0.45 0.43 0.39 0.37 0.36 0.36 0.37 0.37 0.36 0.35 0.37 0.37 0.35 0.33
0.23 0.16 0.23 0.27 0.30 0.30 0.26 0.28 0.18 0.19 0.11 0.10 0.13 0.15 0.16 0.21 0.24 0.26 0.27 0.29 0.31 0.34 0.35 0.37 0.39 0.42 0.45 0.46 0.45 0.41 0.39 0.37 0.36 0.36 0.37 0.37 0.37 0.36 0.36 0.37 0.36 0.33 0.32 0.31
0.24 0.21 0.18 0.23 0.21 0.20 0.22 0.20 0.21 0.20 0.18 0.13 0.11 0.13 0.22 0.23 0.25 0.26 0.28 0.30 0.31 0.33 0.35 0.37 0.41 0.42 0.42 0.40 0.38 0.37 0.36 0.35 0.36 0.37 0.37 0.36 0.35 0.37 0.37 0.34 0.33 0.32 0.31 0.30
0.22 0.18 0.14 0.16 0.21 0.23 0.22 0.20 0.20 0.16 0.14 0.17 0.16 0.16 0.27 0.26 0.27 0.29 0.30 0.32 0.33 0.37 0.39 0.40 0.39 0.36 0.35 0.35 0.35 0.35 0.35 0.34 0.34 0.35 0.35 0.36 0.36 0.35 0.33 0.32 0.31 0.32 0.29 0.30
0.22 0.17 0.13 0.14 0.19 0.21 0.19 0.21 0.22 0.22 0.22 0.17 0.16 0.18 0.27 0.29 0.29 0.31 0.32 0.35 0.38 0.38 0.36 0.34 0.33 0.32 0.32 0.33 0.33 0.34 0.34 0.33 0.35 0.36 0.35 0.35 0.34 0.32 0.31 0.31 0.30 0.30 0.30 0.30
0.24 0.18 0.16 0.14 0.17 0.22 0.19 0.21 0.23 0.23 0.19 0.19 0.20 0.21 0.26 0.29 0.31 0.33 0.34 0.35 0.33 0.32 0.31 0.32 0.31 0.31 0.30 0.30 0.30 0.30 0.32 0.35 0.36 0.36 0.35 0.33 0.33 0.31 0.29 0.29 0.29 0.29 0.30 0.31
0.22 0.17 0.19 0.20 0.22 0.24 0.23 0.23 0.25 0.24 0.24 0.22 0.25 0.26 0.27 0.27 0.28 0.30 0.31 0.31 0.30 0.30 0.31 0.31 0.29 0.28 0.29 0.30 0.31 0.34 0.36 0.37 0.38 0.36 0.34 0.32 0.30 0.29 0.30 0.28 0.28 0.29 0.31 0.34
0.26 0.21 0.26 0.24 0.28 0.29 0.28 0.31 0.31 0.30 0.28 0.25 0.22 0.18 0.25 0.27 0.29 0.28 0.29 0.29 0.29 0.31 0.32 0.32 0.32 0.33 0.32 0.33 0.33 0.35 0.36 0.37 0.36 0.34 0.31 0.29 0.29 0.29 0.28 0.27 0.27 0.30 0.34 0.37
0.29 0.28 0.28 0.25 0.30 0.28 0.22 0.21 0.21 0.21 0.20 0.18 0.14 0.18 0.25 0.25 0.27 0.29 0.31 0.32 0.31 0.32 0.33 0.33 0.32 0.32 0.32 0.32 0.34 0.34 0.35 0.36 0.35 0.30 0.28 0.29 0.29 0.27 0.26 0.27 0.29 0.32 0.36 0.42
0.33 0.32 0.31 0.24 0.23 0.12 0.14 0.21 0.19 0.17 0.18 0.20 0.22 0.25 0.28 0.29 0.32 0.34 0.36 0.34 0.33 0.33 0.32 0.30 0.30 0.32 0.33 0.34 0.35 0.36 0.36 0.35 0.30 0.28 0.28 0.29 0.27 0.26 0.27 0.28 0.31 0.35 0.41 0.46
0.36 0.28 0.22 0.16 0.13 0.13 0.12 0.16 0.17 0.17 0.17 0.25 0.25 0.27 0.30 0.32 0.33 0.33 0.37 0.37 0.33 0.30 0.29 0.31 0.32 0.32 0.33 0.34 0.35 0.36 0.35 0.30 0.28 0.27 0.28 0.28 0.27 0.27 0.27 0.30 0.34 0.40 0.45 0.50
0.26 0.25 0.19 0.15 0.11 0.08 0.10 0.19 0.25 0.25 0.15 0.26 0.28 0.29 0.30 0.32 0.25 0.30 0.35 0.32 0.28 0.28 0.29 0.29 0.31 0.32 0.33 0.34 0.36 0.35 0.29 0.28 0.27 0.28 0.29 0.29 0.28 0.28 0.30 0.35 0.39 0.44 0.50 0.54
0.17 0.18 0.14 0.15 0.12 0.13 0.18 0.24 0.28 0.15 0.16 0.29 0.31 0.31 0.33 0.32 0.33 0.33 0.31 0.26 0.27 0.29 0.29 0.31 0.32 0.32 0.34 0.37 0.36 0.30 0.29 0.28 0.30 0.31 0.29 0.28 0.30 0.31 0.35 0.38 0.43 0.49 0.53 0.55
0.14 0.13 0.13 0.15 0.13 0.10 0.24 0.25 0.19 0.24 0.31 0.33 0.35 0.36 0.35 0.34 0.31 0.28 0.25 0.25 0.27 0.27 0.29 0.31 0.32 0.34 0.37 0.37 0.32 0.30 0.30 0.31 0.32 0.31 0.29 0.29 0.31 0.33 0.38 0.41 0.47 0.53 0.54 0.53
0.14 0.17 0.14 0.14 0.12 0.20 0.27 0.26 0.31 0.33 0.33 0.35 0.35 0.35 0.34 0.29 0.26 0.25 0.24 0.25 0.26 0.29 0.30 0.33 0.34 0.36 0.36 0.33 0.33 0.31 0.31 0.33 0.32 0.30 0.29 0.30 0.32 0.36 0.41 0.45 0.51 0.52 0.53 0.51
0.19 0.23 0.17 0.17 0.18 0.22 0.27 0.32 0.34 0.36 0.36 0.37 0.36 0.33 0.31 0.26 0.26 0.25 0.25 0.26 0.27 0.30 0.31 0.33 0.34 0.32 0.31 0.34 0.35 0.33 0.34 0.35 0.32 0.30 0.30 0.30 0.32 0.36 0.43 0.51 0.54 0.52 0.51 0.50
0.20 0.21 0.18 0.17 0.21 0.25 0.28 0.32 0.35 0.37 0.37 0.35 0.34 0.31 0.28 0.27 0.26 0.26 0.25 0.26 0.28 0.30 0.32 0.33 0.31 0.31 0.31 0.35 0.36 0.36 0.36 0.36 0.32 0.30 0.30 0.31 0.33 0.38 0.47 0.52 0.53 0.52 0.54 0.55
0.21 0.17 0.15 0.15 0.23 0.25 0.28 0.35 0.39 0.35 0.32 0.32 0.30 0.29 0.30 0.29 0.27 0.27 0.26 0.28 0.29 0.30 0.33 0.33 0.32 0.31 0.33 0.36 0.37 0.37 0.38 0.36 0.31 0.28 0.29 0.31 0.35 0.43 0.49 0.50 0.51 0.56 0.57 0.57

GFSCGP_prec_pwat_063.txt.gz
Precipitable_Water
0.62 0.52 0.52 0.58 0.63 0.65 0.62 0.67 0.61 0.54 0.51 0.46 0.40 0.33 0.27 0.30 0.29 0.28 0.31 0.33 0.34 0.37 0.43 0.44 0.45 0.45 0.45 0.42 0.40 0.41 0.40 0.41 0.42 0.39 0.36 0.35 0.35 0.36 0.38 0.40 0.42 0.43 0.43 0.43
0.58 0.51 0.58 0.68 0.72 0.70 0.63 0.52 0.46 0.48 0.47 0.41 0.35 0.26 0.24 0.26 0.28 0.30 0.32 0.34 0.36 0.39 0.40 0.43 0.44 0.45 0.43 0.39 0.40 0.40 0.40 0.41 0.41 0.41 0.40 0.39 0.38 0.39 0.39 0.42 0.43 0.44 0.44 0.43
0.42 0.53 0.60 0.56 0.53 0.46 0.44 0.40 0.39 0.39 0.39 0.33 0.26 0.19 0.20 0.25 0.27 0.29 0.32 0.35 0.37 0.38 0.40 0.42 0.43 0.43 0.41 0.38 0.38 0.38 0.39 0.40 0.43 0.45 0.45 0.43 0.42 0.41 0.41 0.42 0.44 0.44 0.43 0.41
0.41 0.47 0.42 0.40 0.37 0.38 0.32 0.41 0.38 0.31 0.24 0.17 0.24 0.13 0.17 0.20 0.25 0.28 0.33 0.35 0.35 0.39 0.41 0.42 0.42 0.41 0.39 0.39 0.39 0.39 0.40 0.41 0.44 0.47 0.46 0.43 0.41 0.39 0.42 0.44 0.44 0.41 0.40 0.39
0.36 0.38 0.36 0.35 0.37 0.40 0.33 0.35 0.29 0.25 0.21 0.20 0.18 0.16 0.16 0.24 0.24 0.27 0.31 0.36 0.38 0.40 0.43 0.44 0.42 0.41 0.40 0.39 0.39 0.40 0.42 0.43 0.46 0.47 0.47 0.45 0.43 0.44 0.45 0.43 0.38 0.38 0.38 0.39
0.37 0.45 0.42 0.39 0.40 0.36 0.34 0.27 0.24 0.24 0.21 0.13 0.17 0.16 0.15 0.21 0.25 0.27 0.31 0.35 0.38 0.40 0.42 0.43 0.42 0.40 0.39 0.40 0.41 0.42 0.43 0.44 0.47 0.48 0.48 0.47 0.45 0.43 0.39 0.37 0.36 0.37 0.38 0.37
0.40 0.40 0.43 0.42 0.31 0.31 0.26 0.21 0.13 0.11 0.11 0.11 0.21 0.18 0.20 0.25 0.27 0.29 0.32 0.33 0.36 0.37 0.39 0.41 0.41 0.41 0.40 0.41 0.42 0.43 0.44 0.44 0.47 0.49 0.49 0.47 0.42 0.39 0.36 0.36 0.36 0.35 0.34 0.35
0.24 0.23 0.31 0.33 0.25 0.20 0.21 0.21 0.14 0.09 0.10 0.13 0.20 0.14 0.20 0.26 0.29 0.31 0.32 0.33 0.35 0.37 0.39 0.40 0.41 0.42 0.42 0.43 0.43 0.43 0.45 0.47 0.50 0.47 0.42 0.40 0.39 0.38 0.37 0.38 0.37 0.35 0.36 0.36
0.18 0.16 0.26 0.27 0.29 0.29 0.24 0.20 0.24 0.17 0.17 0.14 0.16 0.18 0.23 0.24 0.24 0.26 0.28 0.31 0.33 0.35 0.36 0.37 0.38 0.39 0.40 0.42 0.44 0.47 0.48 0.47 0.42 0.39 0.39 0.38 0.38 0.38 0.37 0.37 0.37 0.36 0.35 0.33
0.21 0.15 0.23 0.26 0.30 0.30 0.26 0.27 0.18 0.19 0.12 0.10 0.13 0.14 0.15 0.20 0.22 0.26 0.27 0.29 0.31 0.34 0.35 0.36 0.38 0.41 0.43 0.45 0.46 0.44 0.41 0.38 0.38 0.38 0.38 0.38 0.38 0.37 0.37 0.36 0.35 0.33 0.32 0.32
0.26 0.22 0.18 0.24 0.22 0.23 0.24 0.23 0.22 0.20 0.17 0.12 0.11 0.13 0.22 0.23 0.25 0.26 0.28 0.30 0.32 0.34 0.36 0.38 0.41 0.43 0.43 0.41 0.38 0.35 0.35 0.35 0.36 0.38 0.39 0.37 0.35 0.36 0.36 0.34 0.33 0.33 0.31 0.29
0.24 0.19 0.15 0.16 0.21 0.23 0.22 0.20 0.20 0.15 0.13 0.17 0.16 0.15 0.25 0.27 0.28 0.29 0.30 0.33 0.36 0.39 0.41 0.41 0.39 0.37 0.35 0.33 0.32 0.32 0.33 0.35 0.37 0.37 0.35 0.36 0.37 0.36 0.35 0.34 0.31 0.29 0.28 0.29
0.22 0.18 0.14 0.14 0.18 0.21 0.19 0.21 0.22 0.22 0.21 0.17 0.15 0.17 0.28 0.29 0.30 0.32 0.34 0.36 0.38 0.38 0.36 0.35 0.33 0.32 0.32 0.31 0.30 0.30 0.31 0.33 0.35 0.37 0.37 0.37 0.36 0.34 0.32 0.29 0.29 0.29 0.28 0.28
0.26 0.18 0.15 0.14 0.17 0.21 0.18 0.20 0.23 0.23 0.19 0.20 0.21 0.22 0.25 0.29 0.31 0.33 0.32 0.33 0.33 0.32 0.32 0.32 0.32 0.33 0.34 0.34 0.33 0.33 0.34 0.36 0.37 0.37 0.37 0.35 0.34 0.31 0.28 0.29 0.28 0.27 0.28 0.28
0.22 0.17 0.19 0.19 0.21 0.23 0.23 0.23 0.24 0.23 0.24 0.21 0.23 0.24 0.27 0.27 0.26 0.28 0.29 0.30 0.31 0.32 0.33 0.34 0.34 0.35 0.35 0.34 0.34 0.33 0.34 0.35 0.37 0.36 0.35 0.34 0.29 0.29 0.28 0.27 0.27 0.28 0.28 0.30
0.24 0.20 0.24 0.23 0.28 0.29 0.28 0.30 0.30 0.28 0.26 0.24 0.23 0.20 0.24 0.25 0.26 0.27 0.30 0.32 0.32 0.32 0.33 0.34 0.34 0.33 0.32 0.32 0.32 0.33 0.34 0.35 0.36 0.35 0.33 0.29 0.28 0.28 0.28 0.27 0.27 0.28 0.30 0.33
0.28 0.27 0.27 0.24 0.29 0.28 0.21 0.21 0.19 0.20 0.21 0.19 0.14 0.18 0.23 0.24 0.27 0.30 0.32 0.33 0.33 0.34 0.34 0.33 0.30 0.30 0.30 0.30 0.32 0.32 0.34 0.36 0.35 0.34 0.29 0.28 0.29 0.27 0.27 0.28 0.28 0.30 0.32 0.36
0.31 0.31 0.30 0.24 0.23 0.13 0.15 0.20 0.19 0.17 0.17 0.19 0.20 0.23 0.26 0.28 0.32 0.33 0.35 0.34 0.35 0.36 0.32 0.28 0.28 0.28 0.30 0.31 0.32 0.34 0.36 0.36 0.34 0.29 0.29 0.29 0.29 0.28 0.28 0.28 0.29 0.32 0.36 0.38
0.36 0.29 0.22 0.17 0.14 0.14 0.11 0.15 0.15 0.15 0.14 0.21 0.21 0.25 0.28 0.30 0.30 0.30 0.37 0.40 0.37 0.32 0.28 0.28 0.29 0.30 0.31 0.32 0.34 0.35 0.36 0.33 0.30 0.29 0.29 0.30 0.30 0.28 0.28 0.28 0.31 0.35 0.38 0.41
0.28 0.26 0.19 0.16 0.10 0.08 0.10 0.16 0.21 0.21 0.11 0.21 0.23 0.25 0.27 0.29 0.23 0.29 0.35 0.35 0.30 0.27 0.28 0.28 0.30 0.31 0.32 0.34 0.37 0.36 0.32 0.30 0.29 0.29 0.30 0.31 0.30 0.30 0.29 0.31 0.34 0.38 0.42 0.46
0.18 0.17 0.13 0.14 0.10 0.09 0.13 0.18 0.22 0.11 0.12 0.24 0.27 0.28 0.29 0.27 0.30 0.34 0.34 0.30 0.29 0.28 0.29 0.31 0.31 0.32 0.33 0.36 0.36 0.30 0.30 0.29 0.30 0.31 0.32 0.31 0.31 0.31 0.33 0.35 0.38 0.41 0.46 0.51
0.11 0.10 0.09 0.12 0.09 0.06 0.19 0.20 0.14 0.19 0.26 0.28 0.30 0.31 0.32 0.34 0.34 0.32 0.29 0.27 0.26 0.27 0.29 0.30 0.30 0.32 0.35 0.34 0.31 0.29 0.30 0.33 0.33 0.34 0.32 0.31 0.31 0.32 0.34 0.36 0.40 0.45 0.51 0.51
0.10 0.12 0.11 0.11 0.10 0.17 0.22 0.21 0.25 0.28 0.27 0.30 0.32 0.35 0.35 0.32 0.29 0.29 0.26 0.27 0.27 0.28 0.29 0.31 0.30 0.31 0.32 0.32 0.31 0.29 0.32 0.34 0.35 0.34 0.31 0.31 0.31 0.32 0.35 0.38 0.42 0.49 0.51 0.50
0.15 0.20 0.15 0.15 0.16 0.18 0.22 0.26 0.29 0.31 0.32 0.35 0.36 0.35 0.32 0.28 0.29 0.26 0.26 0.26 0.27 0.28 0.29 0.31 0.31 0.30 0.30 0.31 0.33 0.33 0.34 0.36 0.36 0.33 0.30 0.29 0.29 0.33 0.37 0.43 0.51 0.50 0.49 0.48
0.16 0.20 0.17 0.16 0.19 0.22 0.24 0.27 0.31 0.33 0.36 0.36 0.35 0.32 0.30 0.29 0.27 0.27 0.27 0.27 0.28 0.29 0.31 0.32 0.31 0.31 0.32 0.34 0.34 0.36 0.38 0.39 0.36 0.32 0.29 0.28 0.31 0.34 0.40 0.49 0.50 0.50 0.53 0.53
0.18 0.15 0.13 0.12 0.19 0.21 0.24 0.31 0.35 0.35 0.34 0.32 0.29 0.29 0.30 0.30 0.28 0.29 0.28 0.29 0.30 0.30 0.32 0.32 0.33 0.34 0.35 0.34 0.35 0.40 0.41 0.41 0.36 0.30 0.28 0.29 0.34 0.39 0.47 0.49 0.49 0.54 0.55 0.55

GFSCGP_prec_pwat_066.txt.gz
Precipitable_Water
0.53 0.57 0.51 0.61 0.66 0.69 0.71 0.68 0.67 0.68 0.67 0.61 0.53 0.48 0.45 0.41 0.36 0.33 0.33 0.34 0.35 0.39 0.45 0.46 0.47 0.48 0.47 0.47 0.46 0.44 0.42 0.42 0.43 0.43 0.41 0.38 0.37 0.39 0.40 0.42 0.42 0.45 0.45 0.45
0.52 0.44 0.63 0.64 0.59 0.60 0.60 0.58 0.57 0.65 0.65 0.55 0.49 0.42 0.37 0.33 0.32 0.32 0.34 0.36 0.37 0.40 0.42 0.44 0.46 0.47 0.46 0.46 0.45 0.42 0.42 0.42 0.44 0.45 0.44 0.43 0.43 0.43 0.44 0.46 0.46 0.47 0.46 0.46
0.53 0.56 0.54 0.56 0.62 0.60 0.63 0.62 0.62 0.50 0.50 0.48 0.41 0.28 0.28 0.28 0.29 0.31 0.33 0.35 0.38 0.39 0.38 0.41 0.44 0.46 0.47 0.45 0.42 0.41 0.41 0.43 0.45 0.46 0.48 0.48 0.47 0.47 0.46 0.47 0.47 0.48 0.47 0.47
0.45 0.51 0.58 0.55 0.50 0.56 0.45 0.50 0.46 0.42 0.39 0.30 0.31 0.17 0.23 0.23 0.27 0.27 0.30 0.36 0.37 0.39 0.42 0.41 0.44 0.46 0.46 0.45 0.43 0.43 0.42 0.42 0.44 0.47 0.48 0.48 0.46 0.45 0.47 0.48 0.49 0.48 0.46 0.43
0.39 0.48 0.50 0.49 0.48 0.47 0.43 0.46 0.40 0.35 0.28 0.22 0.22 0.17 0.20 0.25 0.25 0.27 0.31 0.35 0.38 0.41 0.43 0.42 0.45 0.47 0.47 0.44 0.43 0.43 0.42 0.43 0.45 0.47 0.49 0.50 0.49 0.49 0.50 0.49 0.46 0.43 0.42 0.42
0.44 0.50 0.48 0.46 0.46 0.43 0.42 0.36 0.31 0.27 0.22 0.15 0.18 0.17 0.17 0.21 0.24 0.27 0.33 0.37 0.39 0.41 0.44 0.46 0.46 0.47 0.45 0.44 0.44 0.45 0.44 0.44 0.47 0.49 0.50 0.51 0.51 0.51 0.47 0.43 0.41 0.40 0.40 0.40
0.39 0.39 0.43 0.44 0.37 0.39 0.34 0.26 0.17 0.16 0.15 0.13 0.20 0.18 0.20 0.25 0.27 0.30 0.33 0.36 0.38 0.40 0.43 0.45 0.45 0.44 0.43 0.44 0.44 0.45 0.45 0.45 0.48 0.50 0.52 0.53 0.52 0.45 0.41 0.41 0.39 0.39 0.38 0.38
0.33 0.31 0.41 0.43 0.38 0.33 0.29 0.23 0.15 0.11 0.11 0.14 0.20 0.15 0.21 0.26 0.30 0.33 0.35 0.35 0.36 0.37 0.40 0.42 0.45 0.47 0.46 0.45 0.45 0.47 0.46 0.48 0.51 0.52 0.51 0.47 0.44 0.42 0.41 0.41 0.40 0.39 0.37 0.36
0.30 0.28 0.35 0.34 0.34 0.30 0.23 0.19 0.25 0.18 0.18 0.14 0.16 0.19 0.23 0.25 0.26 0.28 0.30 0.32 0.33 0.35 0.38 0.39 0.40 0.41 0.42 0.44 0.46 0.48 0.50 0.51 0.50 0.45 0.42 0.40 0.40 0.41 0.41 0.41 0.41 0.38 0.37 0.36
0.27 0.19 0.25 0.27 0.30 0.30 0.28 0.28 0.19 0.20 0.13 0.12 0.13 0.14 0.17 0.20 0.22 0.26 0.28 0.30 0.32 0.35 0.36 0.38 0.39 0.42 0.44 0.46 0.47 0.47 0.46 0.41 0.39 0.38 0.39 0.39 0.40 0.41 0.42 0.41 0.38 0.37 0.36 0.35
0.24 0.21 0.19 0.25 0.24 0.24 0.25 0.23 0.23 0.22 0.18 0.13 0.12 0.14 0.22 0.23 0.24 0.26 0.28 0.32 0.34 0.36 0.37 0.39 0.41 0.44 0.45 0.42 0.39 0.37 0.36 0.34 0.35 0.37 0.39 0.40 0.41 0.41 0.40 0.38 0.37 0.36 0.33 0.30
0.27 0.22 0.18 0.19 0.23 0.25 0.25 0.23 0.22 0.16 0.16 0.17 0.16 0.16 0.24 0.26 0.28 0.30 0.32 0.34 0.37 0.39 0.41 0.41 0.39 0.38 0.36 0.35 0.34 0.34 0.35 0.36 0.36 0.37 0.38 0.38 0.39 0.39 0.37 0.36 0.34 0.31 0.29 0.29
0.23 0.18 0.15 0.16 0.19 0.21 0.19 0.20 0.22 0.22 0.21 0.18 0.16 0.19 0.28 0.30 0.30 0.32 0.34 0.37 0.38 0.36 0.35 0.36 0.36 0.35 0.36 0.36 0.36 0.36 0.36 0.36 0.38 0.38 0.37 0.37 0.37 0.36 0.35 0.32 0.29 0.29 0.28 0.27
0.25 0.19 0.17 0.15 0.18 0.21 0.19 0.20 0.22 0.22 0.20 0.21 0.21 0.23 0.26 0.28 0.30 0.32 0.33 0.31 0.31 0.33 0.35 0.36 0.37 0.37 0.37 0.37 0.36 0.35 0.35 0.36 0.36 0.36 0.36 0.36 0.36 0.35 0.32 0.30 0.29 0.28 0.28 0.28
0.24 0.17 0.18 0.19 0.20 0.21 0.22 0.23 0.24 0.23 0.24 0.21 0.23 0.23 0.25 0.27 0.27 0.26 0.28 0.28 0.30 0.33 0.35 0.35 0.36 0.36 0.35 0.35 0.36 0.35 0.33 0.34 0.35 0.36 0.36 0.36 0.35 0.32 0.30 0.30 0.29 0.29 0.30 0.30
0.24 0.20 0.22 0.22 0.26 0.27 0.26 0.28 0.27 0.26 0.24 0.22 0.21 0.19 0.23 0.23 0.24 0.24 0.28 0.31 0.32 0.32 0.33 0.35 0.36 0.35 0.33 0.32 0.30 0.31 0.32 0.34 0.36 0.36 0.35 0.34 0.30 0.30 0.31 0.30 0.30 0.30 0.31 0.33
0.26 0.26 0.26 0.24 0.29 0.28 0.22 0.23 0.22 0.21 0.20 0.18 0.14 0.17 0.19 0.21 0.24 0.27 0.29 0.31 0.31 0.32 0.34 0.36 0.34 0.30 0.29 0.29 0.31 0.31 0.33 0.36 0.36 0.36 0.32 0.30 0.30 0.29 0.29 0.29 0.30 0.30 0.31 0.34
0.29 0.30 0.30 0.27 0.25 0.15 0.19 0.20 0.18 0.16 0.16 0.17 0.17 0.19 0.22 0.24 0.27 0.30 0.31 0.32 0.33 0.34 0.35 0.33 0.29 0.28 0.31 0.32 0.33 0.35 0.36 0.37 0.35 0.30 0.30 0.29 0.29 0.29 0.29 0.29 0.30 0.31 0.34 0.36
0.36 0.31 0.25 0.20 0.17 0.16 0.13 0.14 0.14 0.12 0.10 0.16 0.17 0.21 0.23 0.26 0.28 0.28 0.34 0.36 0.35 0.35 0.33 0.30 0.30 0.31 0.32 0.33 0.34 0.35 0.36 0.33 0.30 0.29 0.29 0.30 0.30 0.30 0.30 0.30 0.31 0.34 0.36 0.38
0.32 0.30 0.22 0.17 0.11 0.07 0.08 0.13 0.16 0.17 0.09 0.19 0.21 0.21 0.24 0.26 0.21 0.28 0.35 0.36 0.35 0.34 0.31 0.29 0.31 0.31 0.31 0.33 0.34 0.33 0.30 0.29 0.29 0.29 0.30 0.32 0.32 0.31 0.30 0.31 0.33 0.36 0.39 0.41
0.21 0.18 0.13 0.12 0.10 0.09 0.13 0.15 0.20 0.09 0.12 0.20 0.23 0.25 0.27 0.26 0.31 0.35 0.36 0.34 0.33 0.30 0.29 0.31 0.31 0.30 0.31 0.32 0.32 0.29 0.29 0.29 0.31 0.32 0.33 0.34 0.33 0.31 0.31 0.33 0.35 0.38 0.40 0.43
0.12 0.10 0.10 0.12 0.10 0.06 0.17 0.18 0.13 0.18 0.22 0.24 0.26 0.29 0.30 0.33 0.34 0.34 0.33 0.30 0.29 0.28 0.28 0.31 0.30 0.30 0.32 0.33 0.31 0.29 0.29 0.33 0.33 0.34 0.36 0.34 0.32 0.31 0.33 0.34 0.37 0.41 0.44 0.48
0.10 0.12 0.11 0.11 0.11 0.16 0.19 0.20 0.23 0.25 0.25 0.28 0.30 0.33 0.35 0.33 0.31 0.30 0.29 0.27 0.27 0.28 0.30 0.32 0.31 0.31 0.33 0.34 0.33 0.29 0.32 0.34 0.36 0.38 0.37 0.33 0.31 0.31 0.34 0.36 0.39 0.45 0.49 0.48
0.14 0.17 0.13 0.13 0.15 0.16 0.20 0.24 0.26 0.28 0.28 0.32 0.35 0.36 0.34 0.30 0.29 0.28 0.27 0.27 0.29 0.30 0.30 0.31 0.31 0.31 0.32 0.35 0.35 0.34 0.35 0.37 0.39 0.39 0.36 0.32 0.29 0.31 0.36 0.40 0.47 0.49 0.48 0.48
0.15 0.17 0.15 0.15 0.18 0.20 0.22 0.24 0.27 0.30 0.33 0.35 0.36 0.34 0.30 0.29 0.28 0.27 0.27 0.29 0.31 0.31 0.32 0.33 0.32 0.32 0.32 0.35 0.36 0.36 0.37 0.39 0.40 0.39 0.35 0.30 0.30 0.33 0.37 0.46 0.49 0.50 0.52 0.52
0.18 0.14 0.12 0.12 0.18 0.18 0.21 0.27 0.31 0.31 0.34 0.35 0.31 0.29 0.30 0.30 0.28 0.30 0.30 0.32 0.32 0.32 0.34 0.33 0.34 0.33 0.34 0.36 0.36 0.37 0.38 0.40 0.41 0.38 0.33 0.29 0.31 0.35 0.43 0.47 0.47 0.53 0.54 0.55

GFSCGP_prec_pwat_069.txt.gz
Precipitable_Water
0.55 0.48 0.42 0.53 0.55 0.60 0.70 0.68 0.65 0.74 0.70 0.68 0.67 0.64 0.67 0.57 0.55 0.47 0.39 0.39 0.40 0.44 0.51 0.52 0.51 0.53 0.49 0.48 0.47 0.49 0.46 0.45 0.43 0.44 0.44 0.44 0.42 0.41 0.41 0.43 0.43 0.45 0.47 0.48
0.49 0.43 0.56 0.65 0.64 0.59 0.59 0.59 0.62 0.69 0.69 0.72 0.77 0.70 0.60 0.53 0.47 0.40 0.38 0.38 0.40 0.42 0.46 0.48 0.48 0.48 0.48 0.48 0.48 0.48 0.47 0.44 0.44 0.46 0.47 0.48 0.46 0.46 0.48 0.51 0.49 0.50 0.49 0.49
0.43 0.50 0.62 0.67 0.52 0.45 0.52 0.58 0.58 0.56 0.68 0.73 0.56 0.49 0.44 0.45 0.39 0.37 0.38 0.40 0.39 0.42 0.42 0.44 0.44 0.47 0.49 0.48 0.48 0.48 0.46 0.45 0.45 0.48 0.50 0.49 0.47 0.50 0.48 0.49 0.51 0.52 0.51 0.50
0.55 0.61 0.50 0.50 0.54 0.53 0.49 0.62 0.63 0.57 0.47 0.41 0.48 0.31 0.30 0.34 0.33 0.31 0.33 0.37 0.40 0.43 0.46 0.45 0.45 0.47 0.49 0.50 0.50 0.50 0.46 0.44 0.45 0.48 0.47 0.47 0.48 0.48 0.53 0.55 0.55 0.54 0.53 0.50
0.38 0.40 0.47 0.48 0.47 0.56 0.54 0.53 0.49 0.47 0.41 0.39 0.31 0.24 0.22 0.28 0.28 0.29 0.34 0.38 0.40 0.44 0.46 0.45 0.46 0.48 0.50 0.51 0.50 0.49 0.45 0.44 0.45 0.46 0.50 0.51 0.52 0.54 0.55 0.55 0.53 0.53 0.51 0.48
0.41 0.53 0.51 0.50 0.58 0.49 0.50 0.45 0.45 0.40 0.32 0.23 0.22 0.22 0.19 0.25 0.25 0.28 0.34 0.38 0.40 0.42 0.46 0.47 0.46 0.48 0.50 0.52 0.52 0.49 0.46 0.46 0.47 0.49 0.50 0.52 0.53 0.54 0.55 0.55 0.52 0.47 0.46 0.47
0.39 0.41 0.50 0.53 0.46 0.50 0.45 0.38 0.28 0.26 0.24 0.19 0.25 0.19 0.21 0.25 0.27 0.31 0.33 0.36 0.38 0.40 0.43 0.44 0.44 0.47 0.49 0.50 0.50 0.51 0.50 0.47 0.49 0.50 0.53 0.55 0.57 0.58 0.55 0.49 0.46 0.44 0.43 0.43
0.34 0.29 0.38 0.46 0.45 0.42 0.40 0.37 0.24 0.16 0.16 0.19 0.26 0.16 0.23 0.28 0.30 0.34 0.36 0.36 0.37 0.38 0.43 0.46 0.49 0.51 0.51 0.51 0.51 0.51 0.49 0.49 0.53 0.54 0.57 0.58 0.55 0.51 0.47 0.45 0.44 0.44 0.43 0.44
0.35 0.35 0.44 0.45 0.46 0.42 0.37 0.27 0.32 0.20 0.18 0.15 0.16 0.22 0.24 0.25 0.27 0.30 0.31 0.33 0.33 0.36 0.39 0.41 0.44 0.45 0.47 0.48 0.50 0.51 0.52 0.54 0.56 0.54 0.50 0.46 0.43 0.41 0.41 0.43 0.44 0.45 0.46 0.43
0.37 0.30 0.38 0.37 0.36 0.35 0.32 0.33 0.20 0.21 0.14 0.15 0.18 0.17 0.18 0.22 0.23 0.26 0.28 0.30 0.33 0.35 0.37 0.39 0.41 0.43 0.44 0.46 0.48 0.49 0.47 0.44 0.43 0.41 0.40 0.40 0.41 0.42 0.42 0.43 0.43 0.42 0.40 0.39
0.36 0.29 0.26 0.27 0.25 0.26 0.25 0.23 0.22 0.23 0.21 0.15 0.14 0.18 0.26 0.24 0.25 0.26 0.30 0.33 0.36 0.37 0.38 0.39 0.41 0.43 0.44 0.42 0.40 0.38 0.37 0.37 0.38 0.39 0.41 0.41 0.40 0.41 0.42 0.41 0.40 0.39 0.37 0.34
0.28 0.25 0.21 0.22 0.26 0.28 0.28 0.26 0.25 0.19 0.19 0.18 0.17 0.16 0.26 0.28 0.29 0.31 0.32 0.35 0.37 0.38 0.39 0.39 0.37 0.36 0.36 0.37 0.38 0.38 0.38 0.37 0.39 0.40 0.39 0.39 0.40 0.41 0.39 0.38 0.38 0.36 0.32 0.31
0.29 0.22 0.17 0.17 0.20 0.21 0.20 0.21 0.22 0.22 0.22 0.18 0.17 0.21 0.30 0.30 0.30 0.32 0.32 0.34 0.35 0.35 0.33 0.34 0.36 0.37 0.38 0.37 0.37 0.36 0.36 0.35 0.36 0.37 0.36 0.37 0.37 0.38 0.37 0.36 0.34 0.32 0.31 0.30
0.27 0.21 0.20 0.18 0.22 0.21 0.18 0.20 0.21 0.21 0.20 0.22 0.24 0.25 0.28 0.29 0.28 0.29 0.30 0.31 0.30 0.31 0.32 0.35 0.36 0.36 0.35 0.35 0.35 0.36 0.36 0.36 0.35 0.35 0.35 0.36 0.37 0.37 0.36 0.33 0.31 0.31 0.31 0.30
0.27 0.19 0.19 0.19 0.19 0.20 0.21 0.22 0.23 0.23 0.24 0.22 0.25 0.24 0.25 0.25 0.25 0.25 0.26 0.27 0.28 0.30 0.32 0.34 0.34 0.34 0.34 0.35 0.36 0.34 0.33 0.33 0.33 0.34 0.35 0.36 0.37 0.35 0.32 0.32 0.32 0.31 0.30 0.30
0.24 0.22 0.21 0.20 0.23 0.24 0.24 0.26 0.26 0.26 0.25 0.23 0.21 0.18 0.24 0.24 0.22 0.22 0.24 0.26 0.28 0.32 0.33 0.34 0.34 0.34 0.35 0.35 0.32 0.30 0.31 0.32 0.34 0.34 0.35 0.36 0.32 0.31 0.30 0.31 0.30 0.30 0.30 0.31
0.24 0.25 0.25 0.25 0.30 0.28 0.23 0.28 0.26 0.23 0.22 0.18 0.15 0.20 0.21 0.17 0.20 0.23 0.26 0.29 0.30 0.32 0.33 0.33 0.34 0.36 0.35 0.31 0.29 0.30 0.32 0.34 0.35 0.35 0.33 0.30 0.30 0.29 0.30 0.31 0.31 0.31 0.31 0.32
0.30 0.30 0.30 0.29 0.28 0.18 0.24 0.22 0.19 0.18 0.16 0.16 0.16 0.18 0.20 0.21 0.24 0.28 0.31 0.31 0.32 0.33 0.34 0.35 0.35 0.34 0.31 0.31 0.31 0.32 0.34 0.35 0.34 0.30 0.29 0.29 0.29 0.29 0.31 0.30 0.31 0.31 0.32 0.34
0.36 0.34 0.30 0.24 0.22 0.21 0.18 0.15 0.13 0.11 0.11 0.15 0.16 0.19 0.21 0.24 0.26 0.27 0.32 0.35 0.34 0.35 0.36 0.35 0.34 0.31 0.30 0.30 0.31 0.32 0.33 0.33 0.30 0.29 0.30 0.31 0.31 0.31 0.31 0.30 0.30 0.32 0.34 0.35
0.35 0.34 0.28 0.24 0.16 0.09 0.12 0.12 0.15 0.15 0.09 0.20 0.19 0.19 0.21 0.24 0.18 0.28 0.36 0.36 0.36 0.37 0.36 0.33 0.30 0.30 0.30 0.32 0.33 0.32 0.31 0.30 0.29 0.32 0.32 0.33 0.35 0.35 0.32 0.31 0.32 0.35 0.36 0.37
0.27 0.25 0.19 0.17 0.13 0.11 0.15 0.14 0.17 0.08 0.15 0.20 0.20 0.23 0.25 0.24 0.29 0.34 0.36 0.35 0.36 0.35 0.32 0.31 0.30 0.30 0.32 0.34 0.33 0.31 0.31 0.29 0.32 0.34 0.34 0.37 0.38 0.35 0.33 0.33 0.34 0.35 0.37 0.41
0.20 0.16 0.12 0.13 0.12 0.07 0.18 0.16 0.12 0.20 0.21 0.21 0.23 0.26 0.28 0.32 0.33 0.35 0.35 0.34 0.32 0.29 0.29 0.30 0.30 0.31 0.33 0.35 0.34 0.31 0.31 0.34 0.35 0.35 0.36 0.38 0.38 0.34 0.33 0.32 0.35 0.38 0.41 0.46
0.13 0.14 0.14 0.12 0.14 0.19 0.18 0.20 0.23 0.24 0.23 0.24 0.27 0.30 0.32 0.33 0.33 0.33 0.31 0.30 0.29 0.29 0.30 0.32 0.32 0.32 0.34 0.35 0.35 0.32 0.34 0.35 0.36 0.36 0.37 0.39 0.37 0.33 0.32 0.33 0.36 0.41 0.47 0.48
0.15 0.18 0.12 0.13 0.15 0.16 0.18 0.22 0.24 0.25 0.27 0.30 0.32 0.34 0.34 0.33 0.32 0.30 0.29 0.28 0.29 0.31 0.32 0.34 0.33 0.32 0.32 0.35 0.36 0.36 0.36 0.36 0.36 0.36 0.37 0.38 0.34 0.32 0.32 0.36 0.41 0.47 0.47 0.47
0.18 0.18 0.13 0.14 0.16 0.20 0.20 0.22 0.25 0.28 0.30 0.32 0.34 0.34 0.34 0.32 0.30 0.28 0.27 0.29 0.31 0.33 0.35 0.36 0.35 0.35 0.35 0.36 0.36 0.38 0.37 0.38 0.37 0.37 0.39 0.37 0.33 0.31 0.32 0.37 0.46 0.49 0.51 0.51
0.18 0.13 0.13 0.12 0.18 0.18 0.20 0.24 0.28 0.29 0.31 0.33 0.34 0.33 0.32 0.31 0.28 0.29 0.30 0.32 0.34 0.35 0.36 0.36 0.36 0.36 0.36 0.37 0.37 0.38 0.40 0.40 0.38 0.38 0.40 0.35 0.32 0.30 0.33 0.42 0.46 0.50 0.52 0.53

GFSCGP_prec_pwat_072.txt.gz
Precipitable_Water
0.53 0.49 0.43 0.44 0.46 0.48 0.54 0.58 0.61 0.75 0.81 0.80 0.77 0.73 0.75 0.80 0.72 0.62 0.62 0.53 0.47 0.53 0.61 0.65 0.69 0.67 0.58 0.52 0.50 0.50 0.49 0.47 0.46 0.45 0.42 0.43 0.43 0.44 0.43 0.43 0.42 0.43 0.47 0.47
0.51 0.43 0.50 0.51 0.50 0.48 0.56 0.55 0.60 0.76 0.79 0.70 0.68 0.71 0.84 0.88 0.76 0.62 0.59 0.48 0.45 0.48 0.55 0.59 0.59 0.58 0.51 0.49 0.49 0.49 0.48 0.47 0.48 0.47 0.46 0.48 0.49 0.50 0.48 0.49 0.50 0.49 0.49 0.49
0.49 0.48 0.53 0.53 0.59 0.53 0.52 0.52 0.53 0.56 0.59 0.66 0.66 0.55 0.61 0.68 0.65 0.57 0.48 0.43 0.42 0.44 0.49 0.53 0.52 0.52 0.49 0.48 0.48 0.49 0.49 0.49 0.49 0.48 0.49 0.50 0.51 0.50 0.49 0.49 0.51 0.54 0.54 0.52
0.55 0.57 0.53 0.62 0.56 0.55 0.45 0.52 0.55 0.52 0.49 0.47 0.48 0.33 0.41 0.44 0.43 0.41 0.40 0.40 0.42 0.44 0.50 0.51 0.51 0.49 0.48 0.49 0.50 0.51 0.51 0.51 0.49 0.47 0.47 0.47 0.46 0.45 0.51 0.56 0.58 0.59 0.58 0.55
0.51 0.58 0.53 0.48 0.58 0.59 0.50 0.58 0.52 0.54 0.48 0.40 0.40 0.35 0.32 0.34 0.33 0.33 0.36 0.38 0.41 0.44 0.47 0.48 0.48 0.48 0.49 0.51 0.51 0.52 0.52 0.49 0.46 0.47 0.48 0.48 0.49 0.52 0.55 0.56 0.56 0.56 0.57 0.56
0.51 0.52 0.63 0.59 0.51 0.55 0.54 0.48 0.44 0.42 0.37 0.28 0.34 0.30 0.28 0.30 0.30 0.32 0.36 0.37 0.40 0.42 0.46 0.48 0.48 0.47 0.48 0.51 0.53 0.53 0.51 0.48 0.48 0.48 0.48 0.49 0.49 0.52 0.54 0.57 0.58 0.58 0.56 0.53
0.43 0.43 0.49 0.58 0.54 0.49 0.45 0.38 0.31 0.29 0.28 0.25 0.30 0.27 0.29 0.31 0.33 0.34 0.33 0.35 0.38 0.40 0.42 0.42 0.43 0.45 0.48 0.50 0.53 0.53 0.53 0.50 0.50 0.50 0.51 0.53 0.55 0.57 0.58 0.57 0.53 0.48 0.46 0.44
0.34 0.29 0.45 0.49 0.46 0.41 0.40 0.40 0.31 0.21 0.23 0.26 0.32 0.23 0.25 0.32 0.35 0.35 0.36 0.36 0.37 0.38 0.42 0.42 0.44 0.46 0.48 0.50 0.52 0.54 0.53 0.51 0.52 0.53 0.54 0.56 0.56 0.53 0.50 0.47 0.45 0.44 0.43 0.44
0.40 0.35 0.42 0.44 0.48 0.47 0.42 0.36 0.42 0.33 0.29 0.22 0.22 0.24 0.27 0.31 0.31 0.32 0.32 0.33 0.34 0.36 0.39 0.43 0.46 0.48 0.50 0.50 0.51 0.51 0.52 0.51 0.51 0.50 0.50 0.47 0.45 0.43 0.43 0.44 0.44 0.44 0.44 0.44
0.38 0.36 0.42 0.42 0.43 0.44 0.44 0.45 0.31 0.27 0.18 0.17 0.20 0.22 0.22 0.25 0.26 0.29 0.29 0.31 0.33 0.36 0.38 0.40 0.41 0.42 0.43 0.43 0.42 0.42 0.42 0.41 0.41 0.40 0.41 0.41 0.41 0.42 0.42 0.42 0.41 0.41 0.41 0.41
0.40 0.35 0.34 0.36 0.33 0.33 0.29 0.28 0.28 0.27 0.24 0.17 0.15 0.20 0.29 0.28 0.28 0.27 0.30 0.33 0.35 0.36 0.37 0.37 0.38 0.38 0.39 0.39 0.37 0.36 0.37 0.37 0.37 0.38 0.38 0.37 0.38 0.39 0.40 0.40 0.40 0.39 0.38 0.37
0.43 0.38 0.29 0.27 0.30 0.31 0.29 0.26 0.26 0.20 0.19 0.20 0.18 0.18 0.29 0.29 0.30 0.32 0.33 0.35 0.36 0.36 0.36 0.35 0.35 0.35 0.34 0.35 0.37 0.37 0.37 0.36 0.36 0.37 0.36 0.35 0.36 0.37 0.37 0.38 0.38 0.38 0.35 0.34
0.31 0.24 0.20 0.20 0.22 0.24 0.23 0.24 0.26 0.25 0.25 0.21 0.18 0.19 0.31 0.32 0.31 0.33 0.33 0.33 0.33 0.33 0.33 0.33 0.33 0.34 0.35 0.35 0.35 0.35 0.37 0.37 0.37 0.36 0.34 0.34 0.35 0.36 0.37 0.38 0.37 0.35 0.32 0.32
0.32 0.26 0.23 0.20 0.25 0.24 0.18 0.20 0.22 0.21 0.18 0.18 0.22 0.25 0.29 0.30 0.30 0.30 0.30 0.29 0.29 0.29 0.30 0.33 0.33 0.34 0.34 0.34 0.35 0.36 0.36 0.37 0.35 0.33 0.33 0.34 0.36 0.36 0.36 0.35 0.32 0.31 0.32 0.31
0.27 0.21 0.21 0.21 0.22 0.21 0.21 0.21 0.21 0.20 0.22 0.21 0.24 0.25 0.28 0.29 0.28 0.26 0.25 0.25 0.26 0.28 0.31 0.32 0.32 0.33 0.34 0.35 0.35 0.36 0.35 0.32 0.32 0.32 0.33 0.34 0.35 0.35 0.31 0.31 0.30 0.30 0.31 0.31
0.29 0.23 0.21 0.19 0.22 0.22 0.20 0.23 0.25 0.25 0.25 0.25 0.24 0.23 0.28 0.24 0.23 0.21 0.23 0.24 0.26 0.29 0.32 0.33 0.33 0.33 0.34 0.35 0.36 0.33 0.30 0.32 0.33 0.33 0.33 0.34 0.31 0.29 0.29 0.29 0.30 0.30 0.30 0.30
0.23 0.23 0.23 0.23 0.29 0.28 0.24 0.28 0.29 0.26 0.25 0.22 0.16 0.19 0.20 0.18 0.17 0.19 0.22 0.25 0.28 0.30 0.32 0.33 0.34 0.34 0.36 0.37 0.33 0.28 0.30 0.32 0.32 0.33 0.33 0.29 0.29 0.29 0.30 0.30 0.31 0.31 0.31 0.32
0.27 0.28 0.30 0.28 0.30 0.19 0.27 0.27 0.23 0.21 0.19 0.18 0.16 0.17 0.19 0.18 0.20 0.24 0.28 0.28 0.30 0.32 0.33 0.34 0.35 0.37 0.36 0.32 0.30 0.31 0.32 0.32 0.33 0.31 0.29 0.30 0.31 0.30 0.31 0.33 0.33 0.32 0.32 0.32
0.37 0.34 0.30 0.25 0.25 0.25 0.24 0.21 0.15 0.11 0.11 0.14 0.14 0.18 0.19 0.21 0.23 0.24 0.30 0.32 0.33 0.35 0.35 0.37 0.38 0.35 0.30 0.29 0.32 0.32 0.32 0.32 0.32 0.29 0.30 0.32 0.32 0.32 0.33 0.34 0.33 0.32 0.32 0.35
0.35 0.36 0.31 0.28 0.19 0.14 0.19 0.15 0.15 0.13 0.07 0.18 0.18 0.18 0.18 0.21 0.14 0.23 0.32 0.34 0.36 0.37 0.38 0.38 0.35 0.31 0.30 0.32 0.34 0.33 0.32 0.31 0.30 0.30 0.32 0.33 0.34 0.34 0.35 0.35 0.32 0.33 0.35 0.35
0.30 0.29 0.24 0.24 0.19 0.16 0.18 0.16 0.15 0.07 0.12 0.19 0.19 0.20 0.22 0.22 0.26 0.30 0.33 0.34 0.37 0.38 0.37 0.34 0.31 0.30 0.32 0.35 0.35 0.33 0.33 0.31 0.33 0.34 0.34 0.34 0.35 0.36 0.36 0.33 0.33 0.35 0.35 0.37
0.26 0.23 0.19 0.17 0.14 0.09 0.20 0.16 0.10 0.18 0.21 0.21 0.21 0.23 0.26 0.29 0.30 0.32 0.33 0.35 0.36 0.35 0.32 0.31 0.30 0.31 0.34 0.35 0.35 0.34 0.33 0.35 0.35 0.35 0.34 0.34 0.36 0.37 0.35 0.33 0.33 0.33 0.35 0.42
0.21 0.22 0.18 0.15 0.14 0.20 0.19 0.18 0.21 0.23 0.22 0.23 0.25 0.27 0.30 0.30 0.30 0.32 0.33 0.34 0.33 0.31 0.30 0.32 0.33 0.34 0.36 0.37 0.37 0.34 0.35 0.36 0.35 0.35 0.35 0.36 0.37 0.38 0.35 0.32 0.31 0.32 0.42 0.47
0.24 0.22 0.15 0.13 0.13 0.16 0.18 0.20 0.22 0.23 0.24 0.27 0.30 0.31 0.32 0.30 0.32 0.32 0.32 0.31 0.30 0.31 0.32 0.34 0.35 0.34 0.35 0.37 0.37 0.37 0.37 0.37 0.36 0.35 0.36 0.37 0.39 0.37 0.34 0.32 0.32 0.39 0.46 0.46
0.21 0.20 0.13 0.11 0.14 0.18 0.20 0.20 0.23 0.25 0.27 0.28 0.33 0.33 0.32 0.33 0.32 0.31 0.29 0.29 0.31 0.32 0.34 0.36 0.35 0.35 0.36 0.37 0.37 0.38 0.39 0.38 0.37 0.37 0.37 0.40 0.40 0.35 0.31 0.30 0.36 0.46 0.50 0.49
0.19 0.14 0.12 0.11 0.17 0.19 0.21 0.25 0.26 0.26 0.27 0.31 0.32 0.33 0.35 0.33 0.31 0.30 0.29 0.31 0.32 0.33 0.35 0.34 0.35 0.35 0.36 0.37 0.38 0.39 0.40 0.40 0.38 0.37 0.39 0.41 0.38 0.33 0.30 0.32 0.40 0.50 0.50 0.51

GFSCGP_prec_pwat_075.txt.gz
Precipitable_Water
0.50 0.41 0.38 0.51 0.58 0.51 0.47 0.43 0.44 0.57 0.76 0.74 0.75 0.77 0.85 0.87 0.87 0.80 0.82 0.69 0.64 0.70 0.76 0.80 0.78 0.75 0.73 0.70 0.67 0.60 0.53 0.50 0.50 0.49 0.47 0.45 0.41 0.44 0.45 0.46 0.45 0.44 0.44 0.46
0.47 0.33 0.48 0.60 0.54 0.47 0.40 0.44 0.47 0.53 0.69 0.63 0.68 0.71 0.79 0.79 0.78 0.80 0.78 0.77 0.69 0.59 0.68 0.72 0.71 0.69 0.67 0.64 0.60 0.54 0.51 0.50 0.50 0.49 0.48 0.47 0.46 0.49 0.49 0.50 0.49 0.48 0.48 0.48
0.43 0.41 0.56 0.55 0.45 0.42 0.40 0.46 0.55 0.58 0.65 0.69 0.64 0.58 0.59 0.67 0.71 0.71 0.66 0.59 0.54 0.52 0.57 0.62 0.61 0.61 0.61 0.58 0.54 0.52 0.51 0.50 0.51 0.51 0.51 0.50 0.51 0.51 0.50 0.50 0.50 0.51 0.54 0.55
0.45 0.54 0.51 0.51 0.51 0.52 0.42 0.60 0.57 0.56 0.53 0.41 0.56 0.34 0.42 0.47 0.48 0.53 0.50 0.45 0.43 0.45 0.51 0.56 0.57 0.56 0.55 0.53 0.50 0.50 0.50 0.50 0.51 0.50 0.47 0.46 0.45 0.45 0.48 0.50 0.55 0.57 0.59 0.58
0.49 0.54 0.51 0.49 0.57 0.64 0.50 0.59 0.57 0.53 0.45 0.44 0.41 0.30 0.33 0.38 0.35 0.37 0.39 0.40 0.39 0.43 0.47 0.50 0.53 0.53 0.53 0.51 0.49 0.50 0.50 0.50 0.50 0.50 0.48 0.48 0.47 0.50 0.53 0.56 0.57 0.59 0.60 0.60
0.61 0.69 0.67 0.53 0.67 0.64 0.63 0.57 0.53 0.51 0.46 0.30 0.34 0.32 0.27 0.30 0.32 0.35 0.39 0.41 0.39 0.41 0.44 0.49 0.52 0.50 0.48 0.50 0.50 0.51 0.51 0.51 0.52 0.51 0.51 0.50 0.50 0.50 0.50 0.53 0.54 0.55 0.55 0.54
0.55 0.53 0.61 0.64 0.49 0.60 0.58 0.47 0.34 0.30 0.27 0.24 0.31 0.26 0.27 0.33 0.36 0.37 0.38 0.37 0.39 0.40 0.42 0.43 0.44 0.45 0.48 0.49 0.51 0.54 0.54 0.52 0.53 0.52 0.51 0.50 0.49 0.51 0.52 0.53 0.52 0.50 0.49 0.49
0.40 0.34 0.48 0.60 0.55 0.43 0.43 0.41 0.31 0.24 0.24 0.25 0.30 0.22 0.27 0.37 0.40 0.40 0.39 0.36 0.38 0.37 0.39 0.42 0.44 0.46 0.48 0.50 0.52 0.53 0.53 0.52 0.52 0.50 0.50 0.51 0.52 0.52 0.51 0.49 0.47 0.45 0.44 0.45
0.40 0.34 0.48 0.48 0.55 0.53 0.44 0.35 0.43 0.32 0.29 0.24 0.26 0.29 0.33 0.36 0.35 0.37 0.33 0.33 0.34 0.38 0.40 0.43 0.46 0.47 0.48 0.49 0.49 0.49 0.49 0.49 0.48 0.47 0.46 0.46 0.45 0.45 0.43 0.42 0.42 0.41 0.42 0.42
0.43 0.35 0.42 0.45 0.51 0.50 0.46 0.46 0.35 0.33 0.24 0.22 0.26 0.25 0.23 0.29 0.31 0.33 0.32 0.32 0.33 0.37 0.40 0.41 0.42 0.43 0.44 0.43 0.41 0.39 0.39 0.38 0.38 0.38 0.39 0.39 0.40 0.40 0.40 0.40 0.39 0.40 0.41 0.41
0.39 0.41 0.39 0.40 0.37 0.38 0.40 0.38 0.37 0.35 0.30 0.22 0.19 0.21 0.30 0.30 0.32 0.31 0.32 0.32 0.35 0.36 0.36 0.36 0.35 0.35 0.35 0.36 0.36 0.36 0.35 0.36 0.37 0.38 0.39 0.38 0.37 0.37 0.38 0.38 0.39 0.38 0.38 0.38
0.39 0.36 0.31 0.31 0.37 0.40 0.37 0.29 0.28 0.22 0.22 0.23 0.19 0.17 0.28 0.30 0.31 0.32 0.33 0.35 0.36 0.35 0.33 0.32 0.33 0.33 0.34 0.33 0.34 0.35 0.36 0.37 0.38 0.38 0.39 0.38 0.36 0.35 0.35 0.36 0.37 0.38 0.36 0.35
0.42 0.41 0.30 0.28 0.28 0.29 0.27 0.27 0.28 0.26 0.25 0.20 0.17 0.18 0.29 0.31 0.32 0.35 0.35 0.36 0.34 0.31 0.31 0.31 0.31 0.31 0.32 0.33 0.35 0.35 0.37 0.38 0.39 0.40 0.39 0.35 0.33 0.33 0.34 0.34 0.34 0.34 0.30 0.30
0.36 0.28 0.23 0.19 0.23 0.23 0.19 0.22 0.25 0.24 0.20 0.19 0.20 0.21 0.26 0.30 0.31 0.33 0.34 0.34 0.29 0.28 0.29 0.30 0.31 0.33 0.35 0.36 0.35 0.37 0.37 0.38 0.39 0.37 0.32 0.31 0.32 0.33 0.33 0.33 0.31 0.29 0.29 0.29
0.29 0.23 0.23 0.24 0.25 0.24 0.22 0.20 0.21 0.20 0.21 0.18 0.23 0.24 0.27 0.30 0.31 0.31 0.29 0.26 0.26 0.27 0.29 0.30 0.31 0.33 0.35 0.36 0.37 0.37 0.38 0.37 0.34 0.31 0.31 0.31 0.33 0.33 0.31 0.29 0.30 0.30 0.30 0.31
0.29 0.22 0.22 0.19 0.22 0.21 0.19 0.22 0.23 0.23 0.23 0.24 0.24 0.25 0.32 0.31 0.29 0.24 0.23 0.25 0.26 0.28 0.29 0.31 0.33 0.34 0.36 0.36 0.37 0.38 0.36 0.31 0.32 0.31 0.32 0.33 0.32 0.29 0.29 0.30 0.30 0.30 0.32 0.32
0.23 0.22 0.22 0.21 0.28 0.27 0.21 0.26 0.28 0.27 0.28 0.26 0.21 0.23 0.25 0.20 0.20 0.21 0.22 0.25 0.26 0.28 0.30 0.32 0.34 0.36 0.37 0.38 0.39 0.35 0.31 0.31 0.31 0.32 0.32 0.31 0.30 0.29 0.30 0.31 0.31 0.32 0.32 0.32
0.25 0.26 0.28 0.25 0.29 0.19 0.28 0.31 0.29 0.25 0.25 0.23 0.20 0.17 0.18 0.19 0.20 0.22 0.24 0.25 0.27 0.29 0.32 0.34 0.36 0.37 0.39 0.39 0.36 0.32 0.31 0.32 0.33 0.32 0.31 0.30 0.30 0.31 0.31 0.31 0.32 0.33 0.32 0.31
0.35 0.33 0.28 0.25 0.26 0.27 0.27 0.26 0.20 0.19 0.18 0.19 0.15 0.17 0.18 0.21 0.21 0.22 0.27 0.30 0.31 0.33 0.36 0.37 0.39 0.40 0.38 0.34 0.32 0.32 0.33 0.34 0.33 0.31 0.30 0.31 0.32 0.31 0.31 0.32 0.33 0.33 0.31 0.32
0.36 0.38 0.31 0.29 0.21 0.16 0.21 0.22 0.20 0.16 0.06 0.14 0.17 0.18 0.18 0.18 0.12 0.18 0.27 0.31 0.33 0.36 0.38 0.38 0.39 0.37 0.33 0.31 0.33 0.34 0.34 0.33 0.32 0.31 0.32 0.34 0.34 0.33 0.33 0.34 0.34 0.32 0.34 0.33
0.31 0.30 0.27 0.26 0.22 0.21 0.25 0.20 0.18 0.05 0.08 0.18 0.18 0.19 0.18 0.16 0.20 0.27 0.30 0.33 0.36 0.37 0.38 0.38 0.35 0.30 0.31 0.35 0.36 0.33 0.33 0.32 0.34 0.35 0.35 0.36 0.36 0.35 0.36 0.37 0.35 0.34 0.32 0.31
0.30 0.26 0.23 0.24 0.20 0.12 0.22 0.18 0.10 0.14 0.19 0.18 0.19 0.21 0.22 0.26 0.28 0.30 0.33 0.35 0.37 0.37 0.36 0.33 0.30 0.31 0.35 0.36 0.35 0.33 0.32 0.35 0.36 0.36 0.36 0.36 0.37 0.37 0.39 0.38 0.35 0.33 0.30 0.33
0.27 0.29 0.23 0.19 0.14 0.20 0.19 0.16 0.18 0.21 0.18 0.20 0.21 0.24 0.26 0.27 0.29 0.32 0.33 0.35 0.37 0.33 0.30 0.31 0.33 0.34 0.36 0.36 0.36 0.32 0.34 0.36 0.37 0.36 0.36 0.37 0.37 0.39 0.41 0.37 0.32 0.28 0.33 0.40
0.30 0.31 0.22 0.18 0.18 0.18 0.20 0.22 0.23 0.23 0.22 0.25 0.27 0.28 0.29 0.30 0.32 0.33 0.35 0.35 0.31 0.30 0.31 0.34 0.34 0.33 0.32 0.35 0.37 0.37 0.37 0.38 0.37 0.36 0.37 0.38 0.38 0.41 0.40 0.35 0.31 0.31 0.40 0.45
0.29 0.28 0.19 0.15 0.15 0.17 0.17 0.20 0.22 0.24 0.26 0.27 0.28 0.31 0.32 0.32 0.33 0.34 0.33 0.30 0.29 0.31 0.33 0.34 0.32 0.31 0.33 0.36 0.36 0.38 0.38 0.39 0.37 0.37 0.38 0.37 0.40 0.41 0.36 0.33 0.31 0.39 0.49 0.49
0.31 0.25 0.17 0.11 0.15 0.16 0.19 0.23 0.27 0.26 0.26 0.29 0.30 0.31 0.33 0.34 0.34 0.33 0.28 0.30 0.32 0.32 0.31 0.31 0.32 0.33 0.33 0.35 0.36 0.38 0.41 0.41 0.39 0.38 0.38 0.39 0.42 0.38 0.34 0.30 0.34 0.48 0.49 0.49

GFSCGP_prec_pwat_078.txt.gz
Precipitable_Water
0.37 0.37 0.34 0.47 0.52 0.52 0.49 0.44 0.42 0.49 0.60 0.57 0.59 0.65 0.71 0.84 0.88 0.90 0.92 0.88 0.81 0.86 0.93 1.03 1.06 1.04 0.96 0.88 0.82 0.75 0.75 0.70 0.59 0.52 0.50 0.49 0.47 0.46 0.46 0.48 0.48 0.46 0.46 0.45
0.42 0.35 0.48 0.60 0.62 0.57 0.53 0.46 0.43 0.52 0.64 0.57 0.58 0.56 0.74 0.83 0.84 0.85 0.82 0.77 0.73 0.74 0.84 0.95 0.97 0.92 0.87 0.81 0.75 0.70 0.67 0.61 0.55 0.52 0.51 0.49 0.48 0.46 0.46 0.49 0.50 0.50 0.50 0.49
0.38 0.41 0.47 0.54 0.58 0.55 0.50 0.42 0.41 0.44 0.58 0.58 0.54 0.49 0.55 0.67 0.74 0.74 0.73 0.74 0.73 0.66 0.62 0.67 0.70 0.74 0.77 0.76 0.71 0.66 0.61 0.55 0.52 0.51 0.51 0.50 0.49 0.48 0.47 0.49 0.50 0.51 0.52 0.53
0.42 0.46 0.44 0.44 0.46 0.49 0.35 0.47 0.52 0.53 0.49 0.41 0.59 0.35 0.42 0.47 0.54 0.59 0.60 0.57 0.58 0.54 0.49 0.54 0.59 0.62 0.64 0.66 0.65 0.61 0.54 0.51 0.51 0.51 0.50 0.47 0.44 0.44 0.48 0.51 0.53 0.54 0.57 0.58
0.40 0.44 0.42 0.43 0.41 0.58 0.46 0.57 0.55 0.59 0.55 0.54 0.51 0.43 0.39 0.41 0.39 0.43 0.43 0.46 0.50 0.46 0.44 0.51 0.54 0.59 0.60 0.60 0.57 0.53 0.50 0.49 0.51 0.50 0.50 0.50 0.48 0.50 0.52 0.53 0.53 0.55 0.57 0.58
0.51 0.60 0.57 0.51 0.56 0.63 0.62 0.59 0.54 0.57 0.52 0.39 0.42 0.37 0.30 0.33 0.36 0.35 0.39 0.41 0.41 0.41 0.43 0.50 0.55 0.57 0.56 0.54 0.51 0.50 0.49 0.49 0.51 0.52 0.52 0.51 0.49 0.49 0.49 0.49 0.49 0.51 0.53 0.55
0.50 0.54 0.62 0.61 0.53 0.62 0.63 0.52 0.37 0.37 0.35 0.32 0.41 0.37 0.34 0.36 0.36 0.37 0.36 0.38 0.40 0.39 0.41 0.45 0.48 0.50 0.50 0.49 0.50 0.51 0.51 0.50 0.52 0.50 0.49 0.49 0.48 0.47 0.47 0.48 0.49 0.50 0.50 0.50
0.42 0.43 0.56 0.64 0.54 0.53 0.56 0.57 0.43 0.30 0.29 0.31 0.36 0.25 0.27 0.38 0.41 0.42 0.41 0.42 0.39 0.37 0.40 0.43 0.47 0.48 0.49 0.50 0.51 0.52 0.52 0.51 0.51 0.50 0.49 0.50 0.51 0.51 0.51 0.49 0.48 0.46 0.46 0.45
0.48 0.43 0.54 0.61 0.61 0.53 0.48 0.45 0.50 0.36 0.33 0.29 0.28 0.29 0.34 0.39 0.39 0.40 0.40 0.40 0.35 0.38 0.39 0.43 0.46 0.48 0.49 0.49 0.49 0.49 0.48 0.48 0.47 0.47 0.48 0.46 0.45 0.45 0.44 0.45 0.44 0.43 0.43 0.42
0.40 0.35 0.46 0.50 0.57 0.59 0.47 0.49 0.36 0.34 0.23 0.21 0.24 0.26 0.26 0.33 0.35 0.38 0.36 0.33 0.37 0.38 0.41 0.44 0.46 0.46 0.45 0.44 0.44 0.44 0.44 0.41 0.40 0.39 0.38 0.39 0.40 0.41 0.41 0.41 0.40 0.40 0.40 0.39
0.43 0.39 0.38 0.43 0.42 0.47 0.44 0.44 0.43 0.43 0.36 0.26 0.23 0.24 0.33 0.32 0.35 0.35 0.33 0.35 0.36 0.38 0.41 0.43 0.42 0.39 0.38 0.37 0.36 0.35 0.35 0.35 0.36 0.38 0.40 0.40 0.41 0.40 0.40 0.39 0.37 0.36 0.36 0.36
0.44 0.38 0.31 0.36 0.42 0.46 0.46 0.41 0.38 0.31 0.29 0.30 0.26 0.23 0.32 0.33 0.35 0.35 0.34 0.35 0.38 0.40 0.39 0.35 0.31 0.31 0.31 0.32 0.34 0.34 0.36 0.37 0.38 0.40 0.41 0.40 0.41 0.41 0.38 0.34 0.34 0.34 0.33 0.34
0.46 0.40 0.31 0.31 0.32 0.35 0.35 0.37 0.34 0.32 0.29 0.22 0.18 0.18 0.28 0.30 0.32 0.35 0.34 0.37 0.39 0.38 0.35 0.29 0.28 0.28 0.29 0.31 0.33 0.35 0.36 0.37 0.38 0.39 0.40 0.40 0.38 0.35 0.33 0.32 0.32 0.33 0.32 0.31
0.40 0.38 0.33 0.25 0.25 0.25 0.23 0.25 0.27 0.24 0.20 0.20 0.20 0.21 0.26 0.28 0.30 0.35 0.36 0.37 0.36 0.32 0.27 0.27 0.28 0.29 0.31 0.34 0.36 0.37 0.37 0.38 0.39 0.40 0.39 0.34 0.33 0.32 0.32 0.33 0.33 0.31 0.32 0.31
0.31 0.25 0.25 0.26 0.26 0.27 0.22 0.20 0.23 0.22 0.23 0.20 0.20 0.21 0.25 0.30 0.32 0.33 0.35 0.33 0.28 0.26 0.27 0.28 0.29 0.31 0.34 0.36 0.38 0.39 0.39 0.40 0.41 0.38 0.33 0.32 0.33 0.34 0.34 0.32 0.32 0.33 0.32 0.31
0.32 0.24 0.24 0.21 0.24 0.23 0.20 0.21 0.22 0.23 0.22 0.22 0.23 0.24 0.31 0.32 0.33 0.32 0.29 0.25 0.24 0.26 0.29 0.30 0.32 0.33 0.35 0.37 0.39 0.40 0.41 0.40 0.38 0.32 0.32 0.33 0.33 0.33 0.32 0.32 0.32 0.31 0.31 0.31
0.27 0.25 0.22 0.18 0.25 0.26 0.22 0.24 0.24 0.24 0.26 0.26 0.22 0.26 0.30 0.28 0.25 0.22 0.22 0.24 0.25 0.28 0.30 0.31 0.33 0.36 0.38 0.39 0.41 0.40 0.40 0.38 0.32 0.32 0.33 0.33 0.32 0.31 0.32 0.32 0.31 0.30 0.31 0.32
0.24 0.25 0.27 0.23 0.27 0.17 0.26 0.32 0.32 0.30 0.30 0.28 0.25 0.24 0.20 0.18 0.21 0.23 0.24 0.24 0.26 0.29 0.31 0.33 0.36 0.38 0.40 0.42 0.42 0.41 0.36 0.33 0.34 0.34 0.33 0.32 0.31 0.31 0.32 0.31 0.31 0.32 0.32 0.31
0.33 0.30 0.26 0.23 0.24 0.27 0.29 0.30 0.26 0.24 0.21 0.28 0.21 0.18 0.18 0.20 0.20 0.19 0.24 0.27 0.28 0.31 0.34 0.37 0.40 0.41 0.42 0.41 0.39 0.33 0.33 0.35 0.35 0.33 0.33 0.32 0.33 0.32 0.32 0.31 0.32 0.33 0.33 0.33
0.36 0.38 0.32 0.30 0.24 0.19 0.23 0.25 0.25 0.19 0.10 0.19 0.17 0.16 0.17 0.20 0.12 0.15 0.24 0.28 0.31 0.35 0.37 0.38 0.40 0.42 0.40 0.35 0.33 0.33 0.34 0.34 0.32 0.33 0.34 0.35 0.35 0.34 0.33 0.33 0.33 0.36 0.37 0.33
0.32 0.32 0.29 0.29 0.25 0.25 0.28 0.26 0.22 0.09 0.07 0.15 0.17 0.18 0.19 0.17 0.18 0.22 0.27 0.30 0.34 0.36 0.37 0.40 0.39 0.36 0.32 0.34 0.35 0.33 0.32 0.31 0.33 0.35 0.36 0.36 0.37 0.36 0.36 0.35 0.37 0.38 0.35 0.31
0.33 0.29 0.26 0.26 0.22 0.17 0.27 0.21 0.12 0.11 0.18 0.18 0.18 0.20 0.21 0.23 0.24 0.26 0.30 0.33 0.35 0.36 0.38 0.38 0.32 0.31 0.35 0.36 0.34 0.31 0.31 0.35 0.36 0.36 0.36 0.36 0.37 0.37 0.36 0.37 0.39 0.37 0.31 0.28
0.31 0.32 0.26 0.26 0.21 0.25 0.22 0.16 0.16 0.20 0.19 0.19 0.20 0.23 0.24 0.24 0.26 0.30 0.32 0.34 0.35 0.36 0.33 0.32 0.32 0.33 0.34 0.34 0.34 0.31 0.34 0.36 0.36 0.35 0.36 0.37 0.38 0.38 0.38 0.40 0.37 0.32 0.29 0.34
0.37 0.38 0.29 0.26 0.21 0.19 0.22 0.22 0.24 0.23 0.22 0.24 0.25 0.25 0.26 0.26 0.30 0.32 0.33 0.35 0.34 0.31 0.30 0.34 0.33 0.29 0.29 0.33 0.35 0.35 0.36 0.37 0.36 0.36 0.38 0.38 0.37 0.38 0.41 0.40 0.35 0.30 0.33 0.43
0.34 0.32 0.27 0.26 0.23 0.20 0.20 0.21 0.24 0.24 0.26 0.26 0.28 0.28 0.28 0.31 0.32 0.33 0.34 0.31 0.29 0.30 0.33 0.31 0.28 0.29 0.30 0.33 0.34 0.36 0.38 0.39 0.37 0.37 0.39 0.39 0.39 0.41 0.40 0.36 0.30 0.33 0.44 0.48
0.37 0.30 0.25 0.23 0.23 0.18 0.17 0.21 0.26 0.25 0.27 0.29 0.29 0.29 0.32 0.33 0.33 0.34 0.29 0.29 0.31 0.31 0.29 0.28 0.29 0.30 0.31 0.34 0.35 0.38 0.41 0.39 0.37 0.38 0.39 0.39 0.40 0.40 0.35 0.31 0.30 0.39 0.48 0.50

GFSCGP_prec_pwat_081.txt.gz
Precipitable_Water
0.37 0.31 0.20 0.29 0.46 0.51 0.50 0.45 0.42 0.50 0.60 0.62 0.63 0.65 0.73 0.87 0.88 0.80 0.79 0.86 0.88 0.91 1.00 1.11 1.19 1.16 1.16 1.27 1.24 1.16 1.04 0.88 0.80 0.72 0.61 0.52 0.50 0.50 0.49 0.47 0.47 0.46 0.46 0.46
0.37 0.27 0.34 0.40 0.51 0.52 0.51 0.45 0.45 0.52 0.59 0.54 0.54 0.56 0.70 0.75 0.77 0.82 0.85 0.84 0.84 0.84 0.91 1.01 1.03 1.10 1.16 1.12 1.09 1.04 0.89 0.77 0.72 0.63 0.55 0.52 0.51 0.50 0.48 0.48 0.49 0.49 0.50 0.51
0.33 0.36 0.44 0.47 0.49 0.51 0.49 0.46 0.48 0.43 0.55 0.56 0.52 0.45 0.52 0.64 0.72 0.76 0.77 0.78 0.75 0.70 0.75 0.88 0.88 0.90 0.90 0.92 0.93 0.85 0.76 0.72 0.64 0.56 0.53 0.51 0.52 0.50 0.45 0.46 0.48 0.51 0.53 0.53
0.34 0.48 0.41 0.43 0.45 0.54 0.40 0.53 0.50 0.49 0.46 0.37 0.54 0.31 0.41 0.52 0.57 0.61 0.64 0.65 0.63 0.66 0.71 0.74 0.75 0.79 0.81 0.83 0.81 0.75 0.69 0.62 0.54 0.52 0.49 0.48 0.46 0.43 0.45 0.48 0.50 0.51 0.53 0.52
0.35 0.38 0.44 0.38 0.42 0.60 0.49 0.67 0.56 0.50 0.48 0.48 0.46 0.42 0.40 0.44 0.41 0.47 0.52 0.57 0.57 0.59 0.59 0.57 0.56 0.73 0.79 0.78 0.72 0.67 0.61 0.54 0.51 0.51 0.51 0.50 0.49 0.49 0.51 0.51 0.50 0.51 0.53 0.54
0.43 0.54 0.51 0.44 0.48 0.57 0.59 0.52 0.52 0.52 0.48 0.36 0.44 0.47 0.42 0.44 0.43 0.45 0.50 0.47 0.47 0.48 0.50 0.48 0.52 0.69 0.70 0.67 0.63 0.60 0.54 0.51 0.51 0.52 0.52 0.51 0.49 0.48 0.48 0.49 0.48 0.48 0.50 0.52
0.46 0.48 0.53 0.53 0.42 0.52 0.54 0.50 0.38 0.36 0.37 0.34 0.49 0.48 0.46 0.43 0.42 0.44 0.41 0.42 0.44 0.45 0.44 0.44 0.48 0.56 0.58 0.58 0.57 0.55 0.53 0.50 0.51 0.50 0.49 0.48 0.48 0.47 0.46 0.46 0.47 0.48 0.49 0.49
0.39 0.35 0.50 0.58 0.50 0.45 0.49 0.52 0.40 0.29 0.29 0.34 0.45 0.34 0.39 0.46 0.51 0.46 0.44 0.42 0.43 0.44 0.41 0.42 0.46 0.50 0.53 0.55 0.55 0.53 0.52 0.50 0.50 0.49 0.48 0.48 0.49 0.49 0.50 0.51 0.50 0.47 0.47 0.47
0.44 0.44 0.60 0.60 0.58 0.59 0.50 0.49 0.58 0.39 0.37 0.33 0.36 0.36 0.39 0.42 0.41 0.44 0.42 0.42 0.42 0.41 0.40 0.44 0.47 0.50 0.53 0.53 0.52 0.51 0.49 0.47 0.47 0.47 0.47 0.48 0.49 0.47 0.44 0.44 0.45 0.44 0.44 0.44
0.47 0.43 0.49 0.63 0.60 0.56 0.53 0.62 0.47 0.54 0.30 0.26 0.27 0.29 0.29 0.35 0.37 0.41 0.41 0.41 0.41 0.38 0.41 0.44 0.47 0.50 0.50 0.49 0.47 0.46 0.45 0.44 0.44 0.44 0.42 0.39 0.39 0.40 0.41 0.41 0.41 0.41 0.41 0.40
0.43 0.41 0.39 0.50 0.48 0.49 0.48 0.45 0.47 0.41 0.35 0.26 0.23 0.26 0.37 0.38 0.40 0.39 0.41 0.41 0.37 0.38 0.40 0.43 0.46 0.47 0.44 0.41 0.40 0.40 0.41 0.39 0.37 0.38 0.38 0.39 0.40 0.42 0.43 0.42 0.41 0.40 0.38 0.36
0.49 0.40 0.33 0.38 0.45 0.49 0.51 0.43 0.44 0.37 0.33 0.33 0.32 0.30 0.39 0.37 0.39 0.40 0.38 0.37 0.38 0.40 0.43 0.45 0.45 0.41 0.36 0.35 0.35 0.34 0.35 0.37 0.38 0.39 0.40 0.41 0.42 0.43 0.42 0.41 0.38 0.36 0.34 0.34
0.47 0.41 0.31 0.31 0.35 0.40 0.46 0.49 0.43 0.44 0.40 0.32 0.27 0.27 0.36 0.34 0.34 0.36 0.35 0.36 0.37 0.39 0.41 0.40 0.34 0.30 0.30 0.31 0.33 0.35 0.37 0.37 0.38 0.38 0.39 0.40 0.42 0.43 0.39 0.35 0.34 0.34 0.33 0.32
0.44 0.39 0.36 0.31 0.31 0.31 0.28 0.33 0.37 0.34 0.27 0.24 0.22 0.22 0.25 0.28 0.31 0.34 0.35 0.38 0.39 0.39 0.37 0.30 0.28 0.28 0.30 0.32 0.34 0.35 0.37 0.39 0.40 0.40 0.41 0.42 0.42 0.38 0.34 0.34 0.34 0.33 0.32 0.32
0.33 0.29 0.28 0.28 0.28 0.27 0.25 0.22 0.25 0.24 0.24 0.20 0.21 0.22 0.24 0.26 0.29 0.34 0.37 0.38 0.37 0.33 0.27 0.27 0.28 0.29 0.31 0.33 0.35 0.38 0.39 0.40 0.42 0.43 0.44 0.42 0.37 0.34 0.34 0.34 0.33 0.32 0.32 0.31
0.31 0.25 0.26 0.23 0.25 0.25 0.24 0.24 0.23 0.22 0.22 0.22 0.21 0.21 0.27 0.30 0.34 0.34 0.35 0.33 0.28 0.25 0.27 0.29 0.30 0.32 0.33 0.35 0.38 0.40 0.41 0.43 0.46 0.43 0.40 0.35 0.34 0.34 0.32 0.32 0.32 0.32 0.31 0.31
0.27 0.25 0.24 0.19 0.24 0.24 0.20 0.23 0.23 0.22 0.24 0.24 0.21 0.25 0.30 0.29 0.30 0.29 0.26 0.25 0.24 0.26 0.29 0.30 0.31 0.34 0.36 0.39 0.41 0.41 0.43 0.45 0.43 0.38 0.34 0.35 0.34 0.31 0.31 0.32 0.32 0.31 0.31 0.32
0.28 0.24 0.25 0.21 0.26 0.17 0.25 0.32 0.32 0.30 0.29 0.29 0.29 0.29 0.27 0.25 0.24 0.23 0.24 0.24 0.26 0.28 0.29 0.32 0.35 0.38 0.40 0.41 0.42 0.43 0.43 0.41 0.36 0.35 0.35 0.34 0.33 0.31 0.32 0.32 0.32 0.32 0.33 0.32
0.33 0.27 0.24 0.22 0.23 0.26 0.28 0.31 0.28 0.26 0.25 0.29 0.26 0.26 0.22 0.20 0.21 0.20 0.23 0.24 0.25 0.28 0.32 0.36 0.39 0.39 0.40 0.41 0.42 0.41 0.37 0.35 0.34 0.33 0.32 0.33 0.32 0.32 0.33 0.32 0.33 0.34 0.33 0.34
0.34 0.35 0.30 0.29 0.24 0.21 0.26 0.28 0.29 0.23 0.15 0.20 0.23 0.20 0.16 0.18 0.11 0.15 0.22 0.24 0.27 0.31 0.35 0.37 0.38 0.39 0.40 0.40 0.39 0.35 0.33 0.33 0.30 0.31 0.32 0.34 0.34 0.34 0.33 0.34 0.34 0.34 0.35 0.37
0.31 0.32 0.30 0.30 0.26 0.28 0.33 0.29 0.26 0.14 0.11 0.17 0.19 0.18 0.18 0.16 0.19 0.22 0.25 0.26 0.30 0.34 0.35 0.38 0.39 0.38 0.37 0.37 0.35 0.32 0.30 0.30 0.33 0.34 0.34 0.34 0.35 0.35 0.36 0.36 0.35 0.36 0.38 0.37
0.32 0.31 0.29 0.29 0.25 0.20 0.29 0.25 0.15 0.16 0.19 0.18 0.18 0.20 0.20 0.23 0.25 0.24 0.26 0.29 0.32 0.35 0.37 0.39 0.36 0.33 0.34 0.35 0.31 0.29 0.29 0.34 0.36 0.35 0.34 0.34 0.36 0.38 0.38 0.36 0.37 0.40 0.37 0.30
0.33 0.36 0.30 0.29 0.24 0.31 0.30 0.23 0.21 0.20 0.18 0.20 0.19 0.22 0.23 0.23 0.23 0.26 0.28 0.33 0.35 0.36 0.36 0.34 0.32 0.32 0.31 0.31 0.31 0.29 0.32 0.35 0.36 0.36 0.35 0.36 0.38 0.39 0.39 0.38 0.39 0.36 0.30 0.29
0.41 0.43 0.34 0.31 0.30 0.28 0.27 0.25 0.24 0.25 0.23 0.24 0.24 0.24 0.24 0.23 0.26 0.28 0.33 0.35 0.35 0.34 0.30 0.33 0.32 0.27 0.27 0.31 0.32 0.33 0.35 0.37 0.37 0.36 0.36 0.37 0.38 0.40 0.40 0.41 0.38 0.31 0.30 0.32
0.40 0.41 0.35 0.31 0.31 0.29 0.26 0.24 0.25 0.26 0.28 0.26 0.27 0.26 0.27 0.28 0.29 0.33 0.34 0.35 0.32 0.30 0.33 0.31 0.27 0.27 0.28 0.31 0.33 0.35 0.37 0.38 0.35 0.36 0.37 0.38 0.39 0.39 0.39 0.37 0.32 0.30 0.34 0.41
0.45 0.41 0.35 0.27 0.30 0.28 0.27 0.26 0.26 0.24 0.26 0.28 0.28 0.29 0.31 0.32 0.33 0.35 0.34 0.31 0.30 0.32 0.30 0.28 0.27 0.27 0.30 0.33 0.34 0.36 0.39 0.38 0.37 0.36 0.37 0.38 0.39 0.39 0.37 0.30 0.28 0.33 0.39 0.47

GFSCGP_prec_pwat_084.txt.gz
Precipitable_Water
0.32 0.28 0.22 0.29 0.25 0.42 0.45 0.41 0.40 0.48 0.55 0.57 0.61 0.65 0.70 0.77 0.80 0.76 0.77 0.81 0.88 0.99 1.14 1.25 1.28 1.36 1.37 1.38 1.40 1.32 1.30 1.31 1.11 0.87 0.78 0.65 0.56 0.52 0.51 0.51 0.50 0.47 0.47 0.45
0.29 0.24 0.30 0.38 0.27 0.38 0.46 0.43 0.42 0.51 0.59 0.55 0.57 0.60 0.73 0.77 0.78 0.81 0.81 0.80 0.83 0.85 0.95 1.07 1.12 1.18 1.12 1.24 1.29 1.26 1.21 1.16 0.92 0.84 0.70 0.58 0.53 0.50 0.50 0.50 0.48 0.47 0.47 0.49
0.31 0.31 0.39 0.38 0.27 0.38 0.43 0.43 0.47 0.46 0.54 0.56 0.51 0.46 0.57 0.69 0.75 0.80 0.81 0.82 0.86 0.86 0.84 0.92 0.96 0.97 0.93 0.97 1.11 1.16 1.13 0.98 0.84 0.73 0.61 0.54 0.52 0.51 0.50 0.50 0.48 0.50 0.52 0.53
0.40 0.42 0.48 0.33 0.32 0.39 0.41 0.61 0.56 0.54 0.46 0.35 0.51 0.29 0.42 0.50 0.52 0.58 0.64 0.69 0.73 0.75 0.78 0.79 0.85 0.83 0.85 0.95 1.07 1.09 1.01 0.87 0.73 0.62 0.53 0.48 0.47 0.46 0.49 0.49 0.50 0.51 0.53 0.52
0.36 0.38 0.41 0.34 0.33 0.44 0.40 0.59 0.49 0.54 0.50 0.47 0.42 0.37 0.36 0.41 0.41 0.47 0.53 0.63 0.69 0.68 0.66 0.68 0.79 0.82 0.80 0.95 1.01 1.02 0.88 0.71 0.61 0.55 0.52 0.50 0.49 0.51 0.53 0.53 0.52 0.52 0.53 0.53
0.46 0.56 0.51 0.47 0.47 0.56 0.58 0.58 0.59 0.55 0.47 0.34 0.41 0.41 0.37 0.39 0.42 0.47 0.56 0.59 0.62 0.63 0.64 0.61 0.63 0.68 0.76 0.89 0.93 0.85 0.70 0.61 0.57 0.54 0.53 0.52 0.51 0.50 0.49 0.49 0.49 0.50 0.51 0.52
0.42 0.42 0.53 0.62 0.41 0.51 0.60 0.52 0.41 0.37 0.34 0.29 0.37 0.38 0.40 0.48 0.51 0.52 0.50 0.54 0.56 0.52 0.50 0.50 0.48 0.52 0.67 0.78 0.77 0.67 0.61 0.56 0.55 0.53 0.52 0.51 0.49 0.48 0.46 0.47 0.47 0.48 0.49 0.50
0.38 0.31 0.47 0.52 0.43 0.39 0.46 0.50 0.38 0.27 0.28 0.31 0.38 0.33 0.40 0.54 0.61 0.57 0.52 0.50 0.49 0.47 0.47 0.46 0.45 0.52 0.65 0.71 0.64 0.61 0.58 0.55 0.54 0.52 0.49 0.47 0.46 0.47 0.48 0.50 0.51 0.51 0.49 0.48
0.44 0.40 0.56 0.54 0.53 0.50 0.44 0.41 0.52 0.38 0.37 0.34 0.35 0.37 0.43 0.49 0.49 0.49 0.50 0.49 0.45 0.45 0.46 0.43 0.46 0.54 0.61 0.59 0.58 0.57 0.55 0.53 0.51 0.47 0.47 0.47 0.49 0.49 0.48 0.46 0.42 0.41 0.43 0.44
0.50 0.42 0.50 0.62 0.54 0.50 0.49 0.55 0.44 0.48 0.30 0.26 0.30 0.34 0.36 0.40 0.42 0.43 0.42 0.44 0.45 0.46 0.45 0.42 0.45 0.50 0.53 0.55 0.56 0.53 0.50 0.47 0.46 0.45 0.45 0.45 0.44 0.41 0.40 0.41 0.41 0.42 0.43 0.43
0.49 0.45 0.44 0.60 0.50 0.44 0.43 0.45 0.49 0.54 0.48 0.34 0.27 0.29 0.37 0.36 0.39 0.40 0.44 0.46 0.46 0.45 0.42 0.43 0.45 0.49 0.51 0.53 0.50 0.46 0.43 0.43 0.42 0.42 0.40 0.39 0.40 0.41 0.42 0.43 0.44 0.45 0.44 0.41
0.48 0.43 0.35 0.41 0.45 0.51 0.53 0.46 0.50 0.44 0.36 0.35 0.34 0.33 0.42 0.41 0.42 0.43 0.43 0.45 0.44 0.42 0.42 0.44 0.46 0.48 0.48 0.45 0.42 0.40 0.41 0.39 0.38 0.40 0.40 0.40 0.41 0.43 0.43 0.44 0.45 0.43 0.39 0.36
0.44 0.43 0.32 0.33 0.42 0.49 0.51 0.54 0.47 0.45 0.44 0.35 0.31 0.32 0.42 0.41 0.38 0.41 0.40 0.39 0.39 0.40 0.41 0.43 0.45 0.45 0.41 0.38 0.36 0.35 0.36 0.37 0.39 0.39 0.39 0.40 0.42 0.43 0.44 0.44 0.42 0.37 0.34 0.33
0.40 0.37 0.34 0.29 0.32 0.32 0.34 0.46 0.46 0.42 0.34 0.34 0.33 0.34 0.32 0.30 0.31 0.34 0.36 0.38 0.37 0.39 0.42 0.43 0.41 0.34 0.31 0.32 0.33 0.34 0.36 0.38 0.39 0.40 0.41 0.42 0.44 0.45 0.43 0.39 0.35 0.33 0.33 0.32
0.32 0.28 0.29 0.30 0.29 0.29 0.28 0.25 0.28 0.29 0.30 0.25 0.24 0.23 0.26 0.28 0.28 0.33 0.36 0.38 0.39 0.39 0.40 0.37 0.30 0.30 0.31 0.32 0.34 0.36 0.37 0.39 0.41 0.42 0.43 0.44 0.44 0.41 0.36 0.33 0.32 0.32 0.32 0.32
0.32 0.24 0.27 0.25 0.28 0.25 0.22 0.27 0.25 0.25 0.23 0.24 0.23 0.22 0.27 0.29 0.31 0.34 0.36 0.38 0.38 0.36 0.31 0.29 0.30 0.30 0.32 0.34 0.36 0.38 0.40 0.41 0.44 0.44 0.43 0.42 0.39 0.34 0.32 0.31 0.31 0.31 0.32 0.31
0.27 0.24 0.23 0.20 0.26 0.25 0.20 0.23 0.24 0.23 0.23 0.22 0.20 0.24 0.29 0.29 0.31 0.33 0.34 0.34 0.30 0.29 0.29 0.29 0.30 0.32 0.34 0.36 0.39 0.40 0.42 0.45 0.44 0.42 0.40 0.37 0.34 0.33 0.32 0.31 0.32 0.32 0.32 0.33
0.29 0.28 0.24 0.20 0.23 0.16 0.26 0.33 0.32 0.30 0.31 0.30 0.29 0.30 0.32 0.29 0.29 0.30 0.29 0.26 0.27 0.29 0.29 0.30 0.32 0.34 0.37 0.40 0.41 0.43 0.43 0.42 0.40 0.37 0.33 0.33 0.32 0.31 0.31 0.32 0.33 0.33 0.33 0.33
0.34 0.29 0.23 0.21 0.22 0.25 0.28 0.31 0.28 0.26 0.25 0.30 0.29 0.29 0.30 0.25 0.24 0.23 0.26 0.26 0.25 0.26 0.28 0.31 0.35 0.38 0.40 0.41 0.42 0.40 0.39 0.38 0.33 0.31 0.30 0.31 0.31 0.31 0.31 0.32 0.33 0.34 0.34 0.33
0.34 0.34 0.28 0.27 0.23 0.21 0.28 0.31 0.31 0.24 0.16 0.18 0.25 0.26 0.21 0.21 0.12 0.14 0.22 0.23 0.24 0.27 0.30 0.33 0.37 0.39 0.39 0.40 0.40 0.38 0.33 0.31 0.29 0.30 0.31 0.32 0.32 0.32 0.32 0.34 0.35 0.36 0.35 0.35
0.31 0.31 0.29 0.30 0.27 0.28 0.34 0.31 0.25 0.14 0.13 0.20 0.24 0.23 0.19 0.15 0.17 0.21 0.24 0.24 0.27 0.30 0.32 0.37 0.38 0.38 0.38 0.38 0.36 0.31 0.29 0.27 0.31 0.33 0.33 0.33 0.34 0.34 0.35 0.36 0.37 0.36 0.37 0.38
0.29 0.29 0.30 0.32 0.27 0.21 0.30 0.29 0.20 0.19 0.22 0.22 0.20 0.20 0.19 0.21 0.22 0.23 0.25 0.26 0.29 0.32 0.36 0.39 0.37 0.35 0.36 0.34 0.30 0.27 0.27 0.31 0.33 0.33 0.34 0.34 0.35 0.35 0.36 0.37 0.38 0.38 0.38 0.32
0.29 0.35 0.33 0.33 0.29 0.34 0.34 0.28 0.26 0.25 0.23 0.23 0.20 0.20 0.21 0.22 0.23 0.24 0.26 0.29 0.32 0.36 0.37 0.37 0.33 0.32 0.31 0.29 0.29 0.27 0.29 0.32 0.33 0.34 0.33 0.34 0.35 0.37 0.39 0.38 0.38 0.36 0.32 0.28
0.37 0.42 0.38 0.37 0.34 0.34 0.35 0.36 0.34 0.30 0.27 0.26 0.25 0.24 0.25 0.23 0.25 0.26 0.29 0.32 0.35 0.37 0.34 0.33 0.32 0.27 0.25 0.29 0.30 0.31 0.33 0.35 0.35 0.33 0.33 0.35 0.35 0.37 0.39 0.39 0.38 0.31 0.28 0.29
0.37 0.39 0.39 0.39 0.40 0.37 0.35 0.34 0.32 0.30 0.29 0.28 0.28 0.27 0.26 0.27 0.27 0.30 0.32 0.35 0.36 0.33 0.32 0.33 0.28 0.26 0.26 0.29 0.31 0.34 0.35 0.36 0.34 0.34 0.35 0.35 0.36 0.37 0.37 0.39 0.34 0.30 0.31 0.36
0.37 0.36 0.37 0.37 0.42 0.38 0.34 0.31 0.32 0.29 0.27 0.29 0.27 0.27 0.30 0.30 0.30 0.33 0.35 0.36 0.32 0.31 0.32 0.28 0.28 0.26 0.28 0.31 0.33 0.35 0.38 0.38 0.34 0.33 0.34 0.35 0.36 0.37 0.38 0.32 0.29 0.31 0.34 0.40

GFSCGP_prec_pwat_087.txt.gz
Precipitable_Water
0.37 0.26 0.19 0.22 0.24 0.24 0.31 0.36 0.33 0.35 0.47 0.49 0.53 0.57 0.62 0.74 0.77 0.73 0.75 0.82 0.93 1.00 1.12 1.20 1.30 1.38 1.43 1.49 1.48 1.48 1.48 1.41 1.36 1.30 1.10 0.88 0.70 0.61 0.54 0.52 0.52 0.51 0.49 0.47
0.40 0.30 0.29 0.29 0.33 0.30 0.26 0.36 0.40 0.48 0.50 0.46 0.44 0.51 0.64 0.70 0.74 0.79 0.79 0.79 0.83 0.91 1.02 1.14 1.23 1.32 1.36 1.37 1.32 1.38 1.43 1.33 1.30 1.26 1.02 0.76 0.61 0.56 0.51 0.51 0.50 0.51 0.49 0.48
0.41 0.36 0.41 0.37 0.31 0.30 0.22 0.35 0.41 0.46 0.53 0.56 0.51 0.45 0.51 0.65 0.74 0.83 0.87 0.84 0.83 0.86 0.88 0.96 1.12 1.21 1.25 1.20 1.22 1.29 1.21 1.21 1.27 1.17 0.84 0.68 0.58 0.52 0.49 0.49 0.50 0.51 0.52 0.53
0.48 0.48 0.40 0.41 0.31 0.35 0.19 0.45 0.53 0.51 0.41 0.33 0.53 0.31 0.42 0.51 0.58 0.69 0.77 0.81 0.84 0.83 0.86 0.95 0.97 0.99 1.01 1.09 1.16 1.12 1.14 1.18 1.12 0.86 0.72 0.58 0.49 0.46 0.48 0.51 0.53 0.54 0.55 0.54
0.43 0.46 0.39 0.42 0.33 0.41 0.25 0.48 0.56 0.59 0.49 0.47 0.43 0.38 0.36 0.45 0.45 0.51 0.58 0.63 0.70 0.73 0.78 0.82 0.83 0.82 0.92 1.00 1.03 1.05 1.07 1.05 0.88 0.76 0.65 0.54 0.49 0.51 0.53 0.54 0.54 0.54 0.54 0.54
0.54 0.60 0.50 0.51 0.47 0.48 0.46 0.47 0.54 0.56 0.53 0.37 0.44 0.40 0.32 0.34 0.36 0.39 0.47 0.54 0.60 0.67 0.73 0.74 0.79 0.84 0.88 0.94 1.05 1.02 1.01 0.89 0.77 0.68 0.60 0.54 0.52 0.51 0.51 0.52 0.52 0.53 0.54 0.55
0.46 0.45 0.58 0.57 0.41 0.49 0.45 0.44 0.38 0.36 0.32 0.29 0.40 0.36 0.36 0.47 0.46 0.45 0.47 0.52 0.60 0.64 0.66 0.68 0.70 0.67 0.72 0.80 0.95 0.98 0.89 0.77 0.68 0.62 0.58 0.55 0.53 0.52 0.50 0.49 0.50 0.50 0.51 0.52
0.43 0.34 0.50 0.56 0.47 0.40 0.48 0.50 0.43 0.29 0.30 0.32 0.39 0.29 0.34 0.43 0.52 0.59 0.61 0.60 0.58 0.60 0.60 0.56 0.55 0.56 0.61 0.72 0.83 0.86 0.76 0.67 0.63 0.59 0.56 0.54 0.53 0.50 0.50 0.50 0.51 0.51 0.52 0.52
0.42 0.44 0.56 0.59 0.53 0.50 0.46 0.44 0.58 0.41 0.39 0.34 0.35 0.35 0.37 0.48 0.54 0.59 0.59 0.57 0.56 0.53 0.52 0.50 0.52 0.53 0.59 0.68 0.75 0.74 0.66 0.62 0.59 0.56 0.54 0.52 0.52 0.52 0.50 0.50 0.48 0.43 0.43 0.43
0.52 0.39 0.51 0.59 0.53 0.49 0.47 0.55 0.41 0.44 0.30 0.26 0.29 0.34 0.35 0.40 0.45 0.49 0.49 0.47 0.51 0.51 0.50 0.50 0.51 0.55 0.62 0.68 0.70 0.64 0.61 0.58 0.56 0.53 0.50 0.48 0.48 0.46 0.43 0.42 0.41 0.42 0.44 0.44
0.52 0.50 0.44 0.60 0.47 0.38 0.42 0.41 0.46 0.48 0.45 0.33 0.29 0.28 0.38 0.37 0.42 0.42 0.44 0.46 0.48 0.49 0.49 0.50 0.50 0.55 0.60 0.60 0.58 0.58 0.57 0.52 0.47 0.46 0.45 0.43 0.41 0.41 0.42 0.42 0.44 0.46 0.46 0.45
0.47 0.45 0.37 0.48 0.53 0.46 0.44 0.40 0.49 0.41 0.38 0.41 0.35 0.36 0.44 0.41 0.41 0.44 0.44 0.46 0.50 0.52 0.50 0.48 0.48 0.50 0.52 0.53 0.54 0.52 0.47 0.42 0.42 0.42 0.40 0.40 0.41 0.42 0.43 0.45 0.46 0.45 0.43 0.42
0.39 0.40 0.32 0.35 0.46 0.48 0.44 0.49 0.46 0.44 0.44 0.39 0.33 0.36 0.43 0.44 0.43 0.45 0.44 0.45 0.46 0.45 0.44 0.44 0.46 0.47 0.48 0.49 0.48 0.42 0.39 0.37 0.38 0.38 0.38 0.39 0.41 0.43 0.44 0.44 0.44 0.43 0.39 0.34
0.37 0.33 0.29 0.28 0.32 0.33 0.36 0.50 0.51 0.46 0.37 0.38 0.37 0.37 0.39 0.38 0.37 0.38 0.40 0.41 0.39 0.39 0.41 0.42 0.44 0.46 0.46 0.41 0.35 0.34 0.35 0.37 0.38 0.38 0.39 0.41 0.43 0.44 0.44 0.43 0.40 0.35 0.32 0.32
0.31 0.25 0.29 0.29 0.29 0.30 0.28 0.28 0.34 0.33 0.37 0.30 0.29 0.27 0.29 0.30 0.31 0.34 0.38 0.38 0.37 0.38 0.41 0.43 0.43 0.41 0.34 0.33 0.34 0.35 0.36 0.38 0.40 0.41 0.43 0.43 0.44 0.43 0.40 0.36 0.32 0.31 0.30 0.31
0.31 0.24 0.26 0.24 0.29 0.25 0.22 0.25 0.27 0.26 0.26 0.25 0.25 0.23 0.28 0.29 0.32 0.33 0.36 0.38 0.38 0.39 0.41 0.40 0.35 0.31 0.32 0.33 0.34 0.36 0.38 0.41 0.44 0.44 0.42 0.42 0.42 0.38 0.33 0.31 0.29 0.30 0.31 0.32
0.27 0.26 0.23 0.19 0.25 0.26 0.23 0.26 0.26 0.25 0.25 0.24 0.20 0.24 0.28 0.29 0.31 0.34 0.37 0.39 0.38 0.37 0.35 0.32 0.31 0.31 0.32 0.34 0.37 0.38 0.42 0.44 0.43 0.41 0.41 0.39 0.34 0.31 0.29 0.30 0.30 0.31 0.32 0.33
0.26 0.28 0.28 0.21 0.24 0.17 0.28 0.34 0.33 0.31 0.30 0.31 0.30 0.30 0.32 0.33 0.32 0.33 0.35 0.34 0.34 0.33 0.32 0.32 0.32 0.32 0.35 0.38 0.40 0.43 0.43 0.41 0.39 0.38 0.34 0.31 0.29 0.29 0.30 0.31 0.31 0.32 0.33 0.34
0.33 0.29 0.24 0.21 0.23 0.27 0.28 0.31 0.29 0.26 0.24 0.21 0.27 0.30 0.31 0.29 0.25 0.24 0.29 0.30 0.28 0.28 0.28 0.29 0.31 0.34 0.37 0.40 0.42 0.41 0.39 0.38 0.34 0.30 0.29 0.30 0.30 0.30 0.30 0.30 0.31 0.33 0.34 0.35
0.36 0.34 0.27 0.27 0.24 0.22 0.29 0.32 0.31 0.24 0.16 0.22 0.25 0.25 0.23 0.21 0.14 0.17 0.24 0.23 0.24 0.26 0.28 0.30 0.34 0.37 0.39 0.41 0.41 0.38 0.35 0.30 0.28 0.29 0.30 0.32 0.32 0.31 0.31 0.32 0.33 0.35 0.36 0.36
0.26 0.30 0.28 0.29 0.28 0.30 0.32 0.31 0.29 0.17 0.16 0.21 0.25 0.24 0.21 0.18 0.17 0.20 0.23 0.24 0.26 0.28 0.30 0.34 0.36 0.37 0.40 0.40 0.37 0.31 0.29 0.27 0.29 0.32 0.32 0.33 0.34 0.33 0.33 0.34 0.36 0.37 0.37 0.38
0.25 0.24 0.26 0.30 0.28 0.22 0.35 0.32 0.23 0.23 0.24 0.23 0.23 0.23 0.22 0.21 0.22 0.24 0.25 0.26 0.28 0.29 0.32 0.36 0.38 0.38 0.37 0.35 0.31 0.27 0.26 0.30 0.32 0.32 0.33 0.34 0.34 0.34 0.35 0.35 0.37 0.37 0.37 0.33
0.25 0.30 0.28 0.32 0.31 0.39 0.39 0.36 0.35 0.33 0.29 0.27 0.26 0.26 0.24 0.24 0.25 0.26 0.26 0.28 0.30 0.32 0.36 0.39 0.36 0.34 0.32 0.30 0.29 0.26 0.28 0.32 0.33 0.33 0.33 0.34 0.35 0.35 0.36 0.35 0.35 0.36 0.34 0.29
0.33 0.39 0.33 0.35 0.36 0.40 0.41 0.41 0.39 0.37 0.34 0.34 0.32 0.29 0.28 0.26 0.27 0.27 0.28 0.30 0.32 0.36 0.37 0.36 0.33 0.29 0.27 0.29 0.29 0.30 0.33 0.34 0.34 0.33 0.34 0.34 0.33 0.34 0.36 0.37 0.37 0.33 0.29 0.28
0.33 0.36 0.34 0.34 0.40 0.42 0.41 0.41 0.39 0.37 0.37 0.34 0.33 0.32 0.29 0.29 0.28 0.29 0.30 0.32 0.35 0.37 0.35 0.34 0.29 0.27 0.26 0.29 0.31 0.34 0.35 0.35 0.34 0.33 0.33 0.32 0.33 0.34 0.35 0.36 0.32 0.30 0.31 0.34
0.33 0.30 0.31 0.31 0.40 0.41 0.42 0.44 0.45 0.37 0.31 0.31 0.31 0.30 0.31 0.31 0.30 0.31 0.32 0.36 0.36 0.34 0.33 0.30 0.28 0.28 0.28 0.30 0.33 0.35 0.37 0.36 0.34 0.33 0.33 0.32 0.33 0.33 0.32 0.29 0.27 0.30 0.35 0.39

GFSCGP_prec_pwat_090.txt.gz
Precipitable_Water
0.44 0.35 0.30 0.31 0.30 0.27 0.22 0.17 0.19 0.29 0.39 0.45 0.40 0.46 0.56 0.66 0.70 0.75 0.86 0.88 0.88 0.94 1.07 1.18 1.30 1.40 1.34 1.45 1.54 1.64 1.68 1.59 1.55 1.41 1.29 1.20 1.04 0.88 0.73 0.62 0.54 0.53 0.54 0.52
0.43 0.38 0.45 0.43 0.34 0.29 0.27 0.21 0.23 0.36 0.45 0.48 0.42 0.47 0.57 0.63 0.69 0.72 0.76 0.82 0.88 0.97 1.05 1.12 1.20 1.25 1.34 1.37 1.54 1.60 1.55 1.48 1.47 1.34 1.30 1.15 1.00 0.78 0.66 0.58 0.54 0.54 0.54 0.53
0.47 0.46 0.53 0.44 0.37 0.30 0.28 0.26 0.23 0.32 0.52 0.48 0.39 0.38 0.49 0.63 0.70 0.75 0.79 0.85 0.84 0.87 0.93 1.01 1.09 1.20 1.33 1.40 1.49 1.47 1.44 1.40 1.35 1.20 1.20 1.08 0.90 0.70 0.58 0.53 0.51 0.53 0.55 0.56
0.51 0.51 0.47 0.44 0.36 0.39 0.28 0.32 0.27 0.37 0.50 0.37 0.47 0.22 0.37 0.49 0.57 0.66 0.74 0.80 0.82 0.84 0.91 0.98 1.12 1.20 1.32 1.42 1.46 1.37 1.35 1.28 1.14 1.14 1.10 0.90 0.65 0.55 0.52 0.51 0.52 0.54 0.57 0.57
0.49 0.50 0.49 0.42 0.40 0.42 0.34 0.37 0.34 0.40 0.47 0.53 0.49 0.31 0.44 0.49 0.45 0.52 0.64 0.77 0.86 0.90 0.93 0.93 0.98 1.08 1.20 1.30 1.27 1.28 1.27 1.15 1.04 1.07 0.93 0.78 0.64 0.59 0.55 0.54 0.56 0.57 0.59 0.59
0.55 0.61 0.58 0.52 0.52 0.46 0.47 0.41 0.55 0.55 0.53 0.36 0.41 0.39 0.34 0.43 0.44 0.50 0.58 0.65 0.72 0.78 0.81 0.84 0.93 1.03 0.99 1.01 1.09 1.19 1.25 1.00 0.99 0.90 0.87 0.74 0.64 0.56 0.54 0.55 0.56 0.58 0.59 0.58
0.49 0.51 0.59 0.61 0.46 0.48 0.40 0.39 0.36 0.36 0.40 0.36 0.50 0.41 0.41 0.48 0.44 0.42 0.44 0.50 0.56 0.61 0.69 0.75 0.82 0.85 0.86 0.96 1.05 1.13 1.06 0.89 0.88 0.86 0.76 0.69 0.64 0.59 0.56 0.57 0.56 0.55 0.53 0.54
0.41 0.37 0.52 0.59 0.51 0.41 0.40 0.44 0.38 0.32 0.30 0.35 0.44 0.34 0.37 0.44 0.48 0.51 0.48 0.49 0.55 0.58 0.68 0.69 0.74 0.81 0.89 0.94 0.99 0.97 0.90 0.82 0.87 0.76 0.70 0.66 0.64 0.60 0.58 0.56 0.53 0.53 0.53 0.54
0.43 0.41 0.55 0.60 0.58 0.52 0.44 0.43 0.60 0.47 0.40 0.36 0.36 0.37 0.39 0.46 0.44 0.49 0.56 0.57 0.61 0.60 0.63 0.66 0.70 0.71 0.73 0.79 0.84 0.86 0.87 0.88 0.76 0.69 0.66 0.63 0.62 0.58 0.54 0.53 0.54 0.53 0.50 0.45
0.49 0.43 0.52 0.55 0.57 0.50 0.51 0.57 0.43 0.49 0.32 0.29 0.31 0.32 0.36 0.38 0.42 0.51 0.56 0.57 0.58 0.61 0.60 0.59 0.60 0.61 0.64 0.70 0.78 0.82 0.82 0.76 0.68 0.65 0.63 0.60 0.55 0.52 0.51 0.49 0.44 0.43 0.44 0.45
0.47 0.47 0.47 0.58 0.44 0.38 0.44 0.45 0.48 0.49 0.46 0.34 0.28 0.30 0.37 0.36 0.43 0.47 0.50 0.53 0.52 0.55 0.55 0.56 0.58 0.61 0.63 0.68 0.72 0.73 0.71 0.64 0.61 0.60 0.56 0.50 0.47 0.45 0.43 0.42 0.43 0.45 0.47 0.47
0.41 0.39 0.38 0.46 0.55 0.51 0.42 0.41 0.51 0.43 0.38 0.40 0.38 0.36 0.42 0.39 0.40 0.45 0.45 0.49 0.53 0.54 0.54 0.57 0.60 0.62 0.64 0.66 0.66 0.64 0.60 0.59 0.58 0.51 0.46 0.44 0.42 0.42 0.42 0.43 0.45 0.46 0.46 0.46
0.33 0.33 0.28 0.33 0.45 0.45 0.40 0.48 0.47 0.45 0.47 0.41 0.35 0.38 0.47 0.45 0.45 0.49 0.46 0.48 0.50 0.51 0.52 0.53 0.53 0.53 0.54 0.54 0.54 0.54 0.55 0.51 0.45 0.41 0.39 0.39 0.40 0.41 0.43 0.44 0.45 0.45 0.44 0.40
0.35 0.28 0.27 0.25 0.29 0.32 0.32 0.47 0.49 0.45 0.38 0.40 0.41 0.42 0.41 0.42 0.42 0.45 0.46 0.47 0.47 0.46 0.45 0.45 0.45 0.46 0.48 0.50 0.51 0.49 0.41 0.38 0.38 0.38 0.39 0.40 0.42 0.44 0.45 0.45 0.43 0.40 0.34 0.31
0.31 0.23 0.26 0.26 0.29 0.28 0.28 0.30 0.45 0.38 0.40 0.37 0.36 0.31 0.35 0.36 0.34 0.40 0.43 0.42 0.41 0.40 0.40 0.42 0.44 0.46 0.47 0.45 0.40 0.36 0.36 0.37 0.38 0.39 0.41 0.43 0.45 0.46 0.44 0.40 0.35 0.32 0.29 0.29
0.32 0.25 0.25 0.22 0.28 0.28 0.24 0.26 0.28 0.27 0.27 0.27 0.27 0.24 0.30 0.31 0.33 0.35 0.38 0.38 0.38 0.39 0.41 0.43 0.44 0.42 0.39 0.34 0.35 0.36 0.37 0.38 0.41 0.42 0.44 0.46 0.45 0.41 0.37 0.33 0.30 0.30 0.31 0.32
0.28 0.26 0.26 0.19 0.24 0.25 0.26 0.28 0.30 0.29 0.29 0.27 0.22 0.26 0.29 0.30 0.32 0.36 0.39 0.41 0.41 0.41 0.41 0.40 0.38 0.35 0.34 0.35 0.36 0.36 0.38 0.41 0.43 0.44 0.44 0.41 0.38 0.33 0.31 0.30 0.30 0.30 0.31 0.33
0.28 0.27 0.28 0.22 0.26 0.19 0.28 0.35 0.34 0.30 0.30 0.29 0.31 0.32 0.33 0.34 0.35 0.35 0.38 0.40 0.40 0.40 0.39 0.37 0.34 0.34 0.35 0.36 0.37 0.39 0.41 0.43 0.43 0.40 0.38 0.35 0.32 0.29 0.29 0.29 0.30 0.31 0.32 0.32
0.34 0.29 0.25 0.22 0.25 0.28 0.29 0.31 0.27 0.25 0.22 0.25 0.24 0.30 0.32 0.31 0.28 0.26 0.30 0.34 0.35 0.36 0.34 0.33 0.33 0.33 0.35 0.36 0.39 0.41 0.41 0.41 0.38 0.35 0.32 0.31 0.30 0.29 0.29 0.30 0.31 0.32 0.32 0.34
0.33 0.34 0.28 0.26 0.25 0.23 0.28 0.30 0.31 0.23 0.16 0.23 0.26 0.26 0.23 0.22 0.17 0.19 0.26 0.27 0.28 0.28 0.28 0.29 0.32 0.34 0.36 0.38 0.41 0.41 0.39 0.36 0.32 0.31 0.30 0.31 0.31 0.31 0.31 0.32 0.32 0.33 0.34 0.34
0.24 0.27 0.27 0.28 0.27 0.30 0.31 0.34 0.32 0.21 0.19 0.24 0.26 0.24 0.22 0.20 0.20 0.23 0.26 0.26 0.27 0.29 0.30 0.33 0.34 0.35 0.38 0.41 0.41 0.37 0.33 0.30 0.30 0.31 0.32 0.32 0.33 0.33 0.33 0.33 0.34 0.34 0.34 0.34
0.23 0.23 0.24 0.27 0.27 0.22 0.36 0.35 0.27 0.29 0.30 0.29 0.27 0.26 0.25 0.26 0.27 0.26 0.27 0.28 0.29 0.30 0.32 0.34 0.35 0.38 0.40 0.39 0.34 0.30 0.29 0.31 0.32 0.32 0.33 0.33 0.34 0.35 0.34 0.34 0.35 0.34 0.34 0.34
0.24 0.27 0.26 0.29 0.29 0.39 0.42 0.40 0.40 0.37 0.35 0.34 0.31 0.30 0.30 0.29 0.29 0.28 0.28 0.29 0.31 0.31 0.33 0.37 0.39 0.37 0.35 0.33 0.31 0.28 0.30 0.32 0.33 0.33 0.33 0.34 0.35 0.34 0.34 0.33 0.33 0.34 0.34 0.29
0.32 0.37 0.32 0.33 0.36 0.39 0.41 0.43 0.41 0.41 0.38 0.38 0.38 0.35 0.34 0.31 0.30 0.29 0.30 0.31 0.31 0.33 0.36 0.39 0.36 0.31 0.30 0.30 0.31 0.31 0.33 0.35 0.34 0.33 0.33 0.34 0.34 0.34 0.34 0.34 0.35 0.30 0.28 0.28
0.33 0.34 0.32 0.31 0.37 0.39 0.42 0.42 0.44 0.45 0.44 0.39 0.38 0.35 0.32 0.32 0.30 0.31 0.31 0.31 0.33 0.37 0.38 0.36 0.31 0.30 0.29 0.30 0.31 0.34 0.36 0.36 0.35 0.34 0.34 0.34 0.34 0.33 0.32 0.30 0.28 0.28 0.31 0.33
0.30 0.26 0.26 0.27 0.36 0.35 0.41 0.45 0.46 0.45 0.44 0.41 0.37 0.33 0.33 0.33 0.32 0.32 0.31 0.34 0.37 0.37 0.36 0.32 0.31 0.30 0.29 0.31 0.33 0.36 0.37 0.37 0.36 0.34 0.33 0.33 0.31 0.29 0.28 0.26 0.27 0.32 0.34 0.38

GFSCGP_prec_pwat_093.txt.gz
Precipitable_Water
0.47 0.39 0.34 0.38 0.40 0.36 0.31 0.26 0.21 0.20 0.21 0.25 0.35 0.42 0.51 0.47 0.76 0.79 0.83 0.83 0.84 0.92 1.14 1.30 1.41 1.49 1.49 1.49 1.47 1.55 1.58 1.67 1.65 1.59 1.42 1.31 1.21 1.11 1.00 0.86 0.71 0.63 0.60 0.57
0.47 0.42 0.51 0.53 0.51 0.43 0.33 0.27 0.24 0.23 0.23 0.28 0.33 0.37 0.48 0.53 0.64 0.69 0.73 0.79 0.84 0.92 1.05 1.19 1.29 1.38 1.40 1.25 1.30 1.52 1.58 1.58 1.67 1.52 1.39 1.27 1.18 1.04 0.96 0.83 0.68 0.60 0.58 0.55
0.45 0.50 0.53 0.49 0.45 0.40 0.36 0.29 0.27 0.26 0.25 0.29 0.41 0.33 0.43 0.50 0.71 0.70 0.79 0.84 0.86 0.93 1.00 1.07 1.16 1.24 1.26 1.22 1.37 1.46 1.52 1.59 1.60 1.48 1.29 1.16 1.06 0.96 0.86 0.70 0.60 0.56 0.56 0.56
0.52 0.58 0.53 0.48 0.43 0.42 0.32 0.40 0.34 0.30 0.25 0.26 0.43 0.34 0.38 0.49 0.64 0.68 0.74 0.74 0.76 0.87 0.99 1.10 1.14 1.17 1.22 1.28 1.44 1.49 1.57 1.58 1.46 1.38 1.16 1.03 0.97 0.80 0.74 0.66 0.60 0.56 0.55 0.56
0.46 0.49 0.46 0.44 0.43 0.45 0.35 0.44 0.35 0.32 0.27 0.35 0.47 0.35 0.30 0.41 0.52 0.61 0.64 0.68 0.72 0.77 0.89 0.97 1.09 1.20 1.28 1.38 1.47 1.57 1.60 1.50 1.36 1.26 1.09 1.01 0.90 0.79 0.72 0.65 0.59 0.56 0.58 0.59
0.52 0.61 0.56 0.53 0.52 0.49 0.47 0.41 0.38 0.37 0.32 0.32 0.47 0.52 0.29 0.35 0.39 0.49 0.62 0.69 0.76 0.84 0.89 0.95 1.01 1.16 1.27 1.42 1.49 1.52 1.48 1.33 1.26 1.25 1.08 0.98 0.81 0.77 0.69 0.65 0.61 0.61 0.62 0.63
0.49 0.51 0.57 0.59 0.49 0.48 0.45 0.42 0.33 0.32 0.31 0.33 0.53 0.50 0.56 0.59 0.60 0.56 0.58 0.69 0.74 0.81 0.83 0.88 0.95 1.03 1.09 1.18 1.28 1.32 1.27 1.22 1.19 1.10 0.96 0.88 0.80 0.76 0.69 0.67 0.63 0.64 0.62 0.61
0.38 0.39 0.50 0.56 0.52 0.45 0.48 0.45 0.39 0.30 0.31 0.34 0.55 0.38 0.51 0.65 0.62 0.56 0.58 0.60 0.63 0.64 0.67 0.74 0.84 0.90 0.96 1.05 1.12 1.14 1.18 1.05 1.03 0.96 0.86 0.84 0.82 0.73 0.69 0.68 0.65 0.63 0.60 0.59
0.37 0.40 0.57 0.55 0.57 0.52 0.47 0.41 0.58 0.45 0.49 0.41 0.41 0.46 0.49 0.50 0.47 0.53 0.49 0.49 0.51 0.54 0.63 0.66 0.79 0.88 0.97 1.05 1.08 1.09 0.98 0.92 0.91 0.86 0.82 0.81 0.73 0.72 0.69 0.67 0.63 0.58 0.57 0.57
0.45 0.37 0.50 0.53 0.57 0.54 0.50 0.56 0.43 0.49 0.36 0.32 0.38 0.37 0.38 0.40 0.42 0.49 0.51 0.53 0.56 0.62 0.63 0.67 0.75 0.84 0.93 0.93 0.94 0.89 0.88 0.90 0.87 0.83 0.77 0.74 0.73 0.71 0.65 0.59 0.54 0.52 0.49 0.45
0.41 0.44 0.42 0.55 0.43 0.40 0.46 0.48 0.52 0.54 0.46 0.37 0.29 0.27 0.36 0.38 0.45 0.47 0.53 0.59 0.59 0.60 0.65 0.67 0.69 0.72 0.73 0.78 0.83 0.87 0.85 0.82 0.79 0.78 0.74 0.68 0.65 0.59 0.54 0.50 0.46 0.45 0.45 0.45
0.37 0.33 0.33 0.39 0.51 0.53 0.46 0.43 0.49 0.42 0.40 0.47 0.45 0.31 0.42 0.41 0.45 0.45 0.49 0.56 0.57 0.57 0.60 0.64 0.63 0.64 0.67 0.72 0.74 0.75 0.73 0.71 0.74 0.68 0.64 0.61 0.55 0.48 0.43 0.43 0.43 0.44 0.44 0.47
0.33 0.28 0.25 0.32 0.39 0.39 0.31 0.45 0.47 0.49 0.48 0.43 0.40 0.41 0.49 0.47 0.49 0.51 0.48 0.50 0.53 0.55 0.58 0.61 0.63 0.64 0.66 0.67 0.66 0.65 0.68 0.66 0.62 0.60 0.55 0.47 0.42 0.41 0.42 0.42 0.44 0.45 0.46 0.45
0.37 0.29 0.27 0.23 0.25 0.29 0.31 0.36 0.49 0.48 0.44 0.42 0.44 0.42 0.42 0.45 0.45 0.48 0.49 0.51 0.50 0.52 0.54 0.56 0.57 0.57 0.56 0.57 0.57 0.56 0.56 0.56 0.52 0.44 0.40 0.39 0.41 0.43 0.44 0.45 0.45 0.45 0.42 0.36
0.33 0.24 0.26 0.26 0.27 0.26 0.27 0.28 0.38 0.36 0.35 0.32 0.38 0.32 0.35 0.37 0.39 0.44 0.47 0.47 0.47 0.46 0.45 0.46 0.46 0.46 0.48 0.49 0.50 0.50 0.46 0.41 0.39 0.38 0.40 0.41 0.43 0.44 0.45 0.45 0.44 0.39 0.33 0.28
0.33 0.24 0.27 0.24 0.25 0.27 0.25 0.30 0.30 0.28 0.27 0.27 0.28 0.28 0.32 0.34 0.37 0.40 0.42 0.42 0.41 0.41 0.43 0.44 0.46 0.46 0.46 0.46 0.43 0.40 0.37 0.38 0.39 0.40 0.41 0.44 0.44 0.46 0.46 0.42 0.35 0.31 0.29 0.30
0.28 0.27 0.25 0.24 0.25 0.26 0.28 0.28 0.30 0.31 0.31 0.29 0.25 0.31 0.32 0.32 0.35 0.39 0.42 0.43 0.42 0.43 0.44 0.43 0.43 0.43 0.41 0.39 0.38 0.36 0.37 0.39 0.39 0.40 0.43 0.44 0.45 0.42 0.38 0.34 0.30 0.30 0.31 0.32
0.27 0.28 0.28 0.24 0.28 0.22 0.28 0.33 0.32 0.29 0.25 0.24 0.25 0.34 0.35 0.35 0.36 0.37 0.42 0.43 0.43 0.43 0.42 0.41 0.41 0.40 0.38 0.38 0.37 0.38 0.39 0.39 0.40 0.41 0.43 0.43 0.39 0.35 0.32 0.31 0.30 0.31 0.32 0.31
0.34 0.29 0.26 0.22 0.26 0.27 0.29 0.28 0.25 0.24 0.21 0.27 0.26 0.29 0.31 0.30 0.29 0.27 0.33 0.38 0.39 0.40 0.41 0.39 0.38 0.37 0.36 0.36 0.37 0.38 0.38 0.41 0.41 0.40 0.39 0.36 0.34 0.31 0.30 0.30 0.31 0.32 0.31 0.31
0.32 0.33 0.28 0.27 0.25 0.24 0.28 0.30 0.30 0.25 0.20 0.27 0.27 0.26 0.23 0.23 0.23 0.22 0.27 0.31 0.33 0.34 0.33 0.32 0.33 0.34 0.35 0.36 0.38 0.40 0.41 0.40 0.37 0.36 0.33 0.32 0.32 0.31 0.31 0.32 0.32 0.33 0.33 0.33
0.25 0.26 0.25 0.28 0.28 0.30 0.32 0.32 0.33 0.23 0.24 0.27 0.27 0.26 0.24 0.23 0.24 0.26 0.29 0.29 0.31 0.31 0.30 0.33 0.33 0.34 0.36 0.39 0.42 0.39 0.37 0.33 0.34 0.31 0.31 0.31 0.33 0.33 0.33 0.33 0.34 0.34 0.33 0.33
0.25 0.24 0.25 0.27 0.26 0.25 0.36 0.33 0.30 0.33 0.35 0.33 0.31 0.28 0.27 0.27 0.29 0.30 0.32 0.31 0.30 0.30 0.32 0.33 0.34 0.36 0.40 0.41 0.36 0.32 0.31 0.31 0.30 0.31 0.32 0.33 0.34 0.35 0.34 0.33 0.34 0.34 0.33 0.33
0.24 0.27 0.29 0.28 0.31 0.36 0.39 0.40 0.43 0.41 0.38 0.38 0.36 0.37 0.36 0.32 0.31 0.32 0.33 0.32 0.31 0.32 0.32 0.35 0.37 0.39 0.38 0.34 0.31 0.27 0.30 0.31 0.31 0.32 0.34 0.35 0.34 0.34 0.34 0.33 0.33 0.32 0.33 0.28
0.35 0.36 0.30 0.31 0.36 0.35 0.38 0.40 0.42 0.43 0.42 0.43 0.41 0.40 0.38 0.34 0.34 0.33 0.33 0.32 0.31 0.33 0.33 0.38 0.38 0.34 0.31 0.31 0.29 0.29 0.31 0.33 0.33 0.33 0.34 0.34 0.34 0.34 0.34 0.34 0.34 0.29 0.26 0.26
0.37 0.40 0.32 0.30 0.36 0.39 0.39 0.41 0.43 0.45 0.46 0.46 0.43 0.41 0.39 0.37 0.34 0.34 0.33 0.32 0.32 0.34 0.38 0.38 0.34 0.30 0.29 0.29 0.30 0.32 0.34 0.35 0.34 0.34 0.34 0.34 0.34 0.32 0.31 0.30 0.28 0.27 0.29 0.32
0.33 0.28 0.26 0.25 0.38 0.37 0.37 0.41 0.45 0.44 0.45 0.47 0.43 0.41 0.43 0.41 0.35 0.35 0.33 0.33 0.34 0.37 0.39 0.34 0.31 0.30 0.29 0.29 0.31 0.34 0.36 0.36 0.34 0.33 0.32 0.32 0.32 0.30 0.28 0.27 0.26 0.30 0.34 0.37

GFSCGP_prec_pwat_099.txt.gz
Precipitable_Water
0.53 0.45 0.39 0.45 0.48 0.47 0.44 0.38 0.37 0.41 0.43 0.37 0.29 0.25 0.26 0.26 0.29 0.32 0.41 0.54 0.76 0.85 0.93 1.14 1.27 1.37 1.43 1.53 1.58 1.50 1.49 1.44 1.47 1.53 1.46 1.48 1.47 1.51 1.37 1.19 1.01 0.90 0.79 0.70
0.44 0.39 0.50 0.54 0.54 0.47 0.43 0.37 0.34 0.36 0.39 0.40 0.30 0.27 0.27 0.27 0.26 0.31 0.37 0.48 0.60 0.84 1.06 1.18 1.24 1.35 1.40 1.48 1.51 1.48 1.47 1.43 1.47 1.56 1.53 1.55 1.57 1.44 1.26 1.11 1.00 0.91 0.78 0.67
0.39 0.46 0.57 0.53 0.45 0.41 0.42 0.38 0.38 0.36 0.39 0.37 0.33 0.26 0.26 0.26 0.29 0.30 0.45 0.55 0.75 0.82 0.94 1.26 1.25 1.29 1.39 1.39 1.44 1.47 1.49 1.46 1.51 1.56 1.55 1.55 1.53 1.39 1.20 1.07 0.94 0.86 0.75 0.67
0.41 0.51 0.50 0.45 0.43 0.48 0.36 0.44 0.42 0.39 0.37 0.27 0.36 0.19 0.24 0.26 0.27 0.31 0.38 0.57 0.82 0.89 1.02 1.08 1.39 1.28 1.31 1.35 1.47 1.48 1.45 1.40 1.57 1.49 1.50 1.45 1.36 1.21 1.16 1.08 0.93 0.84 0.77 0.72
0.33 0.40 0.45 0.43 0.45 0.52 0.47 0.57 0.51 0.45 0.39 0.34 0.32 0.26 0.22 0.28 0.28 0.36 0.40 0.56 0.71 0.88 0.90 0.79 0.97 1.20 1.30 1.36 1.41 1.46 1.50 1.55 1.52 1.50 1.52 1.41 1.29 1.26 1.20 1.12 0.96 0.79 0.75 0.73
0.36 0.54 0.50 0.46 0.50 0.54 0.58 0.53 0.51 0.50 0.41 0.29 0.28 0.27 0.23 0.29 0.39 0.44 0.48 0.54 0.71 0.80 0.80 0.89 1.07 1.20 1.29 1.45 1.66 1.70 1.60 1.55 1.56 1.51 1.50 1.34 1.24 1.17 1.12 1.05 0.87 0.73 0.75 0.70
0.29 0.42 0.53 0.52 0.43 0.50 0.54 0.52 0.36 0.32 0.32 0.28 0.39 0.29 0.27 0.39 0.49 0.58 0.57 0.71 0.76 0.86 0.87 0.96 1.01 1.19 1.32 1.40 1.46 1.48 1.50 1.47 1.53 1.52 1.42 1.35 1.22 1.09 1.03 0.96 0.79 0.71 0.75 0.72
0.23 0.26 0.42 0.49 0.49 0.45 0.50 0.54 0.40 0.28 0.29 0.35 0.49 0.33 0.33 0.53 0.65 0.70 0.67 0.81 0.83 0.88 0.93 0.99 1.10 1.16 1.22 1.29 1.40 1.44 1.45 1.48 1.50 1.39 1.33 1.27 1.13 1.03 0.99 0.85 0.77 0.78 0.78 0.79
0.24 0.25 0.42 0.45 0.49 0.51 0.48 0.49 0.61 0.44 0.46 0.36 0.39 0.51 0.66 0.69 0.75 0.80 0.80 0.97 0.86 0.91 0.97 0.98 0.98 1.07 1.16 1.27 1.36 1.42 1.45 1.39 1.34 1.22 1.17 1.08 1.00 0.91 0.85 0.84 0.84 0.81 0.84 0.79
0.29 0.22 0.32 0.39 0.45 0.49 0.47 0.60 0.47 0.49 0.29 0.26 0.31 0.35 0.40 0.54 0.64 0.74 0.80 0.83 0.86 0.87 0.89 0.93 0.99 1.03 1.09 1.18 1.23 1.27 1.25 1.16 1.12 1.11 1.07 0.97 0.93 0.89 0.85 0.86 0.78 0.82 0.77 0.76
0.30 0.26 0.21 0.34 0.36 0.31 0.32 0.38 0.53 0.53 0.46 0.33 0.28 0.31 0.48 0.48 0.53 0.59 0.66 0.79 0.85 0.84 0.86 0.89 0.90 0.93 0.97 0.99 1.01 1.03 1.06 1.06 1.03 1.02 0.98 0.94 0.88 0.85 0.83 0.75 0.76 0.71 0.71 0.66
0.29 0.26 0.20 0.26 0.38 0.37 0.32 0.32 0.48 0.41 0.42 0.45 0.39 0.34 0.50 0.48 0.48 0.54 0.60 0.64 0.66 0.68 0.74 0.81 0.84 0.86 0.88 0.91 0.94 0.94 0.94 0.91 0.88 0.89 0.84 0.82 0.80 0.79 0.69 0.71 0.69 0.66 0.56 0.50
0.28 0.23 0.19 0.19 0.27 0.27 0.27 0.30 0.39 0.50 0.49 0.37 0.32 0.36 0.52 0.52 0.45 0.48 0.54 0.64 0.68 0.66 0.66 0.68 0.72 0.74 0.77 0.81 0.79 0.81 0.79 0.80 0.80 0.82 0.78 0.70 0.67 0.66 0.65 0.58 0.52 0.45 0.43 0.43
0.32 0.25 0.22 0.19 0.21 0.28 0.23 0.28 0.38 0.34 0.26 0.34 0.31 0.36 0.38 0.48 0.47 0.48 0.50 0.53 0.56 0.59 0.60 0.62 0.65 0.68 0.70 0.71 0.75 0.74 0.73 0.72 0.70 0.67 0.63 0.61 0.59 0.52 0.46 0.42 0.42 0.42 0.43 0.45
0.25 0.17 0.23 0.26 0.27 0.28 0.28 0.28 0.29 0.26 0.27 0.23 0.27 0.28 0.30 0.39 0.46 0.51 0.54 0.55 0.55 0.55 0.56 0.58 0.59 0.60 0.63 0.63 0.64 0.63 0.62 0.62 0.61 0.57 0.51 0.45 0.44 0.42 0.41 0.41 0.44 0.47 0.47 0.45
0.20 0.18 0.23 0.23 0.27 0.28 0.28 0.30 0.30 0.30 0.28 0.28 0.29 0.30 0.38 0.42 0.44 0.43 0.43 0.45 0.45 0.47 0.48 0.49 0.50 0.51 0.52 0.54 0.55 0.54 0.51 0.48 0.46 0.42 0.40 0.41 0.42 0.43 0.45 0.47 0.46 0.44 0.39 0.34
0.16 0.23 0.22 0.17 0.25 0.27 0.26 0.26 0.28 0.26 0.25 0.24 0.26 0.33 0.37 0.39 0.41 0.43 0.44 0.45 0.45 0.46 0.46 0.46 0.46 0.46 0.46 0.46 0.45 0.42 0.42 0.42 0.41 0.40 0.40 0.42 0.44 0.44 0.44 0.42 0.36 0.31 0.28 0.28
0.20 0.24 0.25 0.20 0.24 0.18 0.28 0.30 0.29 0.23 0.25 0.28 0.27 0.31 0.34 0.35 0.41 0.43 0.44 0.41 0.41 0.42 0.41 0.41 0.41 0.42 0.43 0.43 0.42 0.41 0.39 0.38 0.38 0.39 0.41 0.43 0.42 0.39 0.33 0.29 0.27 0.28 0.30 0.30
0.31 0.27 0.24 0.20 0.20 0.25 0.28 0.28 0.25 0.26 0.23 0.30 0.29 0.29 0.27 0.28 0.31 0.34 0.39 0.40 0.38 0.39 0.41 0.42 0.42 0.41 0.41 0.40 0.39 0.37 0.37 0.38 0.39 0.40 0.39 0.37 0.32 0.28 0.28 0.28 0.29 0.30 0.31 0.31
0.35 0.33 0.27 0.24 0.20 0.18 0.27 0.31 0.31 0.28 0.22 0.33 0.32 0.26 0.25 0.30 0.25 0.28 0.37 0.40 0.41 0.42 0.42 0.40 0.39 0.38 0.38 0.37 0.38 0.37 0.39 0.40 0.37 0.34 0.32 0.31 0.29 0.29 0.29 0.30 0.31 0.32 0.32 0.31
0.33 0.31 0.24 0.22 0.21 0.27 0.33 0.33 0.32 0.20 0.25 0.34 0.36 0.32 0.27 0.22 0.25 0.28 0.34 0.37 0.41 0.41 0.39 0.39 0.38 0.35 0.36 0.37 0.38 0.39 0.37 0.32 0.32 0.31 0.28 0.28 0.30 0.31 0.32 0.33 0.33 0.33 0.33 0.33
0.33 0.31 0.28 0.29 0.24 0.19 0.37 0.35 0.27 0.31 0.35 0.37 0.38 0.38 0.35 0.34 0.34 0.34 0.35 0.36 0.37 0.37 0.37 0.37 0.35 0.34 0.35 0.38 0.38 0.33 0.29 0.30 0.30 0.28 0.29 0.31 0.32 0.33 0.34 0.33 0.33 0.33 0.32 0.30
0.33 0.36 0.32 0.34 0.33 0.41 0.41 0.36 0.38 0.37 0.35 0.37 0.39 0.43 0.41 0.38 0.38 0.38 0.37 0.38 0.38 0.38 0.37 0.38 0.35 0.34 0.37 0.37 0.34 0.28 0.28 0.30 0.28 0.29 0.30 0.31 0.33 0.33 0.34 0.32 0.30 0.29 0.28 0.26
0.40 0.48 0.40 0.37 0.38 0.39 0.41 0.41 0.37 0.38 0.38 0.40 0.42 0.44 0.44 0.39 0.40 0.40 0.41 0.41 0.40 0.38 0.37 0.37 0.34 0.36 0.37 0.34 0.30 0.29 0.30 0.30 0.29 0.28 0.29 0.31 0.31 0.32 0.32 0.30 0.29 0.28 0.27 0.27
0.39 0.41 0.41 0.40 0.42 0.43 0.41 0.40 0.42 0.41 0.42 0.42 0.43 0.45 0.45 0.42 0.41 0.42 0.42 0.43 0.42 0.38 0.37 0.35 0.37 0.39 0.34 0.32 0.30 0.30 0.30 0.29 0.28 0.28 0.29 0.29 0.30 0.29 0.28 0.29 0.29 0.28 0.30 0.31
0.44 0.41 0.35 0.33 0.42 0.40 0.40 0.44 0.46 0.42 0.40 0.41 0.42 0.42 0.46 0.45 0.43 0.45 0.44 0.45 0.43 0.38 0.36 0.36 0.40 0.36 0.31 0.30 0.29 0.30 0.30 0.29 0.27 0.27 0.27 0.29 0.29 0.28 0.27 0.26 0.26 0.31 0.34 0.37

GFSCGP_prec_pwat_102.txt.gz
Precipitable_Water
0.47 0.42 0.37 0.45 0.48 0.47 0.42 0.37 0.33 0.37 0.43 0.37 0.33 0.33 0.34 0.30 0.27 0.26 0.27 0.32 0.41 0.61 0.91 1.21 1.26 1.35 1.42 1.52 1.59 1.62 1.57 1.56 1.54 1.45 1.37 1.36 1.33 1.40 1.42 1.29 1.22 0.97 0.90 0.82
0.38 0.34 0.43 0.51 0.50 0.44 0.40 0.36 0.34 0.37 0.43 0.39 0.35 0.28 0.35 0.35 0.29 0.27 0.27 0.29 0.34 0.50 0.77 1.07 1.25 1.32 1.37 1.45 1.52 1.59 1.56 1.48 1.51 1.47 1.41 1.45 1.45 1.47 1.40 1.30 1.22 0.99 0.85 0.80
0.32 0.38 0.46 0.46 0.44 0.42 0.41 0.39 0.39 0.38 0.44 0.43 0.34 0.25 0.28 0.31 0.33 0.29 0.29 0.33 0.38 0.48 0.74 0.97 1.14 1.25 1.27 1.36 1.47 1.54 1.54 1.49 1.54 1.50 1.47 1.53 1.52 1.50 1.46 1.33 1.18 1.00 0.86 0.78
0.30 0.45 0.43 0.43 0.42 0.46 0.36 0.50 0.50 0.49 0.46 0.35 0.45 0.25 0.28 0.31 0.30 0.30 0.34 0.39 0.49 0.58 0.77 0.86 1.08 1.36 1.35 1.45 1.57 1.57 1.48 1.55 1.64 1.55 1.52 1.48 1.42 1.38 1.40 1.28 1.19 1.05 0.91 0.79
0.25 0.38 0.43 0.37 0.43 0.53 0.47 0.56 0.54 0.55 0.50 0.46 0.44 0.34 0.28 0.34 0.28 0.35 0.39 0.43 0.49 0.74 0.85 0.88 1.04 1.27 1.31 1.36 1.70 1.57 1.55 1.54 1.62 1.64 1.53 1.50 1.42 1.46 1.40 1.28 1.20 1.14 0.96 0.81
0.28 0.49 0.47 0.44 0.47 0.54 0.60 0.56 0.54 0.48 0.45 0.33 0.41 0.32 0.26 0.37 0.43 0.43 0.45 0.48 0.50 0.76 0.99 1.11 1.20 1.30 1.25 1.26 1.37 1.52 1.50 1.64 1.65 1.60 1.55 1.50 1.48 1.39 1.27 1.20 1.18 1.12 0.96 0.82
0.25 0.33 0.45 0.48 0.38 0.49 0.54 0.48 0.33 0.29 0.32 0.32 0.47 0.36 0.30 0.45 0.52 0.51 0.46 0.49 0.57 0.71 0.95 1.03 1.02 1.10 1.14 1.28 1.41 1.47 1.52 1.41 1.40 1.54 1.58 1.55 1.50 1.38 1.27 1.23 1.18 1.02 0.86 0.77
0.19 0.17 0.33 0.39 0.37 0.40 0.47 0.48 0.36 0.25 0.28 0.33 0.49 0.38 0.35 0.52 0.60 0.63 0.58 0.60 0.68 0.80 0.90 0.97 0.97 1.08 1.12 1.28 1.42 1.51 1.54 1.40 1.49 1.65 1.57 1.41 1.42 1.36 1.27 1.20 1.05 0.91 0.81 0.75
0.19 0.20 0.31 0.38 0.39 0.42 0.42 0.41 0.58 0.41 0.41 0.34 0.38 0.46 0.52 0.62 0.64 0.64 0.60 0.65 0.73 0.81 0.99 1.03 1.11 1.15 1.26 1.38 1.43 1.45 1.42 1.50 1.54 1.49 1.46 1.40 1.31 1.18 1.09 0.99 0.98 0.88 0.80 0.82
0.25 0.18 0.26 0.32 0.40 0.43 0.41 0.54 0.41 0.43 0.27 0.25 0.31 0.35 0.39 0.54 0.64 0.72 0.76 0.72 0.82 0.93 0.99 1.05 1.17 1.23 1.28 1.29 1.35 1.42 1.46 1.45 1.45 1.35 1.24 1.13 1.08 1.05 0.99 0.96 0.84 0.81 0.83 0.76
0.25 0.23 0.21 0.27 0.29 0.30 0.30 0.33 0.49 0.48 0.43 0.30 0.26 0.30 0.47 0.47 0.59 0.63 0.80 0.89 0.88 0.96 0.96 0.95 1.00 1.07 1.11 1.16 1.21 1.22 1.21 1.17 1.10 1.06 1.01 0.99 0.94 0.91 0.87 0.81 0.81 0.79 0.76 0.78
0.26 0.23 0.18 0.21 0.32 0.34 0.31 0.33 0.44 0.36 0.34 0.40 0.38 0.33 0.49 0.47 0.51 0.63 0.65 0.75 0.89 0.93 0.92 0.91 0.95 0.98 1.02 1.02 1.03 0.99 0.99 1.01 0.98 0.96 0.92 0.85 0.82 0.81 0.76 0.78 0.75 0.71 0.72 0.66
0.24 0.21 0.14 0.17 0.21 0.29 0.27 0.36 0.38 0.40 0.44 0.31 0.31 0.33 0.49 0.50 0.48 0.52 0.65 0.65 0.66 0.72 0.78 0.82 0.83 0.82 0.84 0.87 0.87 0.89 0.89 0.85 0.84 0.83 0.82 0.81 0.78 0.71 0.68 0.65 0.64 0.58 0.52 0.49
0.27 0.20 0.17 0.16 0.20 0.27 0.25 0.28 0.31 0.29 0.22 0.25 0.26 0.29 0.36 0.47 0.48 0.50 0.53 0.58 0.65 0.65 0.64 0.66 0.69 0.74 0.76 0.75 0.76 0.74 0.73 0.76 0.75 0.73 0.71 0.66 0.64 0.60 0.55 0.50 0.47 0.44 0.43 0.44
0.26 0.14 0.19 0.23 0.28 0.29 0.28 0.28 0.29 0.26 0.26 0.20 0.25 0.27 0.31 0.40 0.44 0.48 0.55 0.57 0.57 0.58 0.60 0.63 0.66 0.67 0.67 0.68 0.68 0.69 0.67 0.65 0.65 0.62 0.57 0.51 0.48 0.46 0.44 0.43 0.43 0.45 0.46 0.45
0.22 0.12 0.19 0.19 0.27 0.28 0.28 0.28 0.27 0.27 0.24 0.28 0.29 0.30 0.40 0.42 0.45 0.45 0.46 0.46 0.46 0.47 0.49 0.51 0.53 0.54 0.55 0.56 0.56 0.56 0.55 0.51 0.49 0.46 0.44 0.43 0.42 0.42 0.43 0.45 0.45 0.44 0.41 0.38
0.23 0.20 0.20 0.17 0.23 0.27 0.24 0.24 0.25 0.22 0.23 0.23 0.23 0.30 0.39 0.38 0.40 0.41 0.43 0.45 0.44 0.46 0.46 0.47 0.47 0.47 0.46 0.45 0.45 0.44 0.44 0.44 0.43 0.40 0.40 0.40 0.42 0.42 0.43 0.42 0.39 0.34 0.30 0.29
0.26 0.26 0.25 0.20 0.22 0.17 0.25 0.29 0.26 0.24 0.25 0.26 0.26 0.29 0.31 0.34 0.37 0.38 0.41 0.39 0.39 0.38 0.38 0.39 0.40 0.41 0.42 0.42 0.42 0.41 0.41 0.39 0.38 0.38 0.39 0.41 0.41 0.38 0.35 0.30 0.28 0.28 0.29 0.29
0.36 0.28 0.25 0.21 0.21 0.24 0.26 0.28 0.25 0.25 0.22 0.30 0.28 0.27 0.27 0.29 0.32 0.32 0.37 0.38 0.38 0.38 0.40 0.41 0.42 0.42 0.41 0.39 0.38 0.38 0.37 0.36 0.38 0.39 0.38 0.36 0.32 0.29 0.28 0.27 0.27 0.29 0.30 0.30
0.38 0.35 0.29 0.26 0.20 0.16 0.26 0.29 0.31 0.28 0.20 0.32 0.33 0.28 0.28 0.31 0.22 0.27 0.35 0.39 0.41 0.41 0.42 0.41 0.40 0.39 0.39 0.38 0.38 0.36 0.37 0.39 0.36 0.33 0.31 0.30 0.29 0.26 0.26 0.28 0.29 0.31 0.31 0.31
0.36 0.36 0.30 0.28 0.23 0.24 0.34 0.32 0.31 0.19 0.22 0.31 0.34 0.34 0.32 0.25 0.27 0.32 0.37 0.39 0.43 0.43 0.42 0.42 0.40 0.39 0.39 0.38 0.37 0.37 0.37 0.32 0.31 0.30 0.28 0.27 0.28 0.29 0.30 0.31 0.32 0.32 0.32 0.32
0.36 0.35 0.33 0.33 0.28 0.21 0.37 0.35 0.27 0.31 0.34 0.33 0.35 0.36 0.35 0.35 0.36 0.36 0.38 0.40 0.42 0.42 0.42 0.42 0.38 0.37 0.37 0.36 0.37 0.35 0.30 0.30 0.29 0.27 0.26 0.27 0.29 0.31 0.32 0.32 0.32 0.31 0.29 0.27
0.36 0.40 0.36 0.38 0.36 0.44 0.45 0.40 0.40 0.37 0.35 0.36 0.36 0.40 0.40 0.38 0.36 0.38 0.38 0.40 0.42 0.43 0.43 0.41 0.37 0.36 0.36 0.38 0.37 0.29 0.29 0.28 0.27 0.26 0.26 0.28 0.30 0.31 0.32 0.30 0.29 0.27 0.27 0.27
0.43 0.48 0.42 0.42 0.43 0.44 0.45 0.46 0.44 0.41 0.37 0.37 0.40 0.42 0.42 0.40 0.40 0.39 0.40 0.41 0.42 0.43 0.43 0.40 0.37 0.34 0.36 0.38 0.33 0.30 0.29 0.29 0.27 0.26 0.27 0.29 0.30 0.30 0.30 0.29 0.29 0.29 0.28 0.27
0.38 0.39 0.38 0.39 0.44 0.46 0.48 0.46 0.44 0.43 0.43 0.41 0.41 0.43 0.43 0.43 0.42 0.40 0.40 0.42 0.43 0.44 0.44 0.39 0.35 0.36 0.39 0.36 0.31 0.30 0.29 0.28 0.26 0.26 0.27 0.28 0.28 0.27 0.28 0.29 0.29 0.30 0.33 0.35
0.43 0.41 0.38 0.38 0.45 0.44 0.44 0.48 0.49 0.46 0.45 0.45 0.42 0.41 0.44 0.45 0.43 0.42 0.42 0.44 0.45 0.45 0.44 0.39 0.37 0.39 0.38 0.33 0.30 0.29 0.29 0.27 0.26 0.25 0.26 0.26 0.26 0.25 0.25 0.26 0.28 0.34 0.37 0.39

GFSCGP_prec_pwat_105.txt.gz
Precipitable_Water
0.43 0.37 0.30 0.37 0.43 0.42 0.40 0.35 0.32 0.34 0.40 0.36 0.33 0.33 0.35 0.40 0.35 0.30 0.29 0.30 0.31 0.41 0.70 1.05 1.22 1.34 1.34 1.46 1.56 1.57 1.60 1.67 1.60 1.51 1.46 1.43 1.36 1.32 1.27 1.25 1.20 1.22 0.98 0.88
0.32 0.31 0.41 0.45 0.48 0.46 0.43 0.39 0.36 0.43 0.48 0.46 0.40 0.32 0.34 0.39 0.37 0.36 0.31 0.29 0.30 0.33 0.41 0.72 1.07 1.25 1.32 1.37 1.51 1.61 1.66 1.63 1.53 1.60 1.59 1.51 1.37 1.34 1.33 1.29 1.26 1.18 1.03 0.94
0.27 0.36 0.46 0.42 0.44 0.43 0.46 0.45 0.45 0.44 0.51 0.54 0.49 0.40 0.38 0.35 0.34 0.35 0.37 0.33 0.38 0.35 0.34 0.52 0.84 1.08 1.29 1.36 1.44 1.52 1.60 1.61 1.54 1.57 1.61 1.52 1.40 1.41 1.41 1.33 1.19 1.21 1.06 0.92
0.26 0.41 0.38 0.39 0.36 0.46 0.39 0.51 0.51 0.49 0.46 0.37 0.55 0.31 0.43 0.45 0.38 0.36 0.41 0.45 0.39 0.41 0.43 0.57 0.79 1.00 1.21 1.33 1.51 1.58 1.64 1.62 1.60 1.58 1.52 1.44 1.33 1.35 1.49 1.46 1.37 1.37 1.08 0.95
0.22 0.33 0.35 0.33 0.35 0.47 0.40 0.52 0.50 0.48 0.42 0.43 0.42 0.35 0.33 0.41 0.39 0.41 0.43 0.51 0.46 0.44 0.54 0.58 0.74 0.96 1.19 1.33 1.42 1.50 1.53 1.57 1.64 1.62 1.55 1.54 1.46 1.54 1.56 1.55 1.39 1.24 1.13 1.00
0.24 0.35 0.40 0.36 0.38 0.43 0.50 0.49 0.47 0.44 0.43 0.33 0.42 0.36 0.27 0.39 0.46 0.48 0.50 0.55 0.49 0.48 0.69 0.79 0.95 1.07 1.16 1.25 1.30 1.32 1.40 1.51 1.66 1.65 1.61 1.62 1.54 1.51 1.43 1.37 1.34 1.30 1.18 1.04
0.20 0.23 0.31 0.40 0.32 0.39 0.45 0.43 0.29 0.25 0.28 0.30 0.47 0.38 0.39 0.52 0.59 0.56 0.54 0.55 0.57 0.59 0.74 0.85 0.93 1.04 1.14 1.18 1.25 1.29 1.35 1.29 1.50 1.62 1.64 1.51 1.50 1.56 1.40 1.32 1.28 1.23 1.27 1.13
0.15 0.14 0.24 0.35 0.32 0.30 0.40 0.44 0.34 0.24 0.26 0.30 0.45 0.37 0.44 0.60 0.71 0.71 0.67 0.68 0.68 0.67 0.82 0.90 1.08 1.23 1.27 1.31 1.29 1.23 1.31 1.44 1.59 1.60 1.58 1.58 1.42 1.31 1.41 1.42 1.32 1.23 1.20 1.05
0.15 0.15 0.26 0.32 0.35 0.38 0.33 0.36 0.54 0.37 0.41 0.32 0.34 0.42 0.58 0.60 0.64 0.71 0.69 0.67 0.68 0.73 0.88 0.92 1.11 1.28 1.32 1.39 1.33 1.38 1.45 1.55 1.60 1.56 1.56 1.35 1.35 1.40 1.41 1.34 1.24 1.17 1.00 0.89
0.22 0.14 0.22 0.27 0.36 0.37 0.37 0.48 0.39 0.42 0.27 0.25 0.29 0.31 0.38 0.51 0.55 0.61 0.68 0.68 0.71 0.78 0.85 0.99 1.07 1.14 1.24 1.29 1.36 1.50 1.52 1.49 1.54 1.53 1.47 1.45 1.40 1.33 1.20 1.12 1.03 0.95 0.87 0.81
0.26 0.19 0.17 0.23 0.25 0.24 0.30 0.32 0.40 0.45 0.40 0.31 0.27 0.28 0.43 0.52 0.62 0.66 0.75 0.69 0.73 0.73 0.82 0.96 1.08 1.19 1.22 1.30 1.37 1.32 1.37 1.38 1.31 1.23 1.20 1.13 1.07 1.03 0.99 0.93 0.86 0.82 0.78 0.74
0.28 0.19 0.15 0.18 0.27 0.33 0.31 0.32 0.32 0.29 0.30 0.37 0.39 0.32 0.45 0.52 0.62 0.65 0.76 0.78 0.82 0.91 0.93 1.02 1.06 1.12 1.14 1.19 1.21 1.19 1.18 1.12 1.07 1.03 0.97 0.90 0.86 0.84 0.80 0.79 0.76 0.76 0.73 0.71
0.25 0.19 0.11 0.15 0.21 0.27 0.26 0.29 0.30 0.34 0.34 0.26 0.23 0.27 0.47 0.50 0.51 0.63 0.67 0.73 0.79 0.85 0.85 0.88 0.92 0.95 0.97 0.97 0.98 0.98 0.96 0.91 0.86 0.82 0.78 0.76 0.77 0.76 0.70 0.67 0.66 0.62 0.60 0.58
0.33 0.23 0.15 0.12 0.17 0.24 0.24 0.28 0.29 0.29 0.21 0.20 0.23 0.25 0.33 0.43 0.49 0.53 0.56 0.64 0.63 0.66 0.71 0.75 0.79 0.82 0.81 0.82 0.82 0.80 0.78 0.77 0.75 0.74 0.72 0.68 0.64 0.60 0.56 0.53 0.50 0.49 0.47 0.46
0.29 0.20 0.17 0.17 0.21 0.25 0.27 0.28 0.27 0.24 0.25 0.21 0.24 0.27 0.32 0.36 0.39 0.46 0.55 0.58 0.58 0.61 0.65 0.69 0.70 0.70 0.71 0.69 0.68 0.68 0.66 0.65 0.64 0.60 0.56 0.53 0.51 0.49 0.46 0.45 0.45 0.45 0.45 0.44
0.26 0.20 0.19 0.15 0.25 0.26 0.24 0.28 0.26 0.22 0.20 0.23 0.27 0.28 0.39 0.42 0.43 0.43 0.44 0.45 0.46 0.48 0.52 0.55 0.56 0.56 0.56 0.58 0.58 0.57 0.55 0.51 0.49 0.46 0.44 0.44 0.44 0.42 0.42 0.44 0.43 0.42 0.41 0.39
0.27 0.25 0.24 0.16 0.25 0.25 0.21 0.24 0.23 0.21 0.21 0.19 0.19 0.24 0.35 0.36 0.38 0.38 0.41 0.42 0.42 0.44 0.45 0.45 0.45 0.44 0.44 0.44 0.44 0.43 0.43 0.44 0.42 0.41 0.40 0.40 0.40 0.41 0.41 0.39 0.37 0.32 0.29 0.29
0.31 0.30 0.29 0.21 0.23 0.16 0.26 0.29 0.25 0.23 0.24 0.26 0.27 0.28 0.30 0.32 0.34 0.36 0.37 0.35 0.35 0.36 0.37 0.39 0.40 0.41 0.42 0.42 0.42 0.41 0.40 0.39 0.38 0.38 0.38 0.40 0.39 0.35 0.32 0.29 0.27 0.28 0.28 0.28
0.40 0.34 0.28 0.23 0.22 0.24 0.27 0.27 0.25 0.24 0.23 0.27 0.28 0.28 0.26 0.30 0.32 0.32 0.36 0.38 0.38 0.39 0.40 0.41 0.42 0.41 0.40 0.39 0.40 0.39 0.37 0.37 0.38 0.38 0.36 0.33 0.30 0.28 0.27 0.26 0.26 0.28 0.29 0.29
0.42 0.38 0.32 0.30 0.24 0.17 0.28 0.30 0.29 0.28 0.20 0.28 0.30 0.28 0.28 0.31 0.20 0.26 0.36 0.40 0.40 0.42 0.43 0.42 0.42 0.41 0.40 0.39 0.39 0.37 0.36 0.38 0.36 0.33 0.29 0.28 0.28 0.26 0.25 0.27 0.28 0.30 0.31 0.30
0.36 0.37 0.32 0.31 0.29 0.28 0.33 0.37 0.32 0.20 0.21 0.29 0.32 0.31 0.31 0.28 0.30 0.33 0.39 0.39 0.43 0.45 0.45 0.45 0.43 0.40 0.39 0.40 0.39 0.37 0.37 0.34 0.31 0.29 0.27 0.26 0.27 0.27 0.29 0.30 0.31 0.31 0.30 0.30
0.33 0.33 0.34 0.36 0.32 0.27 0.42 0.36 0.28 0.31 0.35 0.33 0.34 0.34 0.33 0.35 0.36 0.36 0.39 0.40 0.43 0.44 0.45 0.45 0.43 0.40 0.39 0.39 0.38 0.36 0.33 0.31 0.29 0.27 0.26 0.27 0.28 0.29 0.30 0.30 0.30 0.30 0.29 0.26
0.32 0.38 0.36 0.39 0.37 0.47 0.49 0.44 0.44 0.41 0.37 0.36 0.36 0.37 0.38 0.36 0.36 0.36 0.36 0.39 0.42 0.44 0.45 0.45 0.43 0.39 0.38 0.38 0.40 0.34 0.30 0.29 0.27 0.26 0.25 0.27 0.29 0.29 0.30 0.29 0.28 0.27 0.29 0.29
0.39 0.44 0.39 0.41 0.45 0.47 0.51 0.52 0.51 0.49 0.43 0.43 0.42 0.40 0.40 0.38 0.39 0.38 0.38 0.38 0.40 0.43 0.44 0.45 0.42 0.39 0.35 0.38 0.39 0.33 0.29 0.28 0.26 0.25 0.25 0.27 0.27 0.26 0.26 0.27 0.28 0.28 0.27 0.28
0.36 0.38 0.36 0.37 0.43 0.46 0.49 0.51 0.51 0.50 0.48 0.45 0.45 0.43 0.40 0.41 0.40 0.39 0.38 0.39 0.41 0.43 0.44 0.45 0.43 0.39 0.35 0.38 0.36 0.32 0.29 0.28 0.25 0.24 0.25 0.25 0.24 0.24 0.25 0.24 0.25 0.28 0.32 0.35
0.34 0.30 0.30 0.29 0.40 0.40 0.43 0.47 0.51 0.50 0.49 0.49 0.46 0.45 0.45 0.44 0.42 0.42 0.40 0.40 0.41 0.42 0.44 0.44 0.44 0.42 0.38 0.37 0.33 0.30 0.28 0.26 0.24 0.23 0.23 0.23 0.23 0.22 0.23 0.25 0.27 0.34 0.37 0.40

GFSCGP_prec_pwat_108.txt.gz
Precipitable_Water
0.37 0.35 0.31 0.35 0.41 0.44 0.46 0.44 0.41 0.45 0.50 0.46 0.43 0.41 0.40 0.41 0.38 0.36 0.35 0.34 0.31 0.31 0.46 0.85 1.16 1.38 1.43 1.38 1.42 1.46 1.46 1.47 1.51 1.46 1.45 1.47 1.43 1.42 1.41 1.43 1.42 1.31 1.21 0.94
0.28 0.27 0.37 0.42 0.42 0.43 0.44 0.41 0.41 0.47 0.53 0.51 0.50 0.48 0.49 0.48 0.41 0.39 0.38 0.35 0.32 0.30 0.32 0.52 0.86 1.22 1.39 1.36 1.40 1.46 1.55 1.60 1.62 1.64 1.58 1.56 1.53 1.50 1.46 1.40 1.38 1.27 1.21 0.97
0.22 0.30 0.39 0.37 0.35 0.39 0.39 0.38 0.40 0.40 0.48 0.53 0.48 0.41 0.44 0.51 0.51 0.41 0.43 0.44 0.44 0.39 0.38 0.39 0.59 0.85 1.17 1.29 1.35 1.43 1.55 1.66 1.54 1.62 1.57 1.55 1.60 1.58 1.45 1.33 1.28 1.20 1.16 1.01
0.22 0.31 0.32 0.31 0.30 0.38 0.33 0.45 0.46 0.42 0.38 0.33 0.48 0.26 0.35 0.39 0.45 0.51 0.49 0.49 0.48 0.45 0.44 0.44 0.47 0.63 0.84 1.09 1.32 1.42 1.55 1.59 1.53 1.55 1.56 1.51 1.48 1.46 1.41 1.31 1.31 1.31 1.26 1.07
0.18 0.24 0.26 0.28 0.28 0.36 0.35 0.49 0.45 0.40 0.37 0.38 0.41 0.30 0.29 0.41 0.36 0.43 0.55 0.56 0.53 0.53 0.45 0.43 0.51 0.58 0.70 0.98 1.24 1.38 1.50 1.56 1.54 1.56 1.61 1.55 1.52 1.56 1.52 1.40 1.38 1.45 1.40 1.31
0.21 0.28 0.29 0.33 0.34 0.35 0.44 0.46 0.43 0.39 0.35 0.27 0.40 0.36 0.34 0.44 0.52 0.51 0.55 0.62 0.58 0.58 0.52 0.58 0.65 0.79 0.85 1.09 1.29 1.39 1.41 1.44 1.50 1.55 1.56 1.55 1.56 1.54 1.51 1.43 1.42 1.40 1.38 1.26
0.18 0.19 0.27 0.35 0.27 0.33 0.39 0.38 0.26 0.24 0.25 0.24 0.43 0.40 0.45 0.55 0.69 0.69 0.61 0.65 0.67 0.68 0.70 0.78 0.81 0.88 0.96 1.03 1.17 1.24 1.34 1.31 1.44 1.47 1.53 1.57 1.56 1.51 1.40 1.37 1.34 1.29 1.27 1.22
0.14 0.12 0.20 0.28 0.28 0.29 0.37 0.39 0.31 0.22 0.24 0.27 0.39 0.33 0.44 0.60 0.66 0.77 0.79 0.74 0.74 0.73 0.77 0.90 0.93 1.00 1.10 1.16 1.24 1.32 1.39 1.39 1.46 1.50 1.53 1.57 1.57 1.43 1.34 1.33 1.39 1.33 1.32 1.28
0.18 0.13 0.23 0.27 0.32 0.35 0.33 0.30 0.48 0.35 0.38 0.31 0.34 0.41 0.58 0.64 0.60 0.71 0.73 0.73 0.73 0.74 0.81 0.87 0.96 1.05 1.15 1.19 1.30 1.40 1.38 1.38 1.45 1.52 1.57 1.51 1.39 1.38 1.34 1.37 1.42 1.40 1.34 1.27
0.26 0.15 0.20 0.24 0.35 0.34 0.35 0.42 0.30 0.35 0.23 0.24 0.32 0.34 0.36 0.52 0.56 0.64 0.70 0.70 0.74 0.76 0.77 0.91 1.00 1.14 1.28 1.34 1.39 1.46 1.45 1.39 1.40 1.48 1.31 1.33 1.36 1.42 1.40 1.37 1.28 1.20 1.16 1.04
0.30 0.22 0.14 0.22 0.21 0.22 0.26 0.26 0.31 0.36 0.33 0.25 0.24 0.31 0.44 0.52 0.64 0.65 0.68 0.74 0.74 0.74 0.77 0.88 0.97 1.04 1.25 1.33 1.37 1.39 1.31 1.27 1.38 1.36 1.40 1.38 1.33 1.28 1.17 1.08 1.04 0.97 0.91 0.84
0.30 0.22 0.14 0.17 0.26 0.31 0.29 0.27 0.29 0.23 0.22 0.31 0.31 0.31 0.47 0.52 0.64 0.73 0.69 0.70 0.76 0.79 0.80 0.88 1.01 1.08 1.08 1.13 1.21 1.22 1.19 1.17 1.19 1.19 1.13 1.05 1.03 0.99 0.92 0.86 0.81 0.78 0.73 0.72
0.29 0.23 0.15 0.13 0.22 0.26 0.25 0.29 0.30 0.31 0.33 0.22 0.19 0.22 0.41 0.50 0.53 0.67 0.65 0.66 0.68 0.73 0.80 0.88 0.93 1.00 1.02 1.06 1.10 1.06 1.03 1.02 0.97 0.89 0.83 0.81 0.79 0.80 0.74 0.68 0.65 0.64 0.62 0.57
0.38 0.27 0.20 0.12 0.13 0.19 0.20 0.25 0.29 0.26 0.21 0.21 0.22 0.25 0.31 0.37 0.44 0.53 0.58 0.63 0.70 0.74 0.77 0.83 0.85 0.88 0.91 0.92 0.92 0.88 0.84 0.79 0.76 0.76 0.74 0.69 0.65 0.61 0.58 0.56 0.55 0.54 0.54 0.53
0.32 0.23 0.23 0.20 0.17 0.19 0.21 0.24 0.28 0.23 0.22 0.18 0.22 0.25 0.32 0.36 0.39 0.44 0.50 0.55 0.62 0.67 0.70 0.71 0.71 0.71 0.72 0.71 0.70 0.69 0.67 0.66 0.64 0.59 0.56 0.53 0.51 0.50 0.49 0.47 0.47 0.47 0.45 0.43
0.31 0.24 0.26 0.21 0.23 0.25 0.22 0.25 0.28 0.24 0.18 0.17 0.21 0.22 0.36 0.40 0.42 0.42 0.44 0.45 0.47 0.52 0.55 0.57 0.59 0.60 0.59 0.58 0.56 0.54 0.51 0.48 0.48 0.46 0.45 0.45 0.44 0.43 0.42 0.42 0.41 0.39 0.37 0.36
0.34 0.28 0.29 0.22 0.27 0.25 0.18 0.24 0.24 0.21 0.21 0.20 0.18 0.21 0.31 0.32 0.35 0.37 0.39 0.40 0.40 0.41 0.43 0.43 0.43 0.43 0.44 0.44 0.44 0.43 0.43 0.43 0.42 0.40 0.40 0.40 0.41 0.40 0.38 0.35 0.31 0.28 0.26 0.26
0.31 0.29 0.32 0.27 0.26 0.17 0.25 0.29 0.28 0.23 0.25 0.25 0.25 0.25 0.28 0.28 0.32 0.34 0.36 0.36 0.36 0.38 0.39 0.41 0.42 0.42 0.43 0.43 0.43 0.42 0.41 0.40 0.38 0.38 0.39 0.38 0.35 0.30 0.27 0.25 0.25 0.26 0.27 0.28
0.37 0.32 0.30 0.26 0.24 0.25 0.25 0.29 0.26 0.23 0.24 0.27 0.26 0.28 0.26 0.28 0.30 0.30 0.35 0.38 0.38 0.39 0.42 0.43 0.43 0.42 0.42 0.42 0.42 0.40 0.39 0.38 0.39 0.37 0.34 0.32 0.29 0.26 0.26 0.25 0.27 0.29 0.29 0.29
0.38 0.37 0.32 0.31 0.26 0.22 0.30 0.34 0.33 0.29 0.21 0.28 0.29 0.27 0.27 0.29 0.18 0.22 0.35 0.39 0.40 0.41 0.43 0.44 0.44 0.44 0.43 0.42 0.41 0.38 0.37 0.38 0.36 0.32 0.30 0.28 0.26 0.26 0.26 0.28 0.29 0.30 0.31 0.30
0.32 0.32 0.29 0.30 0.29 0.32 0.37 0.39 0.35 0.23 0.23 0.29 0.31 0.31 0.30 0.28 0.29 0.32 0.36 0.39 0.42 0.44 0.45 0.46 0.45 0.42 0.41 0.41 0.39 0.37 0.39 0.36 0.33 0.30 0.27 0.26 0.27 0.27 0.29 0.29 0.30 0.29 0.29 0.29
0.29 0.29 0.29 0.30 0.29 0.27 0.44 0.41 0.30 0.34 0.38 0.35 0.36 0.35 0.32 0.34 0.36 0.35 0.36 0.38 0.40 0.41 0.43 0.45 0.44 0.42 0.42 0.41 0.38 0.37 0.36 0.35 0.30 0.26 0.25 0.25 0.27 0.28 0.28 0.27 0.28 0.28 0.27 0.26
0.31 0.33 0.31 0.32 0.32 0.42 0.48 0.44 0.46 0.46 0.42 0.40 0.38 0.38 0.38 0.37 0.37 0.38 0.36 0.37 0.39 0.41 0.43 0.44 0.43 0.43 0.44 0.42 0.38 0.35 0.36 0.32 0.27 0.24 0.24 0.26 0.27 0.27 0.26 0.25 0.25 0.26 0.26 0.26
0.42 0.43 0.35 0.34 0.36 0.41 0.46 0.51 0.54 0.54 0.50 0.49 0.48 0.46 0.44 0.40 0.39 0.39 0.40 0.39 0.39 0.41 0.42 0.44 0.43 0.42 0.43 0.43 0.39 0.36 0.34 0.31 0.25 0.23 0.24 0.25 0.24 0.23 0.24 0.23 0.24 0.25 0.26 0.28
0.44 0.42 0.36 0.34 0.33 0.40 0.43 0.47 0.50 0.52 0.54 0.51 0.51 0.49 0.45 0.43 0.41 0.40 0.41 0.40 0.39 0.41 0.43 0.44 0.43 0.42 0.42 0.43 0.39 0.35 0.32 0.28 0.23 0.23 0.24 0.22 0.22 0.20 0.20 0.22 0.25 0.28 0.32 0.34
0.45 0.40 0.34 0.31 0.33 0.33 0.36 0.40 0.46 0.48 0.51 0.53 0.50 0.50 0.51 0.49 0.46 0.44 0.43 0.43 0.41 0.41 0.43 0.43 0.44 0.43 0.42 0.44 0.39 0.33 0.31 0.25 0.22 0.22 0.21 0.21 0.18 0.20 0.21 0.22 0.23 0.27 0.27 0.26

GFSCGP_prec_pwat_111.txt.gz
Precipitable_Water
0.36 0.28 0.26 0.31 0.36 0.40 0.41 0.39 0.38 0.43 0.50 0.47 0.46 0.46 0.52 0.55 0.47 0.44 0.41 0.39 0.36 0.37 0.39 0.50 0.92 1.25 1.43 1.46 1.48 1.52 1.49 1.52 1.39 1.45 1.40 1.41 1.36 1.37 1.38 1.40 1.39 1.27 1.04 0.99
0.27 0.22 0.31 0.34 0.36 0.37 0.37 0.37 0.37 0.42 0.47 0.47 0.46 0.42 0.51 0.53 0.54 0.48 0.43 0.42 0.41 0.41 0.40 0.44 0.62 1.09 1.33 1.40 1.43 1.45 1.43 1.53 1.47 1.45 1.48 1.49 1.48 1.46 1.45 1.49 1.45 1.43 1.16 1.04
0.22 0.25 0.34 0.31 0.29 0.29 0.34 0.34 0.37 0.36 0.42 0.48 0.42 0.36 0.38 0.47 0.55 0.60 0.62 0.55 0.52 0.47 0.43 0.41 0.51 0.78 1.16 1.32 1.40 1.44 1.46 1.49 1.51 1.45 1.53 1.56 1.60 1.58 1.50 1.45 1.41 1.41 1.33 1.20
0.23 0.27 0.26 0.28 0.26 0.30 0.26 0.39 0.42 0.38 0.33 0.27 0.44 0.23 0.35 0.44 0.43 0.48 0.57 0.62 0.54 0.50 0.50 0.47 0.45 0.55 0.83 1.14 1.42 1.48 1.48 1.58 1.60 1.58 1.52 1.53 1.46 1.40 1.46 1.48 1.49 1.48 1.43 1.33
0.18 0.22 0.22 0.25 0.25 0.31 0.29 0.43 0.42 0.40 0.35 0.33 0.37 0.31 0.35 0.49 0.44 0.48 0.54 0.61 0.65 0.57 0.55 0.48 0.46 0.49 0.65 0.90 1.09 1.37 1.46 1.49 1.55 1.62 1.54 1.50 1.53 1.54 1.53 1.48 1.44 1.48 1.43 1.36
0.23 0.29 0.27 0.28 0.29 0.34 0.41 0.41 0.40 0.39 0.35 0.25 0.38 0.37 0.36 0.44 0.54 0.60 0.66 0.63 0.69 0.63 0.60 0.59 0.57 0.61 0.68 0.80 0.96 1.19 1.35 1.47 1.56 1.58 1.57 1.52 1.50 1.47 1.43 1.41 1.37 1.37 1.38 1.36
0.20 0.21 0.26 0.30 0.23 0.33 0.35 0.32 0.22 0.22 0.24 0.26 0.41 0.36 0.41 0.55 0.59 0.68 0.67 0.66 0.71 0.73 0.70 0.71 0.66 0.68 0.77 0.86 0.95 1.18 1.36 1.39 1.51 1.55 1.55 1.55 1.55 1.49 1.42 1.37 1.36 1.32 1.32 1.32
0.18 0.14 0.21 0.27 0.26 0.27 0.31 0.33 0.24 0.19 0.22 0.28 0.40 0.32 0.42 0.61 0.69 0.76 0.80 0.74 0.77 0.73 0.76 0.84 0.86 0.92 0.96 1.02 1.09 1.18 1.27 1.35 1.48 1.52 1.53 1.56 1.54 1.42 1.38 1.36 1.34 1.31 1.33 1.33
0.22 0.16 0.24 0.29 0.34 0.33 0.27 0.24 0.40 0.30 0.32 0.29 0.34 0.40 0.56 0.64 0.63 0.69 0.76 0.75 0.73 0.77 0.80 0.85 0.89 0.96 1.05 1.12 1.18 1.26 1.31 1.42 1.47 1.37 1.40 1.42 1.39 1.31 1.31 1.36 1.39 1.36 1.36 1.38
0.30 0.17 0.20 0.24 0.36 0.33 0.29 0.36 0.23 0.28 0.17 0.18 0.26 0.30 0.35 0.53 0.56 0.65 0.70 0.74 0.76 0.81 0.83 0.87 0.92 0.99 1.10 1.20 1.26 1.32 1.38 1.38 1.33 1.30 1.32 1.29 1.35 1.38 1.41 1.40 1.36 1.36 1.36 1.35
0.32 0.23 0.15 0.22 0.21 0.22 0.25 0.23 0.27 0.32 0.28 0.20 0.19 0.26 0.44 0.57 0.63 0.60 0.66 0.73 0.77 0.80 0.85 0.92 0.97 1.10 1.18 1.24 1.20 1.23 1.28 1.28 1.29 1.35 1.33 1.29 1.31 1.35 1.34 1.30 1.26 1.18 1.15 1.11
0.33 0.25 0.17 0.18 0.28 0.30 0.29 0.26 0.27 0.21 0.20 0.28 0.26 0.23 0.43 0.54 0.66 0.63 0.58 0.67 0.74 0.80 0.83 0.91 0.99 1.05 1.11 1.17 1.25 1.17 1.21 1.27 1.29 1.28 1.23 1.22 1.17 1.09 1.02 0.98 0.93 0.89 0.83 0.83
0.36 0.26 0.18 0.16 0.22 0.24 0.22 0.25 0.26 0.28 0.30 0.21 0.18 0.21 0.39 0.44 0.54 0.62 0.67 0.62 0.68 0.79 0.79 0.84 0.94 1.00 0.98 1.00 1.03 1.09 1.12 1.10 1.03 0.99 0.95 0.92 0.87 0.83 0.78 0.74 0.71 0.69 0.67 0.64
0.42 0.31 0.24 0.18 0.16 0.17 0.18 0.21 0.25 0.26 0.18 0.17 0.20 0.24 0.32 0.36 0.40 0.50 0.61 0.72 0.73 0.75 0.79 0.84 0.86 0.93 0.96 0.93 0.91 0.86 0.84 0.82 0.79 0.76 0.72 0.70 0.66 0.63 0.60 0.57 0.55 0.54 0.55 0.54
0.36 0.27 0.28 0.26 0.24 0.20 0.18 0.22 0.25 0.24 0.21 0.15 0.16 0.20 0.30 0.35 0.38 0.43 0.49 0.61 0.67 0.70 0.70 0.72 0.74 0.73 0.71 0.71 0.71 0.70 0.69 0.67 0.64 0.61 0.57 0.55 0.53 0.52 0.50 0.49 0.49 0.47 0.45 0.43
0.32 0.26 0.30 0.28 0.29 0.28 0.23 0.25 0.26 0.27 0.23 0.18 0.18 0.19 0.32 0.38 0.40 0.41 0.43 0.47 0.52 0.54 0.57 0.58 0.59 0.59 0.58 0.56 0.53 0.51 0.49 0.48 0.48 0.46 0.44 0.45 0.44 0.44 0.43 0.42 0.40 0.37 0.36 0.35
0.33 0.32 0.28 0.26 0.29 0.27 0.21 0.23 0.26 0.24 0.23 0.20 0.16 0.20 0.31 0.30 0.32 0.35 0.37 0.38 0.39 0.39 0.40 0.41 0.43 0.44 0.45 0.44 0.45 0.44 0.44 0.44 0.42 0.41 0.41 0.41 0.40 0.37 0.35 0.31 0.28 0.25 0.24 0.25
0.32 0.30 0.29 0.27 0.29 0.20 0.26 0.32 0.29 0.26 0.24 0.27 0.24 0.25 0.27 0.28 0.32 0.34 0.37 0.36 0.37 0.39 0.40 0.41 0.42 0.43 0.43 0.44 0.43 0.43 0.42 0.40 0.40 0.40 0.40 0.37 0.33 0.29 0.27 0.26 0.24 0.25 0.27 0.27
0.35 0.31 0.27 0.26 0.25 0.26 0.29 0.31 0.30 0.26 0.25 0.30 0.26 0.28 0.27 0.28 0.30 0.29 0.35 0.38 0.39 0.40 0.41 0.43 0.44 0.44 0.44 0.43 0.42 0.41 0.39 0.39 0.39 0.37 0.33 0.31 0.27 0.24 0.23 0.24 0.26 0.28 0.28 0.27
0.39 0.35 0.29 0.30 0.24 0.21 0.29 0.37 0.37 0.33 0.22 0.31 0.30 0.29 0.28 0.30 0.19 0.23 0.34 0.39 0.39 0.41 0.43 0.44 0.45 0.45 0.44 0.43 0.42 0.39 0.37 0.38 0.35 0.31 0.29 0.26 0.24 0.24 0.25 0.27 0.28 0.29 0.30 0.31
0.33 0.32 0.26 0.27 0.26 0.28 0.38 0.40 0.37 0.26 0.27 0.32 0.33 0.32 0.32 0.29 0.30 0.31 0.37 0.40 0.42 0.43 0.44 0.45 0.45 0.44 0.44 0.44 0.41 0.38 0.37 0.35 0.34 0.32 0.27 0.25 0.26 0.26 0.28 0.29 0.29 0.30 0.29 0.29
0.32 0.32 0.31 0.28 0.25 0.24 0.41 0.41 0.32 0.35 0.39 0.38 0.38 0.38 0.36 0.36 0.37 0.38 0.38 0.38 0.41 0.41 0.43 0.44 0.44 0.43 0.44 0.44 0.43 0.39 0.36 0.36 0.33 0.30 0.25 0.25 0.26 0.27 0.27 0.27 0.26 0.25 0.25 0.25
0.32 0.37 0.34 0.34 0.29 0.38 0.43 0.42 0.44 0.45 0.44 0.44 0.42 0.42 0.41 0.39 0.40 0.41 0.41 0.40 0.40 0.42 0.43 0.45 0.44 0.44 0.44 0.44 0.44 0.40 0.37 0.32 0.31 0.27 0.24 0.24 0.25 0.25 0.24 0.22 0.21 0.22 0.24 0.25
0.42 0.46 0.39 0.39 0.37 0.37 0.40 0.43 0.46 0.48 0.50 0.53 0.51 0.49 0.49 0.46 0.46 0.44 0.43 0.44 0.43 0.42 0.42 0.44 0.44 0.43 0.43 0.45 0.43 0.42 0.37 0.30 0.29 0.24 0.23 0.23 0.23 0.21 0.20 0.21 0.22 0.23 0.23 0.21
0.43 0.46 0.42 0.42 0.43 0.41 0.42 0.41 0.42 0.45 0.49 0.51 0.54 0.53 0.51 0.49 0.47 0.46 0.44 0.45 0.44 0.43 0.43 0.45 0.44 0.44 0.44 0.45 0.41 0.42 0.37 0.30 0.26 0.23 0.22 0.21 0.20 0.19 0.19 0.20 0.21 0.21 0.22 0.23
0.44 0.43 0.40 0.39 0.47 0.43 0.40 0.39 0.39 0.39 0.42 0.47 0.51 0.52 0.54 0.53 0.50 0.52 0.50 0.48 0.47 0.45 0.45 0.45 0.45 0.45 0.45 0.43 0.42 0.41 0.36 0.28 0.26 0.20 0.19 0.20 0.19 0.19 0.18 0.18 0.18 0.19 0.20 0.21

GFSCGP_prec_pwat_114.txt.gz
Precipitable_Water
0.36 0.30 0.23 0.27 0.31 0.32 0.35 0.35 0.35 0.40 0.45 0.43 0.44 0.44 0.49 0.56 0.55 0.51 0.48 0.46 0.45 0.39 0.39 0.39 0.65 1.11 1.51 1.63 1.63 1.68 1.69 1.63 1.56 1.33 1.30 1.43 1.51 1.49 1.33 1.23 1.30 1.15 1.02 0.93
0.29 0.24 0.30 0.33 0.34 0.31 0.32 0.31 0.32 0.40 0.46 0.46 0.42 0.41 0.45 0.51 0.54 0.61 0.64 0.58 0.51 0.51 0.44 0.48 0.50 0.87 1.19 1.52 1.62 1.60 1.64 1.64 1.59 1.43 1.36 1.50 1.56 1.52 1.47 1.32 1.34 1.29 1.10 0.97
0.23 0.25 0.30 0.29 0.28 0.26 0.30 0.30 0.33 0.35 0.41 0.49 0.42 0.38 0.43 0.51 0.55 0.54 0.63 0.71 0.64 0.53 0.50 0.49 0.50 0.65 0.94 1.22 1.53 1.57 1.60 1.60 1.59 1.58 1.39 1.49 1.61 1.56 1.47 1.34 1.31 1.37 1.27 1.04
0.24 0.28 0.24 0.26 0.24 0.29 0.27 0.36 0.40 0.39 0.36 0.30 0.45 0.29 0.40 0.47 0.52 0.55 0.57 0.57 0.70 0.65 0.55 0.54 0.52 0.54 0.76 0.99 1.45 1.57 1.60 1.58 1.57 1.57 1.36 1.47 1.40 1.41 1.43 1.43 1.42 1.47 1.47 1.26
0.21 0.23 0.22 0.23 0.23 0.33 0.28 0.41 0.42 0.39 0.36 0.38 0.36 0.35 0.39 0.49 0.44 0.56 0.62 0.63 0.63 0.67 0.67 0.57 0.55 0.51 0.65 0.94 1.22 1.54 1.55 1.63 1.60 1.64 1.55 1.50 1.46 1.53 1.56 1.49 1.48 1.53 1.54 1.46
0.24 0.29 0.27 0.27 0.29 0.33 0.36 0.39 0.38 0.38 0.35 0.28 0.36 0.37 0.36 0.43 0.50 0.58 0.63 0.68 0.69 0.72 0.73 0.70 0.67 0.59 0.59 0.88 1.10 1.27 1.43 1.55 1.63 1.57 1.56 1.51 1.51 1.43 1.41 1.41 1.46 1.47 1.50 1.50
0.23 0.23 0.26 0.29 0.25 0.33 0.30 0.28 0.23 0.22 0.26 0.25 0.37 0.37 0.41 0.56 0.61 0.66 0.70 0.69 0.71 0.76 0.75 0.75 0.70 0.67 0.74 0.81 0.89 1.05 1.24 1.30 1.46 1.54 1.56 1.53 1.49 1.44 1.42 1.40 1.40 1.40 1.40 1.39
0.22 0.17 0.21 0.27 0.28 0.25 0.28 0.30 0.21 0.15 0.19 0.25 0.37 0.33 0.43 0.59 0.69 0.79 0.82 0.79 0.77 0.75 0.76 0.76 0.78 0.79 0.85 0.90 0.96 0.98 1.06 1.25 1.44 1.52 1.49 1.52 1.47 1.35 1.34 1.35 1.35 1.35 1.36 1.34
0.25 0.19 0.23 0.27 0.35 0.33 0.26 0.24 0.36 0.26 0.28 0.27 0.31 0.36 0.56 0.62 0.61 0.72 0.76 0.79 0.75 0.76 0.80 0.82 0.90 0.95 0.98 1.04 1.07 1.09 1.14 1.25 1.35 1.43 1.44 1.37 1.36 1.35 1.30 1.32 1.32 1.29 1.35 1.36
0.31 0.20 0.20 0.23 0.35 0.33 0.31 0.35 0.25 0.29 0.16 0.17 0.23 0.26 0.39 0.50 0.50 0.62 0.69 0.74 0.79 0.82 0.85 0.88 0.92 0.98 1.05 1.09 1.16 1.22 1.29 1.20 1.24 1.34 1.34 1.32 1.32 1.34 1.34 1.35 1.33 1.33 1.34 1.36
0.32 0.26 0.20 0.23 0.22 0.23 0.27 0.25 0.27 0.31 0.27 0.20 0.18 0.22 0.40 0.52 0.53 0.54 0.64 0.77 0.82 0.89 0.94 0.97 0.99 1.04 1.06 1.12 1.14 1.20 1.19 1.26 1.30 1.32 1.31 1.27 1.28 1.33 1.35 1.34 1.33 1.32 1.32 1.29
0.36 0.29 0.20 0.19 0.28 0.31 0.30 0.26 0.26 0.20 0.20 0.27 0.24 0.23 0.38 0.45 0.58 0.58 0.60 0.71 0.80 0.85 0.92 0.98 1.05 1.10 1.10 1.09 1.11 1.15 1.19 1.22 1.24 1.24 1.23 1.23 1.21 1.19 1.16 1.12 1.09 1.04 0.98 1.00
0.40 0.30 0.22 0.20 0.25 0.25 0.21 0.23 0.25 0.28 0.27 0.20 0.18 0.21 0.36 0.40 0.49 0.67 0.59 0.68 0.74 0.78 0.83 0.89 0.93 0.96 1.02 1.04 1.06 1.13 1.12 1.14 1.11 1.11 1.08 1.01 0.97 0.93 0.89 0.84 0.83 0.79 0.74 0.69
0.43 0.35 0.28 0.22 0.22 0.23 0.17 0.20 0.23 0.25 0.20 0.16 0.17 0.19 0.30 0.35 0.40 0.55 0.68 0.71 0.75 0.77 0.79 0.83 0.86 0.92 0.96 0.96 0.96 0.94 0.93 0.91 0.89 0.85 0.81 0.76 0.73 0.72 0.69 0.64 0.60 0.57 0.56 0.56
0.39 0.29 0.30 0.29 0.29 0.27 0.21 0.18 0.23 0.24 0.25 0.17 0.17 0.16 0.24 0.33 0.39 0.45 0.55 0.62 0.64 0.66 0.75 0.77 0.75 0.73 0.73 0.71 0.71 0.71 0.69 0.68 0.68 0.66 0.61 0.57 0.55 0.54 0.52 0.50 0.49 0.48 0.47 0.45
0.35 0.27 0.29 0.30 0.31 0.31 0.26 0.25 0.27 0.28 0.28 0.22 0.21 0.18 0.27 0.35 0.38 0.41 0.47 0.52 0.53 0.54 0.56 0.58 0.59 0.58 0.56 0.55 0.55 0.54 0.53 0.52 0.50 0.48 0.46 0.46 0.44 0.44 0.44 0.42 0.40 0.38 0.36 0.34
0.32 0.31 0.29 0.25 0.30 0.31 0.26 0.24 0.26 0.28 0.28 0.22 0.18 0.23 0.29 0.30 0.31 0.34 0.38 0.44 0.45 0.47 0.48 0.48 0.48 0.47 0.46 0.45 0.45 0.44 0.44 0.45 0.43 0.41 0.41 0.41 0.41 0.38 0.35 0.31 0.27 0.24 0.23 0.24
0.32 0.31 0.28 0.26 0.29 0.21 0.27 0.33 0.32 0.29 0.28 0.27 0.26 0.27 0.30 0.31 0.33 0.35 0.38 0.38 0.40 0.41 0.41 0.43 0.43 0.43 0.44 0.44 0.43 0.43 0.41 0.40 0.39 0.39 0.38 0.35 0.31 0.27 0.25 0.23 0.23 0.23 0.25 0.25
0.37 0.32 0.28 0.26 0.25 0.27 0.32 0.35 0.31 0.28 0.28 0.30 0.29 0.30 0.31 0.32 0.33 0.31 0.36 0.39 0.39 0.40 0.41 0.43 0.45 0.45 0.44 0.43 0.42 0.40 0.39 0.39 0.39 0.35 0.31 0.29 0.27 0.23 0.23 0.22 0.24 0.26 0.26 0.27
0.41 0.36 0.30 0.30 0.25 0.22 0.29 0.37 0.40 0.36 0.26 0.32 0.34 0.32 0.30 0.31 0.24 0.28 0.35 0.38 0.39 0.41 0.42 0.43 0.44 0.44 0.43 0.42 0.42 0.39 0.38 0.38 0.35 0.32 0.30 0.28 0.26 0.25 0.25 0.27 0.28 0.30 0.31 0.29
0.35 0.33 0.28 0.29 0.29 0.29 0.36 0.39 0.39 0.27 0.31 0.33 0.34 0.35 0.33 0.31 0.34 0.34 0.40 0.41 0.43 0.42 0.42 0.45 0.45 0.43 0.43 0.43 0.43 0.40 0.40 0.37 0.34 0.31 0.30 0.27 0.26 0.26 0.27 0.28 0.29 0.28 0.26 0.26
0.34 0.31 0.28 0.30 0.29 0.26 0.40 0.39 0.32 0.37 0.40 0.38 0.38 0.40 0.38 0.39 0.39 0.39 0.41 0.44 0.45 0.43 0.43 0.45 0.44 0.44 0.46 0.45 0.43 0.40 0.39 0.40 0.34 0.29 0.29 0.25 0.25 0.25 0.26 0.26 0.25 0.24 0.24 0.23
0.33 0.36 0.32 0.33 0.34 0.43 0.43 0.41 0.41 0.42 0.43 0.45 0.45 0.45 0.44 0.42 0.41 0.43 0.43 0.44 0.46 0.46 0.45 0.46 0.45 0.45 0.46 0.46 0.45 0.41 0.40 0.39 0.33 0.28 0.28 0.25 0.25 0.25 0.24 0.22 0.21 0.21 0.21 0.22
0.40 0.43 0.35 0.36 0.41 0.43 0.45 0.48 0.47 0.44 0.42 0.47 0.50 0.52 0.50 0.46 0.47 0.47 0.48 0.48 0.49 0.50 0.47 0.47 0.46 0.45 0.45 0.47 0.47 0.44 0.41 0.37 0.33 0.27 0.27 0.24 0.23 0.21 0.21 0.22 0.21 0.20 0.20 0.20
0.41 0.42 0.37 0.36 0.42 0.47 0.49 0.50 0.48 0.46 0.46 0.46 0.48 0.49 0.52 0.54 0.52 0.51 0.50 0.49 0.49 0.49 0.49 0.48 0.46 0.46 0.46 0.48 0.47 0.44 0.41 0.35 0.32 0.28 0.26 0.20 0.19 0.19 0.20 0.20 0.19 0.20 0.21 0.20
0.44 0.38 0.34 0.33 0.43 0.45 0.45 0.52 0.54 0.47 0.43 0.42 0.43 0.45 0.50 0.53 0.53 0.55 0.53 0.53 0.53 0.52 0.52 0.49 0.49 0.48 0.48 0.48 0.46 0.44 0.41 0.34 0.31 0.27 0.23 0.18 0.18 0.19 0.19 0.18 0.17 0.20 0.20 0.21

GFSCGP_prec_pwat_117.txt.gz
Precipitable_Water
0.37 0.34 0.25 0.27 0.29 0.31 0.31 0.31 0.33 0.40 0.44 0.44 0.43 0.44 0.46 0.54 0.55 0.58 0.64 0.66 0.55 0.52 0.51 0.45 0.41 0.81 1.04 1.31 1.46 1.42 1.73 1.64 1.57 1.45 1.35 1.36 1.43 1.56 1.57 1.32 1.18 1.02 1.01 0.97
0.32 0.29 0.27 0.30 0.29 0.30 0.30 0.30 0.31 0.40 0.46 0.45 0.43 0.44 0.50 0.54 0.59 0.61 0.57 0.64 0.71 0.63 0.61 0.53 0.45 0.50 0.83 1.20 1.52 1.62 1.72 1.65 1.59 1.53 1.48 1.34 1.43 1.60 1.51 1.38 1.29 1.07 1.03 1.00
0.24 0.28 0.25 0.25 0.27 0.25 0.29 0.29 0.30 0.34 0.41 0.48 0.41 0.43 0.47 0.56 0.61 0.65 0.67 0.68 0.70 0.77 0.63 0.61 0.59 0.52 0.71 0.95 1.18 1.63 1.83 1.63 1.63 1.70 1.54 1.33 1.39 1.51 1.48 1.42 1.37 1.16 1.09 1.01
0.26 0.27 0.24 0.23 0.24 0.27 0.25 0.33 0.39 0.38 0.36 0.31 0.44 0.32 0.47 0.50 0.55 0.60 0.65 0.71 0.71 0.76 0.81 0.68 0.61 0.56 0.62 0.83 1.14 1.48 1.68 1.69 1.73 1.72 1.56 1.30 1.20 1.33 1.53 1.49 1.46 1.34 1.20 1.11
0.27 0.22 0.22 0.23 0.23 0.29 0.24 0.37 0.40 0.39 0.37 0.40 0.38 0.35 0.42 0.49 0.47 0.56 0.64 0.70 0.70 0.69 0.84 0.79 0.67 0.60 0.56 0.75 1.06 1.32 1.36 1.77 1.66 1.70 1.56 1.41 1.34 1.44 1.51 1.51 1.47 1.45 1.39 1.31
0.24 0.27 0.25 0.26 0.27 0.32 0.33 0.33 0.39 0.41 0.39 0.32 0.35 0.37 0.36 0.40 0.53 0.62 0.72 0.70 0.70 0.72 0.74 0.87 0.80 0.68 0.60 0.78 1.00 1.13 1.13 1.26 1.64 1.62 1.55 1.41 1.34 1.37 1.42 1.47 1.49 1.49 1.48 1.45
0.27 0.26 0.25 0.28 0.26 0.32 0.30 0.28 0.24 0.24 0.25 0.25 0.38 0.38 0.42 0.52 0.64 0.71 0.72 0.71 0.71 0.73 0.76 0.79 0.85 0.69 0.67 0.88 0.95 1.04 1.19 1.18 1.52 1.37 1.42 1.45 1.46 1.51 1.47 1.43 1.41 1.41 1.42 1.43
0.24 0.23 0.22 0.25 0.28 0.25 0.30 0.31 0.21 0.15 0.17 0.24 0.37 0.32 0.40 0.57 0.69 0.76 0.82 0.77 0.78 0.76 0.78 0.80 1.02 0.84 0.82 0.86 0.95 0.98 1.08 1.18 1.34 1.43 1.45 1.44 1.45 1.40 1.37 1.35 1.36 1.33 1.36 1.41
0.26 0.25 0.24 0.23 0.32 0.31 0.27 0.24 0.36 0.26 0.32 0.31 0.27 0.32 0.57 0.56 0.60 0.67 0.77 0.79 0.75 0.76 0.79 0.83 0.89 0.92 0.91 0.95 1.02 1.07 1.10 1.18 1.28 1.35 1.34 1.36 1.35 1.35 1.32 1.31 1.29 1.31 1.35 1.36
0.34 0.23 0.24 0.21 0.31 0.34 0.30 0.34 0.27 0.32 0.19 0.20 0.23 0.22 0.26 0.43 0.49 0.62 0.72 0.78 0.83 0.83 0.83 0.89 0.91 0.95 1.00 1.03 1.08 1.12 1.13 1.11 1.13 1.18 1.23 1.22 1.29 1.34 1.33 1.33 1.28 1.29 1.31 1.34
0.34 0.29 0.26 0.26 0.24 0.24 0.28 0.27 0.28 0.34 0.27 0.22 0.21 0.22 0.31 0.40 0.47 0.53 0.70 0.81 0.83 0.93 0.93 0.95 0.99 1.01 1.04 1.06 1.08 1.10 1.08 1.13 1.16 1.18 1.20 1.23 1.23 1.27 1.31 1.31 1.32 1.33 1.33 1.29
0.36 0.33 0.24 0.23 0.26 0.30 0.27 0.25 0.26 0.21 0.20 0.27 0.27 0.26 0.35 0.41 0.57 0.56 0.65 0.70 0.82 0.93 1.01 1.03 1.04 1.09 1.07 1.03 1.04 1.07 1.09 1.09 1.13 1.17 1.15 1.13 1.17 1.23 1.20 1.19 1.18 1.22 1.21 1.20
0.40 0.31 0.25 0.24 0.31 0.31 0.22 0.21 0.23 0.24 0.30 0.24 0.18 0.21 0.35 0.39 0.57 0.64 0.69 0.71 0.75 0.78 0.87 0.96 1.01 1.03 1.05 1.07 1.09 1.09 1.12 1.12 1.12 1.12 1.12 1.07 1.06 1.01 0.94 0.95 0.93 0.88 0.83 0.83
0.42 0.36 0.30 0.25 0.26 0.28 0.26 0.22 0.21 0.21 0.22 0.21 0.19 0.15 0.27 0.33 0.40 0.52 0.62 0.70 0.75 0.83 0.80 0.83 0.88 0.92 0.98 1.01 0.98 0.94 0.93 0.99 0.96 0.91 0.93 0.89 0.83 0.81 0.78 0.76 0.69 0.64 0.62 0.60
0.41 0.33 0.31 0.31 0.31 0.30 0.29 0.24 0.19 0.19 0.24 0.21 0.21 0.19 0.20 0.30 0.38 0.47 0.54 0.57 0.61 0.78 0.76 0.74 0.75 0.73 0.74 0.79 0.80 0.78 0.78 0.79 0.77 0.73 0.72 0.66 0.62 0.60 0.56 0.53 0.50 0.49 0.48 0.47
0.38 0.31 0.29 0.28 0.32 0.31 0.30 0.31 0.26 0.24 0.27 0.27 0.24 0.22 0.24 0.33 0.36 0.41 0.48 0.50 0.51 0.55 0.58 0.60 0.59 0.57 0.57 0.57 0.56 0.56 0.56 0.56 0.56 0.54 0.52 0.50 0.48 0.46 0.44 0.44 0.42 0.39 0.37 0.33
0.36 0.33 0.31 0.25 0.29 0.30 0.28 0.29 0.26 0.25 0.29 0.28 0.20 0.27 0.30 0.30 0.32 0.35 0.42 0.46 0.46 0.48 0.50 0.49 0.49 0.49 0.49 0.49 0.48 0.46 0.46 0.45 0.43 0.42 0.42 0.42 0.42 0.40 0.36 0.33 0.30 0.27 0.26 0.27
0.36 0.34 0.33 0.27 0.29 0.23 0.30 0.33 0.33 0.30 0.30 0.30 0.27 0.29 0.32 0.33 0.35 0.38 0.41 0.44 0.46 0.47 0.47 0.47 0.47 0.46 0.45 0.44 0.43 0.42 0.41 0.39 0.38 0.39 0.40 0.37 0.33 0.30 0.29 0.27 0.26 0.26 0.27 0.27
0.39 0.36 0.31 0.28 0.26 0.29 0.32 0.34 0.33 0.30 0.28 0.33 0.30 0.32 0.33 0.36 0.35 0.34 0.40 0.43 0.44 0.44 0.45 0.45 0.47 0.47 0.45 0.42 0.42 0.40 0.38 0.38 0.38 0.37 0.33 0.30 0.29 0.27 0.26 0.25 0.26 0.27 0.27 0.27
0.38 0.38 0.33 0.32 0.26 0.23 0.32 0.34 0.38 0.39 0.29 0.37 0.35 0.34 0.35 0.35 0.25 0.29 0.37 0.40 0.43 0.44 0.44 0.44 0.46 0.46 0.44 0.43 0.43 0.40 0.38 0.37 0.36 0.33 0.28 0.28 0.28 0.26 0.24 0.25 0.26 0.28 0.27 0.26
0.34 0.35 0.32 0.32 0.31 0.32 0.37 0.38 0.38 0.28 0.34 0.38 0.37 0.38 0.37 0.32 0.37 0.45 0.42 0.40 0.43 0.44 0.43 0.45 0.45 0.44 0.45 0.45 0.44 0.41 0.41 0.39 0.38 0.33 0.29 0.28 0.29 0.25 0.25 0.26 0.26 0.24 0.23 0.24
0.34 0.33 0.33 0.34 0.30 0.26 0.40 0.38 0.32 0.40 0.41 0.40 0.39 0.40 0.40 0.41 0.43 0.41 0.42 0.45 0.46 0.45 0.44 0.44 0.44 0.45 0.46 0.46 0.45 0.43 0.42 0.42 0.39 0.33 0.30 0.28 0.29 0.23 0.24 0.25 0.24 0.23 0.23 0.21
0.32 0.37 0.37 0.36 0.35 0.43 0.43 0.42 0.42 0.43 0.43 0.42 0.42 0.44 0.45 0.44 0.44 0.44 0.45 0.48 0.49 0.50 0.48 0.47 0.46 0.46 0.47 0.47 0.47 0.44 0.45 0.43 0.38 0.31 0.30 0.28 0.27 0.23 0.21 0.20 0.21 0.21 0.20 0.19
0.40 0.44 0.40 0.39 0.39 0.41 0.43 0.45 0.45 0.47 0.47 0.48 0.47 0.47 0.48 0.46 0.48 0.47 0.48 0.50 0.52 0.53 0.52 0.52 0.49 0.47 0.47 0.49 0.48 0.48 0.47 0.43 0.37 0.30 0.30 0.29 0.25 0.19 0.19 0.21 0.20 0.19 0.19 0.19
0.38 0.42 0.40 0.39 0.42 0.44 0.44 0.46 0.48 0.50 0.52 0.51 0.51 0.49 0.49 0.51 0.51 0.51 0.52 0.53 0.55 0.55 0.55 0.54 0.51 0.49 0.48 0.50 0.49 0.50 0.47 0.43 0.35 0.30 0.30 0.28 0.25 0.17 0.18 0.19 0.19 0.19 0.20 0.19
0.40 0.41 0.39 0.37 0.44 0.44 0.43 0.48 0.50 0.48 0.50 0.55 0.51 0.49 0.48 0.47 0.49 0.54 0.55 0.56 0.57 0.57 0.57 0.56 0.55 0.53 0.52 0.52 0.51 0.50 0.48 0.43 0.35 0.30 0.27 0.27 0.23 0.18 0.18 0.18 0.18 0.20 0.19 0.19

GFSCGP_prec_pwat_123.txt.gz
Precipitable_Water
0.41 0.31 0.27 0.25 0.24 0.26 0.25 0.24 0.26 0.34 0.43 0.41 0.42 0.46 0.51 0.58 0.61 0.59 0.60 0.58 0.60 0.62 0.71 0.77 0.76 0.68 0.75 0.83 1.08 1.23 1.15 1.33 1.43 1.55 1.57 1.53 1.44 1.51 1.55 1.52 1.55 1.42 1.29 1.09
0.31 0.24 0.31 0.29 0.23 0.25 0.23 0.23 0.25 0.34 0.41 0.42 0.43 0.45 0.54 0.57 0.60 0.60 0.60 0.61 0.64 0.64 0.67 0.75 0.81 0.78 0.66 0.82 1.08 1.24 1.27 1.32 1.44 1.49 1.68 1.70 1.53 1.57 1.54 1.38 1.41 1.37 1.26 1.06
0.26 0.26 0.31 0.24 0.22 0.21 0.21 0.22 0.25 0.30 0.43 0.47 0.43 0.42 0.46 0.54 0.60 0.64 0.67 0.73 0.74 0.69 0.65 0.72 0.81 0.83 0.77 0.79 0.88 1.06 1.17 1.31 1.40 1.49 1.57 1.69 1.62 1.59 1.52 1.35 1.43 1.38 1.23 1.02
0.25 0.30 0.27 0.20 0.22 0.22 0.17 0.26 0.30 0.31 0.35 0.30 0.40 0.26 0.41 0.48 0.52 0.59 0.67 0.73 0.73 0.73 0.71 0.73 0.81 0.86 0.85 0.85 0.99 0.97 0.98 1.14 1.34 1.45 1.48 1.39 1.53 1.38 1.43 1.36 1.29 1.31 1.19 1.05
0.24 0.28 0.21 0.19 0.21 0.25 0.21 0.29 0.32 0.35 0.35 0.37 0.32 0.27 0.35 0.46 0.42 0.56 0.70 0.74 0.71 0.74 0.74 0.69 0.78 0.89 0.93 0.90 0.96 1.02 0.99 1.11 1.23 1.22 1.29 1.37 1.42 1.49 1.40 1.33 1.32 1.31 1.26 1.18
0.27 0.34 0.26 0.21 0.25 0.29 0.31 0.29 0.35 0.37 0.36 0.28 0.31 0.30 0.29 0.37 0.47 0.59 0.73 0.75 0.71 0.73 0.77 0.75 0.83 0.95 0.96 0.97 0.98 1.01 1.00 1.06 1.09 1.13 1.20 1.27 1.39 1.46 1.38 1.31 1.29 1.35 1.34 1.31
0.32 0.31 0.33 0.26 0.23 0.29 0.29 0.23 0.14 0.17 0.19 0.21 0.35 0.30 0.35 0.45 0.55 0.68 0.73 0.71 0.72 0.77 0.77 0.79 0.90 0.95 0.97 0.94 0.99 0.99 1.00 1.03 1.09 1.07 1.06 1.17 1.26 1.39 1.40 1.40 1.38 1.35 1.29 1.35
0.26 0.23 0.29 0.26 0.23 0.24 0.26 0.25 0.18 0.10 0.15 0.23 0.34 0.25 0.34 0.49 0.61 0.75 0.79 0.78 0.73 0.77 0.86 0.97 1.07 1.09 1.07 1.03 1.01 1.00 0.97 0.97 1.03 1.03 1.03 1.08 1.12 1.20 1.26 1.29 1.34 1.34 1.33 1.36
0.27 0.26 0.31 0.24 0.25 0.29 0.26 0.21 0.35 0.26 0.29 0.26 0.29 0.36 0.46 0.50 0.54 0.65 0.76 0.77 0.73 0.76 0.88 0.95 1.03 1.02 1.00 0.95 0.97 0.99 1.00 1.05 1.08 1.21 1.19 1.20 1.20 1.23 1.28 1.28 1.29 1.29 1.30 1.29
0.33 0.25 0.29 0.27 0.28 0.36 0.30 0.34 0.23 0.28 0.15 0.15 0.23 0.24 0.26 0.37 0.50 0.57 0.71 0.74 0.76 0.81 0.86 0.90 0.91 0.93 0.97 1.00 1.04 1.06 1.04 1.09 1.15 1.22 1.27 1.23 1.26 1.30 1.29 1.26 1.23 1.27 1.30 1.32
0.34 0.29 0.29 0.30 0.28 0.25 0.27 0.26 0.26 0.26 0.28 0.17 0.17 0.21 0.35 0.33 0.50 0.55 0.63 0.76 0.79 0.83 0.86 0.92 0.99 1.04 1.06 1.08 1.11 1.11 1.15 1.18 1.21 1.24 1.25 1.23 1.25 1.27 1.25 1.23 1.28 1.27 1.30 1.30
0.34 0.30 0.27 0.28 0.33 0.33 0.28 0.25 0.23 0.18 0.20 0.23 0.23 0.21 0.39 0.38 0.44 0.54 0.60 0.73 0.79 0.90 0.91 0.95 0.98 1.03 1.06 1.09 1.11 1.12 1.13 1.13 1.15 1.16 1.14 1.12 1.15 1.18 1.20 1.21 1.24 1.27 1.26 1.26
0.35 0.30 0.24 0.27 0.32 0.32 0.27 0.29 0.27 0.22 0.22 0.22 0.18 0.18 0.39 0.39 0.40 0.48 0.59 0.71 0.78 0.87 0.95 0.97 0.99 1.01 1.03 1.05 1.04 1.05 1.05 1.03 1.04 1.04 1.04 1.02 1.00 0.99 0.98 1.03 1.06 1.07 1.09 1.07
0.37 0.31 0.27 0.24 0.29 0.32 0.27 0.28 0.29 0.27 0.17 0.22 0.21 0.22 0.31 0.33 0.32 0.40 0.53 0.69 0.74 0.73 0.80 0.86 0.92 0.97 1.02 1.06 1.07 1.02 1.00 1.00 1.00 0.96 0.93 0.87 0.86 0.83 0.79 0.79 0.79 0.76 0.73 0.63
0.33 0.26 0.31 0.31 0.33 0.33 0.31 0.30 0.30 0.28 0.25 0.19 0.23 0.24 0.27 0.33 0.31 0.36 0.47 0.57 0.62 0.67 0.75 0.79 0.79 0.81 0.83 0.83 0.83 0.79 0.78 0.77 0.78 0.73 0.69 0.66 0.64 0.60 0.56 0.52 0.48 0.47 0.47 0.47
0.34 0.26 0.30 0.26 0.30 0.31 0.29 0.30 0.31 0.29 0.28 0.21 0.22 0.23 0.30 0.38 0.40 0.36 0.41 0.44 0.47 0.48 0.53 0.54 0.55 0.57 0.59 0.60 0.59 0.58 0.58 0.58 0.58 0.54 0.51 0.48 0.44 0.42 0.41 0.41 0.39 0.36 0.34 0.34
0.30 0.27 0.29 0.25 0.29 0.29 0.26 0.29 0.28 0.28 0.30 0.26 0.20 0.26 0.36 0.37 0.36 0.33 0.39 0.42 0.43 0.45 0.46 0.47 0.48 0.48 0.49 0.50 0.51 0.49 0.48 0.47 0.44 0.41 0.40 0.40 0.40 0.36 0.30 0.30 0.29 0.28 0.28 0.28
0.29 0.29 0.30 0.26 0.26 0.19 0.32 0.37 0.34 0.30 0.30 0.32 0.31 0.34 0.35 0.34 0.37 0.40 0.42 0.42 0.44 0.47 0.46 0.46 0.47 0.48 0.48 0.47 0.45 0.43 0.42 0.40 0.38 0.37 0.37 0.34 0.29 0.27 0.28 0.28 0.28 0.27 0.27 0.26
0.34 0.31 0.27 0.22 0.23 0.26 0.30 0.33 0.33 0.30 0.28 0.34 0.34 0.37 0.38 0.39 0.41 0.40 0.45 0.45 0.45 0.48 0.49 0.49 0.49 0.48 0.46 0.43 0.42 0.40 0.38 0.37 0.36 0.35 0.33 0.30 0.28 0.28 0.28 0.28 0.28 0.27 0.26 0.26
0.31 0.31 0.28 0.25 0.20 0.18 0.29 0.37 0.38 0.37 0.25 0.34 0.37 0.37 0.38 0.42 0.32 0.33 0.44 0.45 0.45 0.48 0.50 0.47 0.48 0.48 0.46 0.44 0.43 0.40 0.39 0.38 0.37 0.37 0.35 0.33 0.32 0.31 0.28 0.27 0.25 0.25 0.24 0.22
0.22 0.24 0.22 0.25 0.23 0.25 0.35 0.39 0.39 0.26 0.28 0.37 0.37 0.38 0.39 0.37 0.38 0.38 0.47 0.51 0.49 0.47 0.46 0.48 0.47 0.45 0.45 0.46 0.45 0.42 0.42 0.39 0.41 0.40 0.38 0.34 0.32 0.30 0.29 0.27 0.26 0.22 0.21 0.22
0.20 0.20 0.21 0.25 0.22 0.18 0.38 0.38 0.30 0.34 0.41 0.38 0.37 0.38 0.38 0.40 0.44 0.43 0.48 0.53 0.54 0.49 0.47 0.47 0.45 0.45 0.45 0.46 0.45 0.44 0.43 0.45 0.45 0.44 0.40 0.36 0.33 0.30 0.29 0.26 0.24 0.23 0.21 0.20
0.21 0.24 0.22 0.23 0.23 0.35 0.38 0.37 0.39 0.43 0.41 0.40 0.39 0.40 0.40 0.40 0.41 0.44 0.46 0.50 0.52 0.52 0.51 0.50 0.48 0.47 0.46 0.46 0.45 0.43 0.46 0.48 0.47 0.44 0.42 0.38 0.32 0.29 0.27 0.24 0.24 0.22 0.19 0.18
0.28 0.31 0.26 0.26 0.28 0.32 0.36 0.40 0.39 0.44 0.42 0.44 0.44 0.44 0.44 0.41 0.42 0.45 0.49 0.51 0.52 0.53 0.53 0.53 0.52 0.50 0.48 0.49 0.47 0.47 0.48 0.49 0.48 0.45 0.43 0.41 0.33 0.28 0.24 0.24 0.25 0.21 0.18 0.17
0.27 0.28 0.26 0.26 0.29 0.32 0.36 0.39 0.39 0.42 0.46 0.46 0.48 0.49 0.48 0.47 0.46 0.48 0.50 0.52 0.53 0.53 0.54 0.55 0.55 0.55 0.54 0.55 0.53 0.53 0.52 0.51 0.47 0.46 0.45 0.42 0.37 0.29 0.26 0.25 0.24 0.21 0.18 0.15
0.30 0.26 0.23 0.20 0.25 0.27 0.30 0.39 0.43 0.43 0.44 0.49 0.48 0.50 0.52 0.51 0.48 0.52 0.51 0.53 0.55 0.54 0.53 0.54 0.56 0.57 0.58 0.58 0.58 0.58 0.57 0.55 0.51 0.47 0.46 0.44 0.39 0.32 0.27 0.25 0.23 0.24 0.22 0.21

GFSCGP_prec_pwat_126.txt.gz
Precipitable_Water
0.40 0.29 0.25 0.27 0.25 0.23 0.23 0.22 0.22 0.28 0.37 0.37 0.37 0.42 0.50 0.56 0.54 0.54 0.57 0.58 0.60 0.63 0.70 0.73 0.80 0.85 0.72 0.86 0.92 1.10 1.06 1.25 1.34 1.49 1.57 1.61 1.55 1.71 1.66 1.60 1.39 1.55 1.38 1.44
0.31 0.24 0.30 0.30 0.26 0.22 0.22 0.20 0.21 0.31 0.40 0.40 0.38 0.38 0.48 0.52 0.55 0.59 0.60 0.64 0.67 0.68 0.66 0.66 0.76 0.86 0.81 0.84 1.01 1.11 1.14 1.21 1.34 1.41 1.51 1.58 1.65 1.69 1.69 1.57 1.43 1.36 1.48 1.36
0.27 0.27 0.29 0.27 0.21 0.19 0.20 0.19 0.21 0.25 0.34 0.43 0.38 0.34 0.38 0.48 0.56 0.59 0.69 0.77 0.74 0.69 0.68 0.65 0.69 0.85 0.85 0.84 0.95 1.11 1.30 1.34 1.35 1.37 1.48 1.61 1.68 1.65 1.57 1.57 1.57 1.44 1.44 1.30
0.28 0.28 0.27 0.25 0.19 0.22 0.17 0.26 0.27 0.28 0.29 0.26 0.38 0.22 0.33 0.43 0.47 0.56 0.71 0.75 0.69 0.68 0.75 0.74 0.70 0.81 0.85 0.90 0.97 0.92 1.11 1.09 1.15 1.22 1.29 1.39 1.37 1.37 1.49 1.45 1.43 1.33 1.30 1.28
0.25 0.28 0.25 0.18 0.19 0.23 0.21 0.29 0.29 0.32 0.29 0.32 0.32 0.28 0.30 0.42 0.41 0.54 0.68 0.68 0.67 0.70 0.76 0.75 0.73 0.83 0.88 0.93 0.98 0.98 1.03 1.05 1.03 1.11 1.21 1.24 1.21 1.27 1.45 1.42 1.47 1.41 1.42 1.26
0.28 0.32 0.29 0.25 0.22 0.29 0.31 0.28 0.34 0.35 0.31 0.23 0.29 0.30 0.27 0.35 0.43 0.58 0.69 0.67 0.67 0.74 0.79 0.77 0.82 0.89 0.93 0.98 0.97 0.99 1.00 1.02 1.02 1.00 1.12 1.15 1.18 1.19 1.18 1.28 1.31 1.28 1.34 1.27
0.31 0.31 0.33 0.31 0.19 0.29 0.29 0.23 0.16 0.15 0.15 0.17 0.32 0.29 0.32 0.44 0.55 0.67 0.68 0.66 0.70 0.76 0.79 0.79 0.84 0.90 0.94 0.98 0.97 0.96 0.99 1.02 1.00 1.01 1.09 1.22 1.23 1.20 1.28 1.34 1.35 1.34 1.33 1.35
0.24 0.22 0.30 0.30 0.21 0.23 0.26 0.25 0.16 0.09 0.11 0.17 0.32 0.20 0.29 0.48 0.62 0.72 0.77 0.72 0.76 0.85 0.89 0.93 0.97 1.01 0.99 0.98 0.98 1.03 1.01 1.00 1.01 1.03 1.01 1.12 1.25 1.24 1.25 1.27 1.32 1.30 1.33 1.32
0.25 0.25 0.32 0.28 0.25 0.29 0.26 0.23 0.34 0.24 0.26 0.21 0.25 0.30 0.40 0.44 0.54 0.65 0.72 0.71 0.71 0.82 0.93 0.97 1.06 1.04 1.00 0.99 1.02 1.02 1.00 1.01 1.03 1.03 1.05 1.08 1.16 1.24 1.23 1.26 1.30 1.33 1.38 1.33
0.31 0.23 0.30 0.30 0.30 0.35 0.30 0.36 0.23 0.26 0.14 0.12 0.19 0.20 0.21 0.26 0.41 0.56 0.66 0.67 0.72 0.80 0.83 0.87 0.91 0.93 0.93 0.97 1.01 1.03 1.06 1.03 1.13 1.13 1.16 1.13 1.16 1.25 1.28 1.31 1.28 1.30 1.30 1.30
0.31 0.27 0.26 0.28 0.27 0.27 0.28 0.27 0.27 0.26 0.26 0.15 0.13 0.17 0.29 0.28 0.37 0.49 0.61 0.69 0.75 0.80 0.84 0.90 0.95 0.99 1.01 1.04 1.06 1.05 1.08 1.12 1.24 1.26 1.27 1.22 1.25 1.27 1.28 1.25 1.25 1.27 1.31 1.30
0.32 0.28 0.23 0.26 0.32 0.34 0.30 0.26 0.25 0.19 0.20 0.22 0.21 0.18 0.36 0.35 0.39 0.49 0.63 0.71 0.80 0.84 0.88 0.93 0.97 1.01 1.06 1.10 1.07 1.11 1.14 1.17 1.20 1.22 1.20 1.20 1.23 1.22 1.20 1.23 1.24 1.25 1.25 1.27
0.31 0.27 0.22 0.24 0.29 0.32 0.28 0.28 0.26 0.27 0.23 0.19 0.18 0.17 0.38 0.39 0.38 0.47 0.60 0.71 0.79 0.85 0.89 0.93 0.97 0.99 1.01 1.03 1.04 1.04 1.05 1.05 1.07 1.09 1.10 1.11 1.14 1.13 1.13 1.13 1.13 1.16 1.15 1.14
0.34 0.28 0.24 0.20 0.24 0.28 0.26 0.28 0.28 0.27 0.22 0.21 0.21 0.21 0.30 0.34 0.34 0.40 0.49 0.66 0.73 0.77 0.82 0.90 0.92 0.98 1.03 1.02 1.01 1.00 0.99 1.00 1.01 1.01 0.98 0.93 0.93 0.93 0.91 0.91 0.92 0.91 0.87 0.82
0.32 0.23 0.27 0.28 0.30 0.31 0.30 0.30 0.29 0.26 0.27 0.23 0.21 0.21 0.25 0.32 0.34 0.37 0.47 0.56 0.60 0.67 0.72 0.76 0.83 0.83 0.86 0.85 0.84 0.87 0.86 0.86 0.83 0.79 0.74 0.69 0.68 0.65 0.61 0.57 0.54 0.53 0.53 0.53
0.33 0.24 0.26 0.23 0.27 0.28 0.25 0.28 0.28 0.28 0.28 0.27 0.26 0.22 0.29 0.31 0.43 0.40 0.42 0.48 0.50 0.56 0.60 0.61 0.63 0.65 0.67 0.68 0.66 0.63 0.62 0.61 0.59 0.54 0.51 0.48 0.44 0.42 0.42 0.41 0.39 0.38 0.39 0.40
0.29 0.26 0.24 0.20 0.26 0.26 0.23 0.25 0.27 0.29 0.29 0.28 0.24 0.23 0.27 0.33 0.36 0.37 0.39 0.44 0.46 0.49 0.55 0.54 0.55 0.57 0.58 0.55 0.52 0.50 0.49 0.49 0.45 0.41 0.39 0.39 0.38 0.35 0.32 0.32 0.30 0.29 0.28 0.28
0.27 0.26 0.27 0.21 0.24 0.17 0.28 0.33 0.31 0.28 0.29 0.30 0.29 0.28 0.29 0.34 0.38 0.42 0.43 0.42 0.44 0.48 0.50 0.51 0.53 0.53 0.53 0.52 0.50 0.48 0.44 0.41 0.38 0.36 0.36 0.35 0.29 0.26 0.26 0.27 0.27 0.27 0.27 0.25
0.31 0.27 0.24 0.20 0.20 0.24 0.28 0.30 0.28 0.27 0.27 0.33 0.31 0.33 0.37 0.42 0.43 0.42 0.46 0.47 0.45 0.48 0.51 0.52 0.53 0.53 0.52 0.50 0.49 0.45 0.41 0.39 0.37 0.36 0.34 0.31 0.28 0.27 0.28 0.27 0.27 0.27 0.25 0.25
0.31 0.30 0.25 0.24 0.19 0.16 0.24 0.32 0.34 0.31 0.23 0.33 0.34 0.35 0.36 0.40 0.32 0.33 0.47 0.48 0.50 0.51 0.53 0.52 0.53 0.53 0.52 0.50 0.48 0.45 0.42 0.41 0.39 0.39 0.37 0.35 0.32 0.30 0.30 0.29 0.29 0.29 0.27 0.23
0.23 0.24 0.21 0.22 0.20 0.22 0.28 0.34 0.34 0.21 0.22 0.34 0.37 0.37 0.39 0.35 0.35 0.39 0.44 0.49 0.52 0.53 0.52 0.54 0.53 0.49 0.50 0.50 0.48 0.45 0.44 0.43 0.44 0.44 0.42 0.40 0.38 0.35 0.33 0.30 0.29 0.28 0.25 0.23
0.19 0.19 0.19 0.22 0.20 0.16 0.33 0.33 0.26 0.29 0.33 0.35 0.38 0.40 0.39 0.38 0.40 0.41 0.43 0.48 0.53 0.52 0.53 0.53 0.50 0.49 0.50 0.49 0.47 0.45 0.44 0.47 0.48 0.47 0.45 0.43 0.41 0.38 0.34 0.29 0.27 0.26 0.25 0.22
0.18 0.20 0.18 0.20 0.18 0.29 0.34 0.33 0.36 0.35 0.34 0.36 0.38 0.42 0.42 0.41 0.40 0.41 0.40 0.47 0.53 0.55 0.55 0.55 0.51 0.51 0.50 0.49 0.47 0.44 0.46 0.48 0.48 0.48 0.46 0.45 0.43 0.40 0.37 0.31 0.28 0.26 0.25 0.22
0.23 0.27 0.21 0.22 0.24 0.28 0.33 0.36 0.37 0.37 0.36 0.37 0.38 0.41 0.44 0.44 0.45 0.43 0.42 0.45 0.51 0.55 0.55 0.56 0.54 0.53 0.51 0.51 0.50 0.49 0.48 0.48 0.48 0.47 0.46 0.45 0.43 0.39 0.37 0.34 0.32 0.27 0.24 0.23
0.22 0.24 0.24 0.23 0.28 0.30 0.30 0.32 0.34 0.36 0.37 0.39 0.41 0.43 0.46 0.48 0.48 0.47 0.45 0.49 0.52 0.54 0.56 0.57 0.55 0.54 0.54 0.55 0.55 0.56 0.54 0.53 0.50 0.49 0.47 0.45 0.44 0.40 0.36 0.36 0.34 0.28 0.26 0.23
0.26 0.23 0.21 0.21 0.26 0.25 0.24 0.30 0.36 0.37 0.35 0.39 0.39 0.42 0.47 0.49 0.49 0.51 0.48 0.51 0.54 0.53 0.55 0.55 0.55 0.55 0.56 0.58 0.58 0.59 0.60 0.57 0.54 0.51 0.48 0.46 0.44 0.40 0.38 0.36 0.35 0.32 0.27 0.26

GFSCGP_prec_pwat_129.txt.gz
Precipitable_Water
0.41 0.31 0.25 0.28 0.26 0.23 0.22 0.20 0.18 0.23 0.34 0.35 0.35 0.31 0.38 0.48 0.48 0.49 0.53 0.58 0.67 0.70 0.74 0.74 0.76 0.78 0.84 0.99 0.92 0.95 1.10 1.30 1.35 1.38 1.52 1.57 1.50 1.65 1.69 1.73 1.64 1.57 1.46 1.45
0.32 0.25 0.29 0.31 0.28 0.23 0.22 0.19 0.18 0.25 0.35 0.35 0.36 0.31 0.42 0.48 0.49 0.56 0.57 0.66 0.73 0.74 0.72 0.72 0.75 0.81 0.86 0.97 0.97 0.97 1.03 1.19 1.29 1.37 1.43 1.56 1.66 1.67 1.67 1.72 1.70 1.60 1.54 1.44
0.25 0.28 0.30 0.26 0.25 0.20 0.20 0.18 0.20 0.22 0.30 0.37 0.35 0.28 0.37 0.44 0.52 0.55 0.65 0.74 0.68 0.66 0.70 0.74 0.74 0.80 0.86 0.94 1.02 1.02 1.03 1.15 1.30 1.37 1.39 1.48 1.64 1.65 1.59 1.59 1.60 1.55 1.45 1.50
0.32 0.34 0.28 0.26 0.23 0.21 0.16 0.24 0.26 0.27 0.27 0.21 0.36 0.19 0.32 0.39 0.43 0.54 0.64 0.65 0.61 0.73 0.75 0.75 0.79 0.82 0.82 0.89 1.06 1.06 1.07 1.17 1.31 1.35 1.30 1.31 1.35 1.43 1.55 1.53 1.55 1.55 1.44 1.37
0.27 0.27 0.26 0.24 0.20 0.23 0.20 0.29 0.28 0.30 0.29 0.28 0.29 0.24 0.28 0.37 0.37 0.52 0.60 0.62 0.64 0.78 0.76 0.74 0.85 0.88 0.87 0.96 1.01 1.04 1.04 1.06 1.13 1.19 1.23 1.23 1.26 1.37 1.29 1.36 1.51 1.53 1.53 1.48
0.31 0.34 0.29 0.24 0.26 0.24 0.30 0.28 0.34 0.35 0.32 0.19 0.27 0.25 0.24 0.29 0.38 0.53 0.59 0.63 0.73 0.76 0.80 0.87 0.95 0.98 0.97 1.03 1.05 1.05 1.04 1.02 1.11 1.17 1.22 1.21 1.18 1.19 1.16 1.23 1.19 1.28 1.34 1.32
0.29 0.29 0.32 0.32 0.22 0.28 0.29 0.24 0.18 0.16 0.16 0.14 0.29 0.25 0.24 0.36 0.46 0.58 0.56 0.65 0.78 0.80 0.81 0.87 0.92 0.92 1.01 1.04 1.04 1.05 1.04 1.00 1.08 1.07 1.11 1.16 1.16 1.16 1.16 1.22 1.25 1.38 1.31 1.33
0.23 0.21 0.30 0.33 0.24 0.20 0.26 0.25 0.17 0.10 0.11 0.14 0.30 0.18 0.22 0.41 0.50 0.63 0.64 0.67 0.79 0.86 0.91 0.93 0.97 1.01 1.03 1.05 1.05 1.02 1.04 1.04 1.06 1.07 1.08 1.16 1.23 1.20 1.26 1.29 1.33 1.31 1.30 1.37
0.23 0.24 0.32 0.30 0.29 0.27 0.27 0.22 0.33 0.23 0.25 0.19 0.23 0.27 0.34 0.39 0.42 0.55 0.60 0.63 0.67 0.81 0.89 0.97 1.01 1.05 1.06 1.03 1.01 1.05 1.03 1.04 1.06 1.05 1.05 1.08 1.18 1.20 1.20 1.27 1.35 1.37 1.37 1.38
0.29 0.23 0.29 0.30 0.29 0.33 0.30 0.36 0.23 0.25 0.14 0.11 0.16 0.19 0.18 0.22 0.30 0.50 0.56 0.59 0.62 0.68 0.77 0.83 0.88 0.90 0.94 0.97 0.98 0.99 1.01 1.00 1.06 1.09 1.10 1.12 1.16 1.21 1.20 1.26 1.29 1.34 1.36 1.37
0.30 0.27 0.24 0.28 0.25 0.24 0.29 0.27 0.27 0.26 0.26 0.15 0.13 0.16 0.28 0.25 0.31 0.44 0.56 0.64 0.67 0.70 0.76 0.79 0.85 0.90 0.93 0.95 0.96 0.95 1.03 1.04 1.12 1.19 1.18 1.16 1.20 1.23 1.26 1.29 1.31 1.29 1.28 1.29
0.29 0.27 0.22 0.23 0.30 0.33 0.32 0.28 0.27 0.20 0.19 0.25 0.19 0.18 0.35 0.34 0.35 0.47 0.60 0.66 0.72 0.77 0.80 0.85 0.87 0.93 1.00 0.96 0.99 0.98 1.02 1.05 1.17 1.26 1.28 1.22 1.27 1.27 1.26 1.23 1.26 1.27 1.24 1.26
0.29 0.24 0.20 0.22 0.27 0.31 0.27 0.29 0.28 0.27 0.26 0.21 0.17 0.17 0.38 0.39 0.36 0.44 0.57 0.64 0.71 0.77 0.81 0.86 0.90 0.92 0.95 0.96 0.97 1.01 1.03 1.04 1.08 1.12 1.13 1.18 1.17 1.20 1.21 1.20 1.22 1.21 1.19 1.19
0.33 0.26 0.22 0.18 0.22 0.26 0.23 0.25 0.27 0.25 0.22 0.22 0.23 0.20 0.29 0.33 0.33 0.37 0.48 0.61 0.67 0.71 0.75 0.83 0.88 0.91 0.93 0.94 0.94 0.93 0.96 0.98 1.01 1.03 1.04 1.01 1.00 1.02 1.01 1.02 1.02 1.01 0.98 0.93
0.31 0.22 0.25 0.26 0.28 0.28 0.27 0.25 0.25 0.24 0.25 0.23 0.25 0.24 0.23 0.31 0.33 0.35 0.44 0.54 0.57 0.62 0.66 0.76 0.77 0.81 0.82 0.81 0.85 0.85 0.92 0.93 0.92 0.86 0.80 0.79 0.80 0.78 0.76 0.73 0.69 0.68 0.67 0.66
0.32 0.23 0.27 0.23 0.26 0.27 0.24 0.27 0.28 0.27 0.27 0.27 0.28 0.26 0.29 0.33 0.40 0.41 0.39 0.46 0.50 0.55 0.61 0.66 0.71 0.72 0.72 0.72 0.71 0.70 0.68 0.66 0.64 0.58 0.53 0.51 0.48 0.46 0.44 0.44 0.41 0.42 0.43 0.43
0.28 0.25 0.23 0.19 0.25 0.24 0.20 0.23 0.25 0.26 0.27 0.27 0.24 0.27 0.30 0.28 0.34 0.37 0.38 0.41 0.47 0.53 0.56 0.57 0.61 0.65 0.69 0.68 0.64 0.56 0.53 0.51 0.47 0.44 0.41 0.39 0.38 0.34 0.32 0.32 0.32 0.32 0.33 0.33
0.26 0.24 0.25 0.20 0.23 0.15 0.23 0.30 0.28 0.27 0.27 0.28 0.28 0.29 0.31 0.29 0.32 0.40 0.44 0.39 0.45 0.52 0.54 0.54 0.57 0.60 0.63 0.60 0.55 0.52 0.49 0.45 0.42 0.38 0.36 0.35 0.31 0.28 0.28 0.27 0.26 0.26 0.26 0.25
0.31 0.26 0.22 0.19 0.19 0.21 0.23 0.27 0.26 0.24 0.23 0.29 0.28 0.31 0.33 0.35 0.39 0.40 0.49 0.46 0.46 0.49 0.54 0.57 0.58 0.59 0.58 0.54 0.53 0.50 0.47 0.43 0.40 0.37 0.37 0.35 0.31 0.28 0.28 0.27 0.27 0.27 0.27 0.27
0.31 0.29 0.24 0.22 0.17 0.15 0.21 0.29 0.33 0.31 0.18 0.28 0.30 0.32 0.35 0.38 0.29 0.31 0.46 0.48 0.48 0.52 0.55 0.56 0.57 0.58 0.56 0.53 0.53 0.50 0.46 0.43 0.40 0.40 0.39 0.36 0.34 0.32 0.31 0.31 0.30 0.29 0.28 0.26
0.24 0.24 0.20 0.21 0.20 0.21 0.28 0.32 0.33 0.19 0.19 0.27 0.30 0.33 0.37 0.34 0.34 0.38 0.44 0.48 0.50 0.51 0.53 0.58 0.57 0.53 0.54 0.55 0.53 0.48 0.47 0.44 0.46 0.46 0.44 0.42 0.40 0.38 0.37 0.35 0.33 0.31 0.28 0.26
0.22 0.21 0.20 0.22 0.19 0.16 0.31 0.31 0.22 0.27 0.29 0.29 0.32 0.35 0.38 0.40 0.41 0.40 0.42 0.45 0.48 0.49 0.52 0.55 0.53 0.53 0.55 0.55 0.52 0.47 0.45 0.48 0.49 0.48 0.47 0.45 0.44 0.42 0.41 0.38 0.36 0.33 0.29 0.26
0.22 0.23 0.20 0.21 0.18 0.26 0.30 0.29 0.32 0.33 0.30 0.31 0.32 0.35 0.37 0.40 0.43 0.44 0.44 0.46 0.47 0.51 0.52 0.54 0.54 0.54 0.55 0.54 0.52 0.46 0.46 0.48 0.49 0.49 0.48 0.47 0.46 0.44 0.42 0.39 0.36 0.34 0.33 0.28
0.28 0.29 0.22 0.22 0.23 0.24 0.28 0.33 0.34 0.35 0.34 0.35 0.35 0.35 0.39 0.39 0.45 0.46 0.47 0.47 0.48 0.53 0.55 0.55 0.55 0.53 0.54 0.55 0.53 0.51 0.50 0.49 0.48 0.46 0.47 0.48 0.46 0.44 0.42 0.40 0.38 0.36 0.34 0.30
0.25 0.27 0.22 0.21 0.22 0.25 0.27 0.31 0.34 0.35 0.36 0.36 0.36 0.37 0.37 0.41 0.44 0.47 0.48 0.49 0.50 0.53 0.57 0.57 0.55 0.54 0.54 0.56 0.55 0.55 0.54 0.53 0.50 0.50 0.50 0.49 0.47 0.45 0.41 0.40 0.39 0.38 0.37 0.34
0.25 0.21 0.19 0.17 0.21 0.22 0.22 0.28 0.35 0.34 0.32 0.37 0.35 0.36 0.38 0.41 0.42 0.47 0.49 0.52 0.51 0.53 0.57 0.57 0.56 0.56 0.56 0.57 0.56 0.57 0.58 0.57 0.55 0.54 0.53 0.51 0.48 0.45 0.42 0.40 0.39 0.42 0.40 0.39

GFSCGP_prec_pwat_132.txt.gz
Precipitable_Water
0.43 0.33 0.26 0.30 0.31 0.26 0.22 0.19 0.18 0.21 0.28 0.33 0.32 0.32 0.35 0.47 0.51 0.53 0.56 0.61 0.66 0.69 0.76 0.81 0.82 0.77 0.79 0.86 0.93 0.97 0.95 1.06 1.16 1.30 1.35 1.40 1.41 1.61 1.66 1.48 1.35 1.44 1.56 1.60
0.33 0.26 0.31 0.34 0.30 0.26 0.22 0.18 0.18 0.22 0.31 0.30 0.31 0.34 0.41 0.47 0.51 0.56 0.61 0.67 0.66 0.64 0.65 0.70 0.80 0.80 0.83 0.89 0.99 0.98 0.96 1.01 1.21 1.31 1.38 1.42 1.48 1.60 1.62 1.49 1.45 1.53 1.61 1.69
0.30 0.27 0.33 0.30 0.26 0.24 0.21 0.18 0.18 0.20 0.28 0.32 0.32 0.27 0.33 0.44 0.50 0.57 0.69 0.70 0.67 0.68 0.70 0.71 0.73 0.85 0.87 0.88 1.00 1.05 1.06 1.11 1.25 1.34 1.39 1.46 1.55 1.58 1.53 1.52 1.51 1.53 1.61 1.56
0.31 0.32 0.30 0.29 0.24 0.25 0.16 0.23 0.24 0.24 0.24 0.19 0.34 0.19 0.29 0.38 0.39 0.56 0.62 0.60 0.72 0.73 0.75 0.74 0.83 0.87 0.88 0.91 1.10 1.11 1.16 1.24 1.30 1.45 1.41 1.36 1.36 1.40 1.49 1.57 1.60 1.58 1.64 1.49
0.30 0.29 0.27 0.25 0.25 0.26 0.19 0.28 0.28 0.30 0.26 0.26 0.28 0.24 0.25 0.35 0.31 0.49 0.58 0.69 0.76 0.76 0.76 0.82 0.89 0.91 0.96 1.03 1.08 1.15 1.17 1.26 1.35 1.43 1.42 1.33 1.33 1.41 1.57 1.51 1.39 1.43 1.56 1.52
0.31 0.36 0.32 0.28 0.28 0.27 0.27 0.29 0.29 0.34 0.30 0.19 0.25 0.25 0.21 0.27 0.33 0.49 0.59 0.67 0.78 0.80 0.89 0.94 0.99 0.99 0.98 1.02 1.06 1.10 1.09 1.14 1.18 1.26 1.24 1.22 1.22 1.27 1.31 1.21 1.20 1.39 1.48 1.44
0.28 0.29 0.33 0.31 0.26 0.30 0.28 0.24 0.16 0.15 0.18 0.14 0.27 0.23 0.21 0.32 0.41 0.53 0.57 0.67 0.80 0.86 0.88 0.92 0.94 0.98 1.01 1.03 1.07 1.07 1.07 1.08 1.11 1.15 1.19 1.23 1.26 1.27 1.22 1.25 1.27 1.31 1.37 1.35
0.21 0.21 0.29 0.32 0.28 0.23 0.25 0.24 0.16 0.11 0.11 0.14 0.26 0.17 0.19 0.35 0.46 0.58 0.64 0.71 0.80 0.86 0.92 0.91 0.96 1.00 1.04 1.08 1.09 1.08 1.04 1.01 1.05 1.09 1.11 1.17 1.20 1.18 1.20 1.26 1.30 1.31 1.29 1.29
0.21 0.23 0.32 0.33 0.34 0.29 0.26 0.23 0.31 0.21 0.25 0.18 0.20 0.25 0.27 0.33 0.35 0.51 0.61 0.63 0.71 0.80 0.87 0.94 0.99 1.03 1.05 1.05 1.03 1.01 0.99 1.02 1.03 1.02 1.04 1.10 1.16 1.17 1.17 1.27 1.31 1.30 1.34 1.35
0.26 0.22 0.30 0.30 0.33 0.33 0.27 0.35 0.24 0.25 0.14 0.12 0.15 0.17 0.16 0.19 0.22 0.45 0.56 0.60 0.63 0.69 0.75 0.81 0.85 0.93 0.97 0.97 0.98 1.02 1.01 0.99 1.03 1.03 1.06 1.06 1.11 1.22 1.22 1.26 1.29 1.30 1.31 1.35
0.29 0.25 0.26 0.29 0.25 0.23 0.29 0.27 0.27 0.26 0.24 0.15 0.13 0.14 0.26 0.23 0.24 0.41 0.55 0.64 0.67 0.71 0.73 0.77 0.81 0.83 0.85 0.91 0.91 0.97 0.99 1.02 1.09 1.11 1.11 1.14 1.18 1.19 1.23 1.28 1.29 1.30 1.31 1.33
0.31 0.26 0.22 0.24 0.30 0.32 0.31 0.27 0.27 0.19 0.18 0.24 0.21 0.16 0.33 0.30 0.30 0.43 0.55 0.64 0.71 0.76 0.80 0.84 0.88 0.96 0.93 0.93 0.92 0.93 0.97 1.09 1.11 1.13 1.17 1.17 1.22 1.22 1.21 1.25 1.29 1.28 1.24 1.27
0.31 0.24 0.19 0.21 0.26 0.30 0.27 0.30 0.29 0.27 0.26 0.21 0.18 0.17 0.35 0.36 0.33 0.38 0.51 0.61 0.69 0.73 0.78 0.84 0.90 0.92 0.92 0.94 0.98 1.01 1.01 1.00 1.04 1.07 1.10 1.09 1.11 1.15 1.19 1.24 1.22 1.24 1.22 1.21
0.33 0.26 0.22 0.17 0.20 0.25 0.23 0.25 0.27 0.25 0.20 0.20 0.22 0.23 0.27 0.30 0.32 0.32 0.43 0.55 0.65 0.68 0.73 0.80 0.85 0.87 0.91 0.93 0.92 0.94 0.95 1.01 1.03 1.05 1.04 1.05 1.08 1.09 1.12 1.12 1.09 1.09 1.10 1.05
0.32 0.24 0.26 0.25 0.26 0.26 0.24 0.23 0.25 0.23 0.23 0.20 0.23 0.25 0.26 0.26 0.31 0.32 0.37 0.50 0.54 0.61 0.68 0.76 0.79 0.79 0.78 0.80 0.83 0.88 0.95 0.97 0.97 0.92 0.86 0.84 0.84 0.84 0.83 0.80 0.75 0.72 0.70 0.71
0.35 0.25 0.26 0.23 0.26 0.26 0.24 0.26 0.25 0.25 0.24 0.24 0.23 0.24 0.33 0.32 0.35 0.36 0.34 0.41 0.48 0.53 0.62 0.69 0.71 0.72 0.71 0.71 0.72 0.74 0.74 0.72 0.71 0.63 0.55 0.55 0.55 0.56 0.56 0.55 0.51 0.50 0.50 0.49
0.33 0.28 0.25 0.19 0.24 0.24 0.19 0.23 0.24 0.25 0.26 0.24 0.21 0.25 0.31 0.31 0.31 0.34 0.36 0.36 0.42 0.51 0.57 0.63 0.67 0.69 0.69 0.68 0.67 0.61 0.57 0.54 0.49 0.45 0.42 0.40 0.39 0.35 0.34 0.35 0.34 0.34 0.34 0.36
0.34 0.29 0.27 0.21 0.23 0.14 0.22 0.29 0.28 0.25 0.25 0.26 0.26 0.27 0.30 0.31 0.32 0.36 0.40 0.36 0.38 0.49 0.55 0.60 0.66 0.67 0.70 0.68 0.62 0.55 0.51 0.47 0.44 0.40 0.37 0.36 0.32 0.29 0.30 0.30 0.29 0.29 0.29 0.28
0.38 0.31 0.24 0.20 0.18 0.20 0.22 0.24 0.26 0.23 0.21 0.25 0.24 0.27 0.30 0.34 0.35 0.33 0.40 0.42 0.38 0.47 0.55 0.59 0.64 0.66 0.67 0.64 0.58 0.52 0.48 0.45 0.42 0.38 0.37 0.35 0.32 0.29 0.29 0.28 0.28 0.29 0.29 0.29
0.39 0.36 0.27 0.22 0.17 0.13 0.19 0.27 0.33 0.30 0.18 0.24 0.25 0.27 0.30 0.35 0.25 0.26 0.38 0.44 0.43 0.49 0.56 0.57 0.59 0.62 0.62 0.60 0.56 0.52 0.48 0.45 0.42 0.40 0.40 0.39 0.35 0.33 0.32 0.32 0.31 0.31 0.31 0.30
0.32 0.31 0.25 0.22 0.19 0.20 0.25 0.29 0.33 0.20 0.18 0.24 0.25 0.27 0.31 0.30 0.30 0.36 0.42 0.44 0.46 0.48 0.51 0.58 0.58 0.55 0.58 0.58 0.55 0.51 0.50 0.46 0.46 0.46 0.45 0.42 0.40 0.38 0.37 0.37 0.37 0.35 0.34 0.33
0.30 0.28 0.25 0.24 0.19 0.15 0.29 0.29 0.23 0.26 0.29 0.27 0.27 0.29 0.31 0.35 0.36 0.38 0.42 0.45 0.45 0.46 0.50 0.54 0.54 0.54 0.56 0.56 0.54 0.51 0.49 0.50 0.49 0.48 0.47 0.45 0.45 0.44 0.43 0.41 0.40 0.39 0.37 0.33
0.28 0.31 0.28 0.25 0.21 0.26 0.28 0.28 0.34 0.34 0.29 0.30 0.29 0.30 0.32 0.34 0.37 0.40 0.42 0.46 0.48 0.47 0.49 0.53 0.53 0.53 0.55 0.54 0.53 0.50 0.50 0.50 0.48 0.47 0.47 0.47 0.47 0.46 0.46 0.43 0.42 0.39 0.38 0.36
0.30 0.35 0.30 0.29 0.28 0.26 0.27 0.33 0.35 0.34 0.32 0.33 0.32 0.32 0.34 0.33 0.38 0.40 0.44 0.49 0.50 0.50 0.50 0.52 0.53 0.53 0.53 0.54 0.53 0.53 0.53 0.50 0.47 0.46 0.46 0.47 0.46 0.46 0.45 0.44 0.42 0.39 0.38 0.38
0.29 0.32 0.28 0.28 0.29 0.28 0.28 0.31 0.34 0.35 0.36 0.35 0.34 0.33 0.33 0.36 0.38 0.41 0.44 0.47 0.50 0.52 0.55 0.56 0.52 0.51 0.53 0.56 0.55 0.57 0.56 0.53 0.49 0.48 0.47 0.48 0.49 0.48 0.46 0.44 0.42 0.38 0.40 0.40
0.32 0.25 0.23 0.23 0.29 0.26 0.24 0.26 0.31 0.34 0.34 0.35 0.34 0.33 0.35 0.37 0.38 0.41 0.42 0.47 0.48 0.50 0.57 0.58 0.57 0.55 0.54 0.56 0.57 0.58 0.58 0.55 0.52 0.50 0.51 0.52 0.53 0.52 0.48 0.44 0.41 0.42 0.42 0.43

GFSCGP_prec_pwat_135.txt.gz
Precipitable_Water
0.43 0.33 0.26 0.29 0.34 0.30 0.25 0.21 0.18 0.20 0.25 0.27 0.29 0.30 0.38 0.44 0.48 0.50 0.55 0.58 0.63 0.67 0.75 0.79 0.81 0.85 0.88 0.83 0.83 0.89 0.90 1.04 1.11 1.13 1.15 1.30 1.25 1.40 1.55 1.75 1.71 1.57 1.53 1.46
0.35 0.27 0.32 0.36 0.34 0.29 0.25 0.21 0.18 0.21 0.28 0.30 0.27 0.26 0.37 0.45 0.49 0.52 0.54 0.61 0.62 0.68 0.70 0.74 0.76 0.76 0.86 0.84 0.89 0.96 0.98 1.08 1.14 1.16 1.32 1.40 1.40 1.55 1.61 1.72 1.64 1.57 1.59 1.54
0.30 0.31 0.34 0.32 0.29 0.25 0.23 0.21 0.18 0.19 0.26 0.31 0.30 0.25 0.31 0.43 0.47 0.51 0.61 0.65 0.74 0.74 0.70 0.71 0.76 0.79 0.89 0.92 0.96 0.99 1.10 1.11 1.18 1.26 1.38 1.44 1.56 1.60 1.53 1.60 1.48 1.52 1.59 1.63
0.35 0.39 0.33 0.29 0.27 0.27 0.19 0.24 0.23 0.23 0.23 0.18 0.31 0.16 0.28 0.36 0.38 0.46 0.58 0.63 0.72 0.73 0.74 0.79 0.84 0.92 0.94 0.96 1.05 1.09 1.14 1.18 1.24 1.33 1.36 1.39 1.41 1.39 1.45 1.43 1.33 1.39 1.57 1.65
0.29 0.32 0.30 0.27 0.28 0.28 0.23 0.27 0.26 0.28 0.26 0.26 0.26 0.22 0.24 0.33 0.30 0.40 0.53 0.62 0.74 0.79 0.85 0.90 0.91 0.92 0.97 1.01 1.05 1.12 1.18 1.23 1.27 1.35 1.45 1.43 1.43 1.51 1.52 1.49 1.45 1.41 1.47 1.59
0.33 0.36 0.33 0.30 0.31 0.30 0.30 0.27 0.28 0.31 0.30 0.19 0.24 0.22 0.19 0.24 0.29 0.41 0.53 0.67 0.75 0.82 0.85 0.89 0.94 0.98 0.98 1.07 1.12 1.16 1.19 1.25 1.34 1.42 1.45 1.37 1.37 1.42 1.45 1.37 1.38 1.39 1.42 1.52
0.31 0.31 0.33 0.33 0.28 0.30 0.28 0.22 0.15 0.16 0.19 0.15 0.27 0.22 0.21 0.30 0.36 0.46 0.50 0.64 0.74 0.83 0.86 0.89 0.92 0.93 0.96 1.02 1.09 1.11 1.10 1.08 1.18 1.22 1.23 1.29 1.29 1.34 1.37 1.36 1.28 1.25 1.36 1.46
0.23 0.21 0.29 0.33 0.27 0.24 0.26 0.22 0.16 0.11 0.12 0.14 0.26 0.16 0.20 0.35 0.40 0.53 0.58 0.67 0.73 0.80 0.85 0.89 0.93 0.99 1.01 1.04 1.06 1.08 1.10 1.08 1.09 1.10 1.16 1.23 1.33 1.36 1.35 1.34 1.29 1.32 1.35 1.42
0.23 0.22 0.32 0.33 0.33 0.30 0.28 0.23 0.27 0.21 0.24 0.19 0.19 0.24 0.31 0.36 0.35 0.48 0.55 0.57 0.67 0.75 0.83 0.87 0.93 0.97 1.01 1.05 1.06 1.03 1.02 1.01 1.00 0.99 1.04 1.07 1.16 1.21 1.22 1.29 1.33 1.36 1.36 1.39
0.28 0.22 0.30 0.33 0.36 0.36 0.29 0.31 0.22 0.23 0.14 0.12 0.15 0.16 0.16 0.22 0.23 0.44 0.52 0.54 0.60 0.68 0.72 0.78 0.86 0.91 0.96 0.97 0.98 1.00 1.01 0.97 0.98 1.02 1.03 1.07 1.08 1.09 1.14 1.21 1.22 1.34 1.33 1.34
0.32 0.28 0.26 0.30 0.26 0.25 0.28 0.25 0.25 0.25 0.22 0.14 0.13 0.14 0.25 0.23 0.25 0.40 0.51 0.58 0.62 0.65 0.68 0.73 0.77 0.81 0.85 0.88 0.93 0.93 0.96 1.00 1.04 1.09 1.08 1.08 1.09 1.11 1.16 1.18 1.26 1.27 1.32 1.33
0.34 0.29 0.22 0.24 0.30 0.32 0.31 0.26 0.26 0.18 0.19 0.22 0.20 0.18 0.30 0.29 0.30 0.45 0.52 0.60 0.68 0.72 0.77 0.81 0.84 0.86 0.84 0.84 0.87 0.89 0.98 1.02 1.08 1.14 1.14 1.13 1.15 1.20 1.21 1.18 1.25 1.27 1.27 1.28
0.34 0.28 0.22 0.21 0.26 0.30 0.26 0.27 0.29 0.26 0.26 0.20 0.17 0.18 0.31 0.34 0.34 0.41 0.51 0.60 0.66 0.71 0.75 0.83 0.89 0.87 0.89 0.90 0.93 0.94 1.01 1.01 1.08 1.11 1.14 1.15 1.14 1.16 1.15 1.16 1.22 1.25 1.22 1.21
0.38 0.30 0.25 0.19 0.21 0.25 0.23 0.25 0.27 0.25 0.20 0.19 0.20 0.21 0.27 0.31 0.31 0.35 0.46 0.57 0.64 0.68 0.74 0.80 0.85 0.87 0.90 0.93 0.93 0.93 0.95 1.02 1.04 1.06 1.06 1.07 1.07 1.10 1.10 1.14 1.15 1.13 1.16 1.12
0.36 0.27 0.28 0.27 0.27 0.26 0.24 0.24 0.25 0.23 0.23 0.19 0.20 0.22 0.26 0.28 0.29 0.34 0.40 0.54 0.59 0.61 0.70 0.75 0.78 0.79 0.82 0.83 0.88 0.93 0.95 0.99 1.01 0.99 0.98 0.98 1.00 0.98 0.95 0.92 0.90 0.87 0.84 0.82
0.38 0.28 0.30 0.26 0.28 0.27 0.23 0.24 0.24 0.25 0.24 0.23 0.22 0.21 0.29 0.33 0.35 0.35 0.38 0.45 0.52 0.58 0.66 0.73 0.76 0.71 0.70 0.73 0.78 0.85 0.84 0.82 0.79 0.68 0.64 0.65 0.65 0.63 0.59 0.57 0.55 0.55 0.58 0.57
0.38 0.32 0.28 0.22 0.27 0.26 0.21 0.23 0.23 0.24 0.25 0.24 0.20 0.23 0.28 0.30 0.33 0.32 0.36 0.37 0.47 0.55 0.61 0.67 0.71 0.72 0.71 0.71 0.70 0.71 0.69 0.66 0.59 0.53 0.50 0.49 0.47 0.42 0.40 0.41 0.42 0.42 0.39 0.38
0.40 0.36 0.32 0.25 0.26 0.17 0.22 0.27 0.27 0.24 0.26 0.25 0.24 0.24 0.27 0.29 0.32 0.36 0.39 0.38 0.40 0.53 0.58 0.64 0.68 0.71 0.72 0.71 0.67 0.62 0.57 0.52 0.47 0.42 0.38 0.37 0.33 0.32 0.33 0.34 0.33 0.33 0.33 0.31
0.42 0.38 0.31 0.26 0.22 0.23 0.23 0.24 0.24 0.23 0.23 0.26 0.23 0.24 0.26 0.31 0.34 0.32 0.39 0.42 0.40 0.48 0.58 0.63 0.70 0.71 0.71 0.69 0.66 0.58 0.52 0.48 0.44 0.39 0.37 0.35 0.33 0.32 0.32 0.32 0.31 0.32 0.30 0.30
0.42 0.41 0.35 0.29 0.21 0.17 0.21 0.27 0.30 0.29 0.19 0.27 0.25 0.24 0.25 0.30 0.24 0.27 0.34 0.41 0.42 0.47 0.59 0.62 0.67 0.71 0.69 0.67 0.62 0.55 0.50 0.48 0.43 0.41 0.41 0.39 0.37 0.36 0.36 0.36 0.36 0.36 0.36 0.34
0.34 0.35 0.31 0.29 0.24 0.23 0.27 0.29 0.31 0.20 0.19 0.27 0.25 0.25 0.26 0.25 0.27 0.31 0.34 0.39 0.44 0.46 0.54 0.63 0.62 0.63 0.65 0.65 0.59 0.53 0.51 0.48 0.48 0.46 0.46 0.43 0.41 0.39 0.40 0.40 0.40 0.39 0.39 0.38
0.33 0.30 0.30 0.31 0.26 0.20 0.31 0.30 0.22 0.25 0.30 0.29 0.27 0.26 0.26 0.30 0.30 0.33 0.36 0.39 0.43 0.45 0.52 0.58 0.57 0.58 0.62 0.62 0.56 0.52 0.50 0.53 0.50 0.48 0.47 0.44 0.44 0.44 0.43 0.42 0.42 0.41 0.42 0.40
0.36 0.36 0.30 0.31 0.30 0.34 0.34 0.28 0.29 0.32 0.30 0.31 0.28 0.28 0.30 0.29 0.30 0.34 0.37 0.41 0.45 0.47 0.50 0.56 0.56 0.56 0.58 0.58 0.55 0.50 0.52 0.51 0.49 0.48 0.47 0.46 0.46 0.46 0.45 0.42 0.41 0.39 0.40 0.39
0.41 0.44 0.36 0.35 0.37 0.37 0.33 0.33 0.32 0.35 0.34 0.34 0.33 0.31 0.32 0.29 0.32 0.33 0.38 0.41 0.45 0.48 0.50 0.54 0.55 0.55 0.54 0.55 0.54 0.54 0.54 0.52 0.48 0.46 0.46 0.46 0.45 0.45 0.45 0.45 0.44 0.41 0.39 0.38
0.36 0.41 0.37 0.36 0.37 0.39 0.38 0.35 0.34 0.35 0.36 0.36 0.35 0.34 0.31 0.32 0.33 0.35 0.38 0.42 0.45 0.47 0.50 0.54 0.54 0.55 0.55 0.56 0.55 0.56 0.56 0.54 0.49 0.47 0.46 0.46 0.46 0.46 0.46 0.48 0.47 0.44 0.42 0.39
0.37 0.31 0.29 0.28 0.35 0.35 0.35 0.35 0.34 0.34 0.36 0.36 0.35 0.35 0.34 0.34 0.34 0.37 0.38 0.43 0.44 0.46 0.50 0.52 0.53 0.55 0.57 0.57 0.56 0.57 0.59 0.58 0.53 0.49 0.48 0.48 0.49 0.49 0.50 0.50 0.49 0.50 0.45 0.43

GFSCGP_prec_pwat_138.txt.gz
Precipitable_Water
0.43 0.34 0.29 0.32 0.35 0.34 0.29 0.26 0.22 0.20 0.25 0.23 0.24 0.28 0.34 0.40 0.43 0.45 0.53 0.56 0.57 0.66 0.77 0.85 0.87 0.83 0.82 0.91 0.89 0.88 0.89 0.99 1.09 1.10 1.04 1.08 1.21 1.25 1.42 1.53 1.61 1.55 1.57 1.59
0.36 0.30 0.36 0.38 0.35 0.32 0.30 0.24 0.22 0.22 0.24 0.27 0.26 0.25 0.31 0.38 0.41 0.49 0.51 0.51 0.62 0.67 0.69 0.75 0.81 0.84 0.82 0.86 0.95 0.94 0.97 1.00 1.10 1.17 1.17 1.20 1.31 1.38 1.48 1.57 1.56 1.54 1.58 1.56
0.31 0.34 0.35 0.34 0.31 0.29 0.28 0.23 0.22 0.19 0.24 0.28 0.27 0.26 0.30 0.38 0.44 0.48 0.52 0.60 0.68 0.68 0.71 0.79 0.83 0.88 0.91 0.97 1.00 0.98 0.99 1.05 1.14 1.23 1.24 1.29 1.40 1.46 1.43 1.47 1.54 1.55 1.53 1.51
0.35 0.39 0.34 0.34 0.31 0.30 0.24 0.28 0.25 0.21 0.22 0.19 0.31 0.17 0.28 0.32 0.34 0.42 0.48 0.60 0.68 0.75 0.84 0.90 0.90 0.95 1.00 1.04 1.08 1.10 1.11 1.11 1.18 1.23 1.24 1.31 1.31 1.34 1.42 1.40 1.55 1.55 1.50 1.55
0.32 0.33 0.31 0.30 0.31 0.32 0.28 0.31 0.27 0.25 0.24 0.25 0.27 0.22 0.26 0.30 0.27 0.35 0.47 0.62 0.70 0.77 0.82 0.88 0.91 0.95 0.98 1.00 1.03 1.10 1.10 1.11 1.18 1.23 1.35 1.41 1.37 1.45 1.49 1.50 1.50 1.54 1.57 1.63
0.34 0.38 0.34 0.32 0.33 0.33 0.36 0.31 0.29 0.29 0.27 0.21 0.26 0.22 0.21 0.23 0.26 0.34 0.48 0.63 0.70 0.75 0.83 0.91 0.97 0.98 0.98 1.04 1.08 1.09 1.12 1.16 1.22 1.24 1.37 1.41 1.41 1.43 1.41 1.39 1.35 1.41 1.51 1.56
0.33 0.32 0.36 0.35 0.30 0.35 0.32 0.25 0.20 0.19 0.22 0.20 0.28 0.23 0.23 0.28 0.32 0.38 0.46 0.60 0.68 0.76 0.82 0.90 0.92 0.91 0.99 1.02 1.06 1.10 1.13 1.16 1.25 1.29 1.35 1.32 1.35 1.42 1.45 1.37 1.38 1.33 1.35 1.44
0.26 0.24 0.31 0.35 0.30 0.28 0.27 0.25 0.20 0.12 0.15 0.19 0.25 0.18 0.23 0.33 0.37 0.46 0.53 0.61 0.68 0.74 0.80 0.86 0.94 0.96 0.98 1.03 1.06 1.09 1.12 1.13 1.20 1.24 1.25 1.29 1.32 1.34 1.40 1.41 1.39 1.39 1.39 1.39
0.26 0.25 0.33 0.34 0.33 0.32 0.30 0.23 0.29 0.21 0.22 0.18 0.22 0.24 0.31 0.37 0.33 0.41 0.51 0.55 0.61 0.69 0.78 0.83 0.91 0.97 0.99 1.00 1.00 1.02 1.05 1.06 1.10 1.12 1.17 1.19 1.26 1.33 1.37 1.43 1.43 1.28 1.39 1.43
0.31 0.24 0.31 0.35 0.37 0.36 0.32 0.34 0.23 0.22 0.15 0.14 0.16 0.17 0.18 0.24 0.25 0.36 0.47 0.51 0.57 0.64 0.69 0.79 0.87 0.93 0.99 1.01 0.98 0.99 1.01 0.99 0.99 1.02 1.06 1.11 1.16 1.22 1.24 1.30 1.31 1.35 1.36 1.39
0.36 0.29 0.28 0.33 0.29 0.28 0.29 0.26 0.25 0.27 0.22 0.16 0.14 0.16 0.24 0.24 0.24 0.32 0.47 0.54 0.58 0.63 0.62 0.67 0.77 0.86 0.90 0.94 0.95 0.96 0.97 0.97 1.00 1.03 1.03 1.03 1.05 1.10 1.13 1.20 1.22 1.23 1.33 1.33
0.39 0.32 0.25 0.27 0.32 0.35 0.33 0.28 0.26 0.17 0.19 0.21 0.20 0.18 0.30 0.28 0.26 0.37 0.49 0.56 0.61 0.66 0.69 0.71 0.71 0.75 0.77 0.83 0.86 0.91 0.99 1.03 1.07 1.07 1.06 1.04 1.10 1.15 1.16 1.17 1.19 1.24 1.24 1.29
0.38 0.31 0.25 0.26 0.29 0.32 0.28 0.30 0.28 0.25 0.25 0.21 0.18 0.19 0.33 0.32 0.32 0.37 0.46 0.55 0.63 0.67 0.71 0.77 0.80 0.82 0.81 0.80 0.85 0.93 1.00 1.04 1.11 1.12 1.11 1.10 1.13 1.16 1.17 1.17 1.17 1.20 1.24 1.25
0.43 0.35 0.27 0.23 0.25 0.27 0.24 0.27 0.29 0.24 0.20 0.20 0.21 0.21 0.27 0.31 0.33 0.37 0.42 0.52 0.60 0.64 0.69 0.75 0.81 0.84 0.86 0.87 0.88 0.94 0.97 1.02 1.07 1.07 1.12 1.10 1.10 1.13 1.16 1.16 1.18 1.19 1.17 1.16
0.43 0.32 0.32 0.31 0.31 0.29 0.26 0.26 0.27 0.23 0.23 0.19 0.22 0.22 0.24 0.31 0.34 0.37 0.43 0.48 0.54 0.59 0.67 0.72 0.76 0.81 0.85 0.85 0.89 0.93 0.96 0.98 1.01 1.00 1.02 1.02 1.06 1.09 1.12 1.11 1.09 1.06 1.04 1.00
0.44 0.35 0.35 0.30 0.32 0.30 0.25 0.26 0.26 0.25 0.25 0.24 0.23 0.22 0.28 0.30 0.39 0.38 0.41 0.44 0.47 0.56 0.65 0.72 0.73 0.73 0.72 0.77 0.83 0.89 0.93 0.96 0.95 0.89 0.85 0.85 0.83 0.79 0.76 0.74 0.70 0.66 0.65 0.65
0.42 0.38 0.34 0.28 0.32 0.31 0.24 0.24 0.24 0.25 0.27 0.26 0.21 0.24 0.28 0.28 0.33 0.37 0.39 0.43 0.44 0.52 0.62 0.66 0.67 0.68 0.69 0.73 0.78 0.80 0.80 0.80 0.71 0.65 0.64 0.62 0.59 0.55 0.52 0.49 0.48 0.47 0.45 0.45
0.41 0.39 0.38 0.31 0.32 0.22 0.26 0.31 0.29 0.25 0.26 0.27 0.26 0.27 0.28 0.28 0.32 0.38 0.43 0.41 0.43 0.52 0.58 0.67 0.69 0.67 0.70 0.71 0.75 0.76 0.68 0.61 0.55 0.52 0.49 0.48 0.43 0.40 0.40 0.40 0.38 0.36 0.36 0.35
0.47 0.41 0.35 0.31 0.28 0.28 0.28 0.28 0.27 0.24 0.22 0.28 0.27 0.27 0.27 0.30 0.32 0.33 0.43 0.45 0.43 0.49 0.59 0.65 0.70 0.71 0.69 0.70 0.70 0.65 0.58 0.53 0.47 0.43 0.41 0.39 0.38 0.37 0.36 0.35 0.34 0.35 0.35 0.34
0.47 0.45 0.38 0.34 0.28 0.22 0.28 0.30 0.32 0.31 0.18 0.27 0.28 0.27 0.26 0.28 0.23 0.27 0.38 0.45 0.49 0.53 0.60 0.64 0.70 0.71 0.70 0.69 0.68 0.60 0.53 0.50 0.45 0.41 0.40 0.38 0.37 0.37 0.38 0.39 0.39 0.39 0.39 0.39
0.40 0.39 0.34 0.32 0.30 0.32 0.34 0.34 0.34 0.20 0.19 0.27 0.29 0.28 0.26 0.25 0.27 0.33 0.38 0.41 0.48 0.51 0.58 0.66 0.68 0.66 0.68 0.68 0.64 0.56 0.52 0.49 0.48 0.46 0.45 0.42 0.42 0.42 0.43 0.42 0.43 0.43 0.42 0.42
0.36 0.35 0.34 0.34 0.30 0.26 0.38 0.34 0.25 0.27 0.29 0.29 0.31 0.30 0.27 0.29 0.32 0.31 0.35 0.39 0.46 0.49 0.55 0.63 0.64 0.65 0.68 0.67 0.62 0.54 0.50 0.53 0.50 0.47 0.47 0.44 0.43 0.43 0.44 0.43 0.43 0.44 0.44 0.41
0.36 0.38 0.36 0.35 0.33 0.40 0.41 0.36 0.36 0.33 0.30 0.31 0.32 0.32 0.31 0.30 0.30 0.32 0.33 0.39 0.44 0.48 0.51 0.60 0.63 0.65 0.66 0.64 0.64 0.53 0.53 0.52 0.49 0.46 0.46 0.45 0.44 0.44 0.44 0.43 0.42 0.42 0.43 0.41
0.44 0.46 0.40 0.39 0.41 0.41 0.39 0.42 0.40 0.36 0.33 0.33 0.34 0.35 0.33 0.30 0.30 0.32 0.36 0.39 0.43 0.48 0.49 0.58 0.62 0.60 0.59 0.63 0.62 0.58 0.55 0.52 0.49 0.45 0.45 0.45 0.43 0.44 0.45 0.45 0.43 0.43 0.43 0.42
0.42 0.45 0.40 0.40 0.43 0.43 0.42 0.40 0.39 0.38 0.38 0.36 0.36 0.36 0.34 0.31 0.30 0.33 0.35 0.38 0.44 0.47 0.51 0.57 0.57 0.57 0.58 0.61 0.60 0.59 0.56 0.54 0.49 0.46 0.45 0.45 0.44 0.44 0.44 0.44 0.45 0.45 0.46 0.45
0.40 0.40 0.38 0.36 0.45 0.43 0.40 0.44 0.43 0.38 0.36 0.38 0.36 0.36 0.37 0.33 0.31 0.34 0.36 0.40 0.43 0.45 0.49 0.53 0.57 0.59 0.59 0.60 0.60 0.60 0.59 0.56 0.53 0.48 0.46 0.45 0.45 0.46 0.46 0.47 0.48 0.51 0.49 0.48

GFSCGP_prec_pwat_141.txt.gz
Precipitable_Water
0.44 0.35 0.30 0.33 0.37 0.34 0.32 0.30 0.26 0.29 0.28 0.25 0.21 0.23 0.30 0.36 0.41 0.42 0.47 0.52 0.57 0.59 0.71 0.76 0.79 0.81 0.84 0.89 0.87 0.92 0.92 0.86 1.03 1.06 1.04 1.01 0.95 1.08 1.20 1.31 1.33 1.49 1.63 1.61
0.39 0.31 0.35 0.38 0.37 0.35 0.33 0.27 0.27 0.29 0.29 0.25 0.22 0.22 0.27 0.33 0.37 0.42 0.48 0.51 0.55 0.63 0.71 0.79 0.86 0.90 0.88 0.85 0.88 0.94 0.92 0.93 1.03 1.09 1.12 1.11 1.10 1.17 1.27 1.39 1.40 1.58 1.62 1.61
0.33 0.35 0.39 0.36 0.36 0.30 0.29 0.27 0.28 0.25 0.27 0.25 0.24 0.23 0.30 0.36 0.40 0.45 0.48 0.53 0.61 0.68 0.73 0.81 0.85 0.92 0.97 0.94 0.99 1.02 1.02 1.04 1.08 1.09 1.18 1.14 1.18 1.21 1.23 1.36 1.44 1.54 1.59 1.53
0.37 0.41 0.36 0.33 0.30 0.32 0.26 0.32 0.31 0.26 0.22 0.18 0.33 0.17 0.28 0.38 0.35 0.39 0.45 0.52 0.64 0.72 0.78 0.83 0.88 0.91 0.99 1.06 1.11 1.12 1.08 1.04 1.10 1.12 1.18 1.18 1.12 1.09 1.25 1.36 1.47 1.53 1.55 1.51
0.35 0.36 0.33 0.33 0.32 0.36 0.31 0.34 0.30 0.27 0.24 0.23 0.24 0.24 0.26 0.37 0.29 0.35 0.43 0.52 0.65 0.72 0.77 0.82 0.89 0.94 1.01 1.09 1.14 1.18 1.14 1.14 1.20 1.22 1.28 1.26 1.17 1.24 1.35 1.43 1.46 1.50 1.53 1.49
0.38 0.41 0.38 0.34 0.36 0.35 0.37 0.33 0.32 0.30 0.26 0.18 0.25 0.27 0.21 0.31 0.27 0.34 0.41 0.54 0.64 0.70 0.77 0.85 0.92 0.99 1.02 1.07 1.08 1.08 1.08 1.12 1.21 1.31 1.23 1.33 1.31 1.35 1.30 1.40 1.39 1.43 1.41 1.44
0.38 0.35 0.38 0.37 0.31 0.34 0.33 0.28 0.22 0.22 0.24 0.20 0.34 0.25 0.22 0.36 0.33 0.32 0.41 0.53 0.63 0.71 0.76 0.81 0.86 0.91 0.99 1.03 1.07 1.11 1.14 1.14 1.20 1.24 1.24 1.22 1.23 1.28 1.34 1.36 1.42 1.40 1.36 1.41
0.30 0.27 0.35 0.37 0.31 0.30 0.30 0.28 0.23 0.16 0.20 0.24 0.30 0.17 0.24 0.35 0.39 0.39 0.46 0.55 0.62 0.68 0.74 0.80 0.86 0.89 0.98 1.04 1.08 1.10 1.07 1.11 1.18 1.17 1.21 1.21 1.21 1.23 1.42 1.36 1.38 1.40 1.41 1.47
0.29 0.31 0.40 0.39 0.37 0.34 0.30 0.26 0.30 0.25 0.26 0.20 0.20 0.24 0.32 0.35 0.36 0.36 0.44 0.52 0.56 0.63 0.72 0.78 0.86 0.91 0.94 0.97 1.02 1.05 1.09 1.12 1.16 1.22 1.23 1.23 1.29 1.33 1.34 1.38 1.43 1.39 1.42 1.42
0.35 0.31 0.38 0.38 0.38 0.36 0.33 0.36 0.24 0.26 0.18 0.17 0.19 0.20 0.21 0.28 0.29 0.32 0.41 0.48 0.55 0.61 0.66 0.75 0.81 0.88 0.94 0.98 0.97 0.99 1.06 1.04 1.06 1.08 1.12 1.16 1.22 1.28 1.35 1.35 1.33 1.35 1.38 1.40
0.39 0.36 0.34 0.37 0.31 0.29 0.31 0.29 0.29 0.30 0.24 0.19 0.16 0.18 0.25 0.28 0.28 0.29 0.40 0.50 0.57 0.61 0.62 0.67 0.77 0.84 0.88 0.90 0.90 0.93 0.94 0.96 1.02 1.05 1.08 1.08 1.12 1.16 1.20 1.20 1.25 1.33 1.39 1.38
0.41 0.38 0.30 0.32 0.37 0.38 0.35 0.30 0.29 0.22 0.22 0.22 0.19 0.21 0.29 0.31 0.30 0.30 0.43 0.51 0.58 0.64 0.66 0.68 0.70 0.75 0.77 0.82 0.85 0.89 0.96 1.00 1.05 1.07 1.06 1.05 1.09 1.15 1.17 1.18 1.20 1.25 1.21 1.30
0.45 0.37 0.32 0.31 0.33 0.34 0.31 0.32 0.31 0.30 0.26 0.21 0.19 0.21 0.33 0.30 0.28 0.33 0.44 0.51 0.57 0.63 0.65 0.69 0.71 0.72 0.71 0.76 0.79 0.87 0.97 1.02 1.06 1.06 1.04 1.04 1.08 1.14 1.16 1.19 1.20 1.21 1.22 1.23
0.52 0.42 0.35 0.27 0.28 0.32 0.27 0.29 0.32 0.29 0.23 0.21 0.21 0.25 0.29 0.30 0.29 0.35 0.42 0.50 0.55 0.61 0.64 0.69 0.75 0.77 0.78 0.78 0.83 0.90 0.96 1.01 1.07 1.08 1.07 1.06 1.08 1.11 1.13 1.17 1.18 1.18 1.18 1.14
0.51 0.38 0.39 0.37 0.36 0.35 0.32 0.30 0.29 0.27 0.26 0.21 0.23 0.23 0.28 0.30 0.32 0.37 0.45 0.47 0.51 0.56 0.60 0.67 0.72 0.78 0.81 0.83 0.85 0.91 0.94 0.97 0.99 0.98 1.01 1.01 1.04 1.07 1.07 1.08 1.12 1.10 1.08 1.06
0.53 0.39 0.40 0.36 0.37 0.35 0.31 0.31 0.30 0.28 0.28 0.26 0.24 0.24 0.30 0.34 0.37 0.39 0.43 0.44 0.46 0.53 0.59 0.66 0.73 0.76 0.80 0.79 0.87 0.91 0.93 0.96 0.98 0.95 0.95 1.00 1.03 1.03 1.00 1.00 0.97 0.89 0.83 0.80
0.47 0.45 0.40 0.33 0.38 0.35 0.29 0.28 0.29 0.28 0.30 0.28 0.22 0.26 0.30 0.28 0.34 0.37 0.41 0.42 0.42 0.51 0.59 0.64 0.68 0.71 0.71 0.78 0.83 0.84 0.89 0.89 0.83 0.82 0.81 0.76 0.72 0.66 0.62 0.60 0.56 0.52 0.50 0.51
0.49 0.46 0.43 0.35 0.37 0.27 0.30 0.35 0.33 0.29 0.29 0.29 0.28 0.30 0.31 0.29 0.32 0.40 0.45 0.44 0.43 0.50 0.59 0.66 0.68 0.68 0.71 0.77 0.81 0.84 0.84 0.79 0.68 0.63 0.61 0.57 0.52 0.46 0.45 0.44 0.43 0.43 0.43 0.43
0.58 0.50 0.40 0.34 0.33 0.32 0.35 0.34 0.32 0.29 0.25 0.30 0.29 0.31 0.32 0.32 0.32 0.35 0.45 0.50 0.46 0.48 0.60 0.68 0.70 0.69 0.68 0.71 0.76 0.75 0.69 0.65 0.58 0.52 0.50 0.49 0.46 0.45 0.45 0.43 0.42 0.42 0.40 0.38
0.54 0.55 0.43 0.40 0.31 0.27 0.33 0.38 0.40 0.38 0.23 0.30 0.30 0.30 0.31 0.31 0.22 0.28 0.41 0.48 0.50 0.52 0.61 0.67 0.72 0.67 0.66 0.68 0.71 0.67 0.59 0.56 0.51 0.47 0.46 0.44 0.41 0.41 0.41 0.42 0.42 0.43 0.42 0.40
0.39 0.43 0.37 0.38 0.36 0.34 0.41 0.42 0.42 0.27 0.24 0.29 0.30 0.29 0.31 0.27 0.28 0.32 0.39 0.46 0.50 0.51 0.58 0.69 0.69 0.65 0.65 0.69 0.66 0.59 0.55 0.51 0.49 0.47 0.45 0.42 0.43 0.44 0.46 0.45 0.44 0.43 0.43 0.44
0.32 0.36 0.36 0.39 0.35 0.31 0.47 0.43 0.32 0.34 0.36 0.33 0.32 0.32 0.31 0.32 0.32 0.35 0.38 0.43 0.47 0.51 0.58 0.65 0.66 0.65 0.68 0.70 0.65 0.57 0.52 0.53 0.50 0.46 0.44 0.42 0.42 0.43 0.44 0.43 0.43 0.44 0.43 0.43
0.30 0.39 0.37 0.38 0.36 0.46 0.48 0.43 0.44 0.42 0.39 0.34 0.33 0.35 0.35 0.33 0.32 0.34 0.36 0.43 0.47 0.51 0.57 0.63 0.65 0.65 0.68 0.68 0.65 0.57 0.54 0.53 0.49 0.45 0.43 0.42 0.42 0.41 0.43 0.43 0.43 0.43 0.43 0.42
0.35 0.44 0.42 0.45 0.47 0.48 0.46 0.47 0.45 0.42 0.38 0.37 0.38 0.37 0.36 0.34 0.34 0.33 0.36 0.42 0.46 0.53 0.57 0.60 0.64 0.62 0.63 0.63 0.65 0.61 0.56 0.52 0.48 0.44 0.43 0.42 0.41 0.40 0.42 0.43 0.43 0.42 0.42 0.42
0.39 0.42 0.41 0.42 0.52 0.48 0.49 0.46 0.44 0.43 0.42 0.39 0.37 0.38 0.38 0.35 0.34 0.34 0.36 0.41 0.45 0.50 0.56 0.58 0.59 0.61 0.62 0.62 0.63 0.63 0.56 0.52 0.48 0.45 0.43 0.42 0.42 0.41 0.41 0.42 0.42 0.42 0.44 0.45
0.41 0.42 0.37 0.34 0.46 0.49 0.47 0.49 0.47 0.44 0.43 0.40 0.38 0.37 0.40 0.38 0.36 0.35 0.36 0.40 0.44 0.47 0.53 0.54 0.58 0.62 0.62 0.62 0.62 0.62 0.57 0.52 0.49 0.46 0.44 0.43 0.42 0.42 0.42 0.42 0.43 0.47 0.48 0.47

GFSCGP_prec_pwat_144.txt.gz
Precipitable_Water
0.45 0.34 0.27 0.32 0.37 0.36 0.33 0.30 0.29 0.32 0.33 0.29 0.26 0.25 0.24 0.28 0.35 0.38 0.44 0.46 0.51 0.56 0.67 0.77 0.79 0.82 0.85 0.85 0.85 0.92 0.97 1.01 1.00 1.06 1.13 1.10 1.09 1.08 1.15 1.19 1.30 1.31 1.39 1.43
0.39 0.33 0.38 0.39 0.38 0.36 0.34 0.31 0.29 0.30 0.33 0.29 0.27 0.24 0.25 0.26 0.31 0.37 0.41 0.47 0.51 0.57 0.66 0.73 0.80 0.84 0.89 0.96 0.92 0.88 0.86 0.94 1.01 1.08 1.21 1.15 1.16 1.18 1.16 1.20 1.23 1.36 1.42 1.46
0.34 0.36 0.43 0.40 0.35 0.33 0.33 0.29 0.28 0.27 0.32 0.31 0.26 0.22 0.27 0.33 0.35 0.43 0.45 0.48 0.54 0.59 0.65 0.73 0.81 0.86 0.91 0.95 0.99 1.02 0.98 1.00 1.02 1.17 1.20 1.22 1.19 1.21 1.11 1.13 1.19 1.30 1.41 1.49
0.37 0.40 0.39 0.38 0.32 0.33 0.28 0.34 0.32 0.30 0.28 0.20 0.28 0.16 0.22 0.32 0.38 0.43 0.41 0.46 0.55 0.63 0.70 0.76 0.83 0.86 0.93 1.04 1.14 1.09 1.07 1.02 1.13 1.27 1.15 1.10 1.04 1.01 1.08 1.15 1.22 1.32 1.39 1.53
0.32 0.37 0.37 0.36 0.35 0.37 0.29 0.36 0.33 0.31 0.27 0.24 0.23 0.20 0.21 0.32 0.34 0.40 0.41 0.46 0.57 0.65 0.71 0.76 0.84 0.89 0.97 1.04 1.14 1.19 1.12 1.09 1.15 1.12 1.11 1.10 1.07 1.11 1.09 1.15 1.20 1.32 1.43 1.52
0.38 0.46 0.42 0.40 0.41 0.40 0.38 0.35 0.33 0.31 0.28 0.19 0.22 0.23 0.22 0.31 0.35 0.39 0.43 0.49 0.57 0.64 0.71 0.80 0.89 0.95 0.96 1.06 1.08 1.11 1.10 1.11 1.15 1.14 1.17 1.14 1.11 1.18 1.13 1.14 1.12 1.25 1.38 1.50
0.37 0.36 0.41 0.43 0.37 0.38 0.36 0.30 0.22 0.21 0.23 0.19 0.32 0.26 0.26 0.35 0.39 0.40 0.39 0.45 0.57 0.64 0.70 0.77 0.85 0.89 0.95 1.01 1.08 1.12 1.13 1.09 1.16 1.21 1.26 1.22 1.14 1.12 1.10 1.19 1.18 1.29 1.39 1.39
0.30 0.27 0.36 0.41 0.37 0.34 0.33 0.30 0.22 0.16 0.20 0.24 0.35 0.23 0.25 0.35 0.40 0.43 0.44 0.50 0.58 0.60 0.69 0.76 0.83 0.87 0.94 0.98 1.04 1.07 1.10 1.17 1.21 1.24 1.23 1.20 1.14 1.12 1.23 1.28 1.24 1.31 1.41 1.40
0.31 0.31 0.40 0.41 0.41 0.40 0.36 0.29 0.33 0.27 0.26 0.21 0.23 0.27 0.33 0.39 0.40 0.39 0.40 0.49 0.52 0.56 0.64 0.72 0.82 0.88 0.91 0.97 1.03 1.05 1.07 1.10 1.16 1.19 1.23 1.22 1.16 1.15 1.24 1.33 1.35 1.37 1.44 1.44
0.38 0.31 0.41 0.42 0.41 0.41 0.38 0.41 0.29 0.28 0.18 0.17 0.20 0.22 0.23 0.31 0.33 0.36 0.36 0.45 0.52 0.56 0.60 0.70 0.78 0.85 0.91 0.94 0.97 1.00 1.05 1.07 1.11 1.13 1.16 1.16 1.15 1.16 1.25 1.35 1.34 1.35 1.40 1.42
0.41 0.39 0.37 0.42 0.37 0.33 0.34 0.33 0.34 0.32 0.26 0.19 0.18 0.21 0.29 0.32 0.34 0.32 0.36 0.47 0.52 0.55 0.59 0.64 0.73 0.81 0.86 0.89 0.87 0.88 0.92 0.94 0.98 1.01 1.03 1.08 1.14 1.20 1.29 1.24 1.29 1.35 1.36 1.36
0.42 0.40 0.34 0.36 0.41 0.41 0.38 0.34 0.35 0.28 0.24 0.24 0.23 0.20 0.28 0.37 0.36 0.37 0.36 0.49 0.56 0.59 0.61 0.65 0.67 0.76 0.80 0.83 0.83 0.86 0.92 0.96 1.03 1.05 1.04 1.05 1.11 1.15 1.19 1.16 1.20 1.30 1.32 1.34
0.43 0.39 0.33 0.34 0.38 0.39 0.36 0.36 0.35 0.35 0.32 0.24 0.21 0.22 0.32 0.37 0.34 0.36 0.38 0.50 0.55 0.59 0.60 0.64 0.66 0.68 0.73 0.77 0.79 0.84 0.92 1.01 1.06 1.06 1.02 1.05 1.07 1.12 1.23 1.26 1.27 1.30 1.23 1.26
0.52 0.40 0.34 0.28 0.32 0.36 0.33 0.34 0.35 0.33 0.27 0.24 0.23 0.26 0.30 0.32 0.31 0.34 0.44 0.50 0.54 0.57 0.58 0.61 0.65 0.68 0.70 0.74 0.78 0.84 0.93 1.00 1.05 1.06 1.06 1.07 1.09 1.13 1.17 1.17 1.16 1.18 1.21 1.18
0.49 0.34 0.36 0.38 0.40 0.41 0.38 0.35 0.34 0.31 0.30 0.25 0.26 0.26 0.28 0.31 0.33 0.36 0.46 0.49 0.50 0.52 0.56 0.60 0.64 0.69 0.73 0.73 0.79 0.87 0.94 0.97 1.00 1.00 1.02 1.04 1.07 1.09 1.11 1.14 1.12 1.13 1.11 1.11
0.51 0.34 0.38 0.34 0.40 0.41 0.38 0.38 0.35 0.33 0.32 0.31 0.30 0.26 0.32 0.36 0.39 0.39 0.45 0.49 0.46 0.48 0.54 0.60 0.65 0.70 0.73 0.78 0.81 0.88 0.89 0.93 0.97 0.96 0.96 0.99 1.02 1.02 1.02 1.05 1.06 1.01 0.96 0.92
0.44 0.37 0.37 0.29 0.36 0.37 0.33 0.34 0.35 0.35 0.34 0.34 0.27 0.29 0.32 0.33 0.35 0.36 0.41 0.47 0.47 0.47 0.53 0.59 0.64 0.69 0.74 0.73 0.83 0.85 0.88 0.91 0.90 0.91 0.93 0.93 0.91 0.85 0.81 0.77 0.69 0.63 0.58 0.58
0.43 0.43 0.38 0.27 0.34 0.27 0.34 0.43 0.40 0.36 0.36 0.36 0.33 0.35 0.33 0.32 0.35 0.38 0.44 0.47 0.48 0.49 0.53 0.61 0.67 0.68 0.71 0.76 0.82 0.85 0.86 0.81 0.78 0.77 0.74 0.71 0.66 0.58 0.53 0.49 0.46 0.45 0.45 0.45
0.46 0.43 0.37 0.31 0.28 0.30 0.41 0.41 0.37 0.33 0.30 0.36 0.34 0.36 0.35 0.35 0.34 0.36 0.43 0.50 0.51 0.52 0.54 0.64 0.69 0.69 0.70 0.74 0.80 0.81 0.79 0.74 0.66 0.62 0.59 0.55 0.49 0.44 0.44 0.43 0.43 0.43 0.43 0.42
0.37 0.44 0.37 0.36 0.30 0.25 0.32 0.43 0.44 0.41 0.28 0.37 0.36 0.34 0.33 0.34 0.26 0.27 0.41 0.48 0.54 0.57 0.58 0.64 0.69 0.69 0.68 0.72 0.77 0.75 0.71 0.66 0.55 0.53 0.50 0.48 0.45 0.43 0.43 0.44 0.43 0.44 0.43 0.41
0.27 0.33 0.29 0.30 0.33 0.34 0.45 0.47 0.48 0.31 0.30 0.39 0.38 0.35 0.35 0.30 0.30 0.34 0.40 0.46 0.54 0.58 0.59 0.66 0.68 0.62 0.64 0.70 0.71 0.66 0.63 0.57 0.55 0.51 0.48 0.45 0.45 0.44 0.44 0.44 0.45 0.45 0.44 0.43
0.30 0.27 0.29 0.30 0.30 0.29 0.50 0.48 0.38 0.40 0.42 0.42 0.41 0.37 0.35 0.35 0.36 0.36 0.38 0.44 0.51 0.57 0.60 0.65 0.64 0.61 0.65 0.68 0.65 0.60 0.58 0.59 0.55 0.49 0.45 0.43 0.43 0.44 0.44 0.43 0.43 0.43 0.42 0.41
0.27 0.38 0.31 0.31 0.24 0.44 0.48 0.49 0.51 0.49 0.44 0.44 0.42 0.44 0.39 0.37 0.36 0.37 0.37 0.44 0.50 0.56 0.58 0.64 0.62 0.61 0.64 0.65 0.65 0.56 0.56 0.54 0.50 0.45 0.41 0.41 0.41 0.42 0.43 0.41 0.41 0.41 0.41 0.40
0.32 0.37 0.39 0.38 0.35 0.39 0.44 0.55 0.55 0.52 0.48 0.47 0.45 0.43 0.43 0.38 0.38 0.37 0.39 0.43 0.50 0.56 0.57 0.63 0.62 0.60 0.59 0.64 0.65 0.61 0.56 0.51 0.48 0.43 0.41 0.41 0.40 0.40 0.41 0.42 0.41 0.40 0.39 0.38
0.37 0.41 0.35 0.31 0.36 0.45 0.45 0.49 0.55 0.55 0.52 0.49 0.46 0.44 0.43 0.42 0.39 0.39 0.40 0.43 0.50 0.54 0.59 0.62 0.58 0.58 0.57 0.63 0.64 0.61 0.56 0.51 0.46 0.44 0.41 0.40 0.40 0.39 0.39 0.40 0.40 0.40 0.40 0.39
0.33 0.33 0.34 0.30 0.36 0.36 0.44 0.48 0.60 0.55 0.52 0.49 0.46 0.42 0.47 0.44 0.40 0.41 0.41 0.44 0.49 0.53 0.58 0.60 0.59 0.59 0.60 0.62 0.62 0.59 0.57 0.51 0.47 0.43 0.42 0.40 0.39 0.39 0.39 0.40 0.41 0.45 0.44 0.43